[[{"header":{"parameterUnit":"m.s-1","parameterCategory":1,"la1":30.6,"la2":28.766,"lo1":-90.7593,"lo2":-88.6598,"dy":0.0162,"dx":0.0183,"nx":116,"ny":114,"refTime":"2023-08-22T12:00:00:Z","depth":0,"parameterNumber":2,"parameterNumberName":"U-component_of_WINDS"},"data":[0.0,0.0,0.0,0.0,0.0,0.0,0.0,0.0,0.0,0.0,0.0,0.0,0.0,0.0,0.0,0.0,0.0,0.0,0.0,0.0,0.0,0.0,0.0,0.0,0.0,0.0,0.0,0.0,0.0,0.0,0.0,0.0,0.0,0.0,0.0,0.0,0.0,0.0,0.0,0.0,0.0,0.0,0.0,0.0,0.0,0.0,0.0,0.0,0.0,0.0,0.0,0.0,0.0,0.0,0.0,0.0,0.0,0.0,0.0,0.0,0.0,0.0,0.0,0.0,0.0,0.0,0.0,0.0,0.0,0.0,0.0,0.0,0.0,0.0,0.0,0.0,0.0,0.0,0.0,0.0,0.0,0.0,0.0,0.0,0.0,0.0,0.0,0.0,0.0,0.0,0.0,0.0,0.0,0.0,0.0,0.0,0.0,0.0,0.0,0.0,0.0,0.0,0.0,0.0,0.0,0.0,0.0,0.0,0.0,0.0,0.0,0.0,0.0,0.0,0.0,0.0,0.0,0.0,0.0,0.0,0.0,0.0,0.0,0.0,0.0,0.0,0.0,0.0,0.0,0.0,0.0,0.0,0.0,0.0,0.0,0.0,0.0,0.0,0.0,0.0,0.0,0.0,0.0,0.0,0.0,0.0,0.0,0.0,0.0,0.0,0.0,0.0,0.0,0.0,0.0,0.0,0.0,0.0,0.0,0.0,0.0,0.0,0.0,0.0,0.0,0.0,0.0,0.0,0.0,0.0,0.0,0.0,0.0,0.0,0.0,0.0,0.0,0.0,0.0,0.0,0.0,0.0,0.0,0.0,0.0,0.0,0.0,0.0,0.0,0.0,0.0,0.0,0.0,0.0,0.0,0.0,0.0,0.0,0.0,0.0,0.0,0.0,0.0,0.0,0.0,0.0,0.0,0.0,0.0,0.0,0.0,0.0,0.0,0.0,0.0,0.0,0.0,0.0,0.0,0.0,0.0,0.0,0.0,0.0,0.0,0.0,0.0,0.0,0.0,0.0,0.0,0.0,0.0,0.0,0.0,0.0,0.0,0.0,0.0,0.0,0.0,0.0,0.0,0.0,0.0,0.0,0.0,0.0,0.0,0.0,0.0,0.0,0.0,0.0,0.0,0.0,0.0,0.0,0.0,0.0,0.0,0.0,0.0,0.0,0.0,0.0,0.0,0.0,0.0,0.0,0.0,0.0,0.0,0.0,0.0,0.0,0.0,0.0,0.0,0.0,0.0,0.0,0.0,0.0,0.0,0.0,0.0,0.0,0.0,0.0,0.0,0.0,0.0,0.0,0.0,0.0,0.0,0.0,0.0,0.0,0.0,0.0,0.0,0.0,0.0,0.0,0.0,0.0,0.0,0.0,0.0,0.0,0.0,0.0,0.0,0.0,0.0,0.0,0.0,0.0,0.0,0.0,0.0,0.0,0.0,0.0,0.0,0.0,0.0,0.0,0.0,0.0,0.0,0.0,0.0,0.0,0.0,0.0,0.0,0.0,0.0,0.0,0.0,0.0,0.0,0.0,0.0,0.0,0.0,0.0,0.0,0.0,0.0,0.0,0.0,0.0,0.0,0.0,0.0,0.0,0.0,0.0,0.0,0.0,0.0,0.0,0.0,0.0,0.0,0.0,0.0,0.0,0.0,0.0,0.0,0.0,0.0,0.0,0.0,0.0,0.0,0.0,0.0,0.0,0.0,0.0,0.0,0.0,0.0,0.0,0.0,0.0,0.0,0.0,0.0,0.0,0.0,0.0,0.0,0.0,0.0,0.0,0.0,0.0,0.0,0.0,0.0,0.0,0.0,0.0,0.0,0.0,0.0,0.0,0.0,0.0,0.0,0.0,0.0,0.0,0.0,0.0,0.0,0.0,0.0,0.0,0.0,0.0,0.0,0.0,0.0,0.0,0.0,0.0,0.0,0.0,0.0,0.0,0.0,0.0,0.0,0.0,0.0,0.0,0.0,0.0,0.0,0.0,0.0,0.0,0.0,0.0,0.0,0.0,0.0,0.0,0.0,0.0,0.0,0.0,0.0,0.0,0.0,0.0,0.0,0.0,0.0,0.0,0.0,0.0,0.0,0.0,0.0,0.0,0.0,0.0,0.0,0.0,0.0,0.0,0.0,0.0,0.0,0.0,0.0,0.0,0.0,0.0,0.0,0.0,0.0,0.0,0.0,0.0,0.0,0.0,0.0,0.0,0.0,0.0,0.0,0.0,0.0,0.0,0.0,0.0,0.0,0.0,0.0,0.0,0.0,0.0,0.0,0.0,0.0,0.0,0.0,0.0,0.0,0.0,0.0,0.0,0.0,0.0,0.0,0.0,0.0,0.0,0.0,0.0,0.0,0.0,0.0,0.0,0.0,0.0,0.0,0.0,0.0,0.0,0.0,0.0,0.0,0.0,0.0,0.0,0.0,0.0,0.0,0.0,0.0,0.0,0.0,0.0,0.0,0.0,0.0,0.0,0.0,0.0,0.0,0.0,0.0,0.0,0.0,0.0,0.0,0.0,0.0,0.0,0.0,0.0,0.0,0.0,0.0,0.0,0.0,0.0,0.0,0.0,0.0,0.0,0.0,0.0,0.0,0.0,0.0,0.0,0.0,0.0,0.0,0.0,0.0,0.0,0.0,0.0,0.0,0.0,0.0,0.0,0.0,0.0,0.0,0.0,0.0,0.0,0.0,0.0,0.0,0.0,0.0,0.0,0.0,0.0,0.0,0.0,0.0,0.0,0.0,0.0,0.0,0.0,0.0,0.0,0.0,0.0,0.0,0.0,0.0,0.0,0.0,0.0,0.0,0.0,0.0,0.0,0.0,0.0,0.0,0.0,0.0,0.0,0.0,0.0,0.0,0.0,0.0,0.0,0.0,0.0,0.0,0.0,0.0,0.0,0.0,0.0,0.0,0.0,0.0,0.0,0.0,0.0,0.0,0.0,0.0,0.0,0.0,0.0,0.0,0.0,0.0,0.0,0.0,0.0,0.0,0.0,0.0,0.0,0.0,0.0,0.0,0.0,0.0,0.0,0.0,0.0,0.0,0.0,0.0,0.0,0.0,0.0,0.0,0.0,0.0,0.0,0.0,0.0,0.0,0.0,0.0,0.0,0.0,0.0,0.0,0.0,0.0,0.0,0.0,0.0,0.0,0.0,0.0,0.0,0.0,0.0,0.0,0.0,0.0,0.0,0.0,0.0,0.0,0.0,0.0,0.0,0.0,0.0,0.0,0.0,0.0,0.0,0.0,0.0,0.0,0.0,0.0,0.0,0.0,0.0,0.0,0.0,0.0,0.0,0.0,0.0,0.0,0.0,0.0,0.0,0.0,0.0,0.0,0.0,0.0,0.0,0.0,0.0,0.0,0.0,0.0,0.0,0.0,0.0,0.0,0.0,0.0,0.0,0.0,0.0,0.0,0.0,0.0,0.0,0.0,0.0,0.0,0.0,0.0,0.0,0.0,0.0,0.0,0.0,0.0,0.0,0.0,0.0,0.0,0.0,0.0,0.0,0.0,0.0,0.0,0.0,0.0,0.0,0.0,0.0,0.0,0.0,0.0,0.0,0.0,0.0,0.0,0.0,0.0,0.0,0.0,0.0,0.0,0.0,0.0,0.0,0.0,0.0,0.0,0.0,0.0,0.0,0.0,0.0,0.0,0.0,0.0,0.0,0.0,0.0,0.0,0.0,0.0,0.0,0.0,0.0,0.0,0.0,0.0,0.0,0.0,0.0,0.0,0.0,0.0,0.0,0.0,0.0,0.0,0.0,0.0,0.0,0.0,0.0,0.0,0.0,0.0,0.0,0.0,0.0,0.0,0.0,0.0,0.0,0.0,0.0,0.0,0.0,0.0,0.0,0.0,0.0,0.0,0.0,0.0,0.0,0.0,0.0,0.0,0.0,0.0,0.0,0.0,0.0,0.0,0.0,0.0,0.0,0.0,0.0,0.0,0.0,0.0,0.0,0.0,0.0,0.0,0.0,0.0,0.0,0.0,0.0,0.0,0.0,0.0,0.0,0.0,0.0,0.0,0.0,0.0,0.0,0.0,0.0,0.0,0.0,0.0,0.0,0.0,0.0,0.0,0.0,0.0,0.0,0.0,0.0,0.0,0.0,0.0,0.0,0.0,0.0,0.0,0.0,0.0,0.0,0.0,0.0,0.0,0.0,0.0,0.0,0.0,0.0,0.0,0.0,0.0,0.0,0.0,0.0,0.0,0.0,0.0,0.0,0.0,0.0,0.0,0.0,0.0,0.0,0.0,0.0,0.0,0.0,0.0,0.0,0.0,0.0,0.0,0.0,0.0,0.0,0.0,0.0,0.0,0.0,0.0,0.0,0.0,0.0,0.0,0.0,0.0,0.0,0.0,0.0,0.0,0.0,0.0,0.0,0.0,0.0,0.0,0.0,0.0,0.0,0.0,0.0,0.0,0.0,0.0,0.0,0.0,0.0,0.0,0.0,0.0,0.0,0.0,0.0,0.0,0.0,0.0,0.0,0.0,0.0,0.0,0.0,0.0,0.0,0.0,0.0,0.0,0.0,0.0,0.0,0.0,0.0,0.0,0.0,0.0,0.0,0.0,0.0,0.0,0.0,0.0,0.0,0.0,0.0,0.0,0.0,0.0,0.0,0.0,0.0,0.0,0.0,0.0,0.0,0.0,0.0,0.0,0.0,0.0,0.0,0.0,0.0,0.0,0.0,0.0,0.0,0.0,0.0,0.0,0.0,0.0,0.0,0.0,0.0,0.0,0.0,0.0,0.0,0.0,0.0,0.0,0.0,0.0,0.0,0.0,0.0,0.0,0.0,0.0,0.0,0.0,0.0,0.0,0.0,0.0,0.0,0.0,0.0,0.0,0.0,0.0,0.0,0.0,0.0,0.0,0.0,0.0,0.0,0.0,0.0,0.0,0.0,0.0,0.0,0.0,0.0,0.0,0.0,0.0,0.0,0.0,0.0,0.0,0.0,0.0,0.0,0.0,0.0,0.0,0.0,0.0,0.0,0.0,0.0,0.0,0.0,0.0,0.0,0.0,0.0,0.0,0.0,0.0,0.0,0.0,0.0,0.0,0.0,0.0,0.0,0.0,0.0,0.0,0.0,0.0,0.0,0.0,0.0,0.0,0.0,0.0,0.0,0.0,0.0,0.0,0.0,0.0,0.0,0.0,0.0,0.0,0.0,0.0,0.0,0.0,0.0,0.0,0.0,0.0,0.0,0.0,0.0,0.0,0.0,0.0,0.0,0.0,0.0,0.0,0.0,0.0,0.0,0.0,0.0,0.0,0.0,0.0,0.0,0.0,0.0,0.0,0.0,0.0,0.0,0.0,0.0,0.0,0.0,0.0,0.0,0.0,0.0,0.0,0.0,0.0,0.0,0.0,0.0,0.0,0.0,0.0,0.0,0.0,0.0,0.0,0.0,0.0,0.0,0.0,0.0,0.0,0.0,0.0,0.0,0.0,0.0,0.0,0.0,0.0,0.0,0.0,0.0,0.0,0.0,0.0,0.0,0.0,0.0,0.0,0.0,0.0,0.0,0.0,0.0,0.0,0.0,0.0,0.0,0.0,0.0,0.0,0.0,0.0,0.0,0.0,0.0,0.0,0.0,0.0,0.0,0.0,0.0,0.0,0.0,0.0,0.0,0.0,0.0,0.0,0.0,0.0,0.0,0.0,0.0,0.0,0.0,0.0,0.0,0.0,0.0,0.0,0.0,0.0,0.0,0.0,0.0,0.0,0.0,0.0,0.0,0.0,0.0,0.0,0.0,0.0,0.0,0.0,0.0,0.0,0.0,0.0,0.0,0.0,0.0,0.0,0.0,0.0,0.0,0.0,0.0,0.0,0.0,0.0,0.0,0.0,0.0,0.0,0.0,0.0,0.0,0.0,0.0,0.0,0.0,0.0,0.0,0.0,0.0,0.0,0.0,0.0,0.0,0.0,0.0,0.0,0.0,0.0,0.0,0.0,0.0,0.0,0.0,0.0,0.0,0.0,0.0,0.0,0.0,0.0,0.0,0.0,0.0,0.0,0.0,0.0,0.0,0.0,0.0,0.0,0.0,0.0,0.0,0.0,0.0,0.0,0.0,0.0,0.0,0.0,0.0,0.0,0.0,0.0,0.0,1.2915,0.0,0.0,0.0,0.0,0.0,0.0,0.0,0.0,0.0,0.0,0.0,0.0,0.0,0.0,0.0,0.0,0.0,0.0,0.0,0.0,0.0,0.0,0.0,0.0,0.0,0.0,0.0,0.0,0.0,0.0,0.0,0.0,0.0,0.0,0.0,0.0,0.0,0.0,0.9204,0.9378,0.9686,1.0144,1.0586,1.0637,1.037,0.0,0.0,0.0,0.0,0.0,0.0,0.0,0.0,0.0,0.0,0.0,0.0,0.0,0.0,0.0,0.0,0.0,0.0,0.0,0.0,0.0,0.0,0.0,0.0,0.0,0.0,0.0,0.0,0.0,0.0,0.0,0.0,0.0,0.0,0.0,0.0,0.0,0.0,0.0,0.0,0.0,0.0,0.0,0.0,0.0,0.0,0.0,0.0,0.0,0.0,0.0,0.0,0.0,0.0,0.0,0.0,0.0,0.0,0.0,0.0,0.0,0.0,0.0,0.0,0.0,0.0,0.0,0.0,0.0,0.0,0.0,1.2132,0.0,0.0,0.0,0.0,0.0,0.0,0.0,0.0,0.0,0.0,0.0,0.0,0.0,0.0,0.0,0.0,0.0,0.0,0.0,0.0,0.0,0.0,0.0,0.8844,0.8871,0.8871,0.8871,0.8871,0.0,0.0,0.0,0.0,0.0,0.0,0.8791,0.8791,0.8911,0.9138,0.9284,0.9832,1.0747,1.1062,1.0969,1.0485,1.061,0.0,0.0,0.0,0.0,0.0,0.0,0.0,0.0,0.0,0.0,0.0,0.0,0.0,0.0,0.0,0.0,0.0,0.0,0.0,0.0,0.0,0.0,0.0,0.0,0.0,0.0,0.0,0.0,0.0,0.0,0.0,0.0,0.0,0.0,0.0,0.0,0.0,0.0,0.0,0.0,0.0,0.0,0.0,0.0,0.0,0.0,0.0,0.0,0.0,0.0,0.0,0.0,0.0,0.0,0.0,0.0,0.0,0.0,0.0,0.0,0.0,0.0,0.0,1.3009,1.1913,0.9841,1.3515,1.5166,1.5021,1.2201,1.1863,1.315,1.0573,0.0,0.0,0.0,0.0,0.0,0.0,0.0,0.0,0.0,0.0,0.0,0.0,0.0,0.0,0.0,0.0,0.0,0.0,0.0,0.8791,0.8791,0.9004,0.9137,0.9137,0.9137,0.9137,0.9137,0.0,0.0,0.0,0.0,0.0,0.8791,0.8791,0.8818,0.8858,0.9618,1.0432,1.1312,1.1877,1.2091,1.1984,1.1279,1.1373,1.2011,0.0,0.0,0.0,0.0,0.0,0.0,0.0,0.0,0.0,0.0,0.0,0.0,0.0,0.0,0.0,0.0,0.0,0.0,0.0,0.0,0.0,0.0,0.0,0.0,0.0,0.0,0.0,0.0,0.0,0.0,0.0,0.0,0.0,0.0,0.0,0.0,0.0,0.0,0.0,0.0,0.0,0.9579,0.923,0.0,0.0,0.0,0.0,0.0,0.0,0.0,0.0,0.0,0.0,0.0,0.0,0.0,1.0916,1.4754,1.3195,1.2371,1.2385,1.3437,1.3747,1.342,1.3999,1.4271,1.4257,1.3796,0.0,1.4933,1.3119,0.0,0.0,0.0,0.0,0.0,0.0,0.0,0.0,0.0,0.0,0.0,0.0,0.0,0.0,0.0,0.0,0.0,0.0,0.0,0.0,0.0,0.9592,0.998,0.998,1.0434,1.0514,1.002,0.9875,0.0,0.0,0.0,0.8871,0.9018,0.9018,0.9365,1.0033,1.0915,1.1717,1.242,1.2847,1.3127,1.328,1.2713,1.2393,1.2265,1.1618,0.0,0.0,0.0,0.0,0.0,0.0,0.0,0.0,0.0,0.0,0.0,0.0,0.0,0.0,0.0,0.0,0.0,0.0,0.0,0.0,0.0,0.0,0.0,0.0,0.0,0.0,0.0,0.0,0.0,0.0,0.0,0.0,0.0,0.0,0.0,0.0,0.0,0.0,0.0,0.9981,1.0247,0.9764,0.9993,0.9842,0.0,0.0,0.0,0.0,0.0,0.0,0.0,0.0,0.0,0.9834,1.1092,1.3017,1.5587,1.4712,1.4261,1.4274,1.4794,1.507,1.507,1.507,1.507,1.507,1.507,1.5276,1.5545,1.4663,1.3763,1.2981,0.0,0.0,0.0,0.0,1.3704,1.304,0.0,0.0,0.0,0.0,0.0,0.0,0.0,0.0,0.0,0.0,0.0,0.0,0.9525,1.0249,1.0827,1.1139,1.1618,1.1631,1.0975,1.0573,1.0062,0.9351,0.9058,0.8991,0.919,0.9511,1.0245,1.1453,1.2251,1.294,1.3527,1.388,1.4194,1.4416,1.4167,1.366,1.2946,1.2382,1.177,1.1223,0.0,0.0,0.0,0.0,0.0,0.0,0.0,0.0,0.0,0.0,0.0,0.0,0.0,0.0,0.0,0.0,0.0,0.0,0.0,0.0,0.0,0.0,0.0,0.0,0.0,0.0,0.0,0.0,0.0,0.0,0.0,0.0,0.0,0.0,0.0,0.0,0.0,0.9492,1.0018,0.9394,0.9817,0.9725,0.0,0.0,0.0,0.0,0.0,0.0,1.0754,1.145,1.1642,1.1279,1.3113,1.4656,1.5795,1.5808,1.5808,1.5808,1.5808,1.5808,1.5808,1.5808,1.5808,1.5808,1.5808,1.5808,1.5848,1.6472,1.5723,1.433,1.5586,1.6074,1.6074,1.6074,1.5547,1.5053,0.0,0.0,0.0,0.0,0.0,0.0,0.0,0.0,0.0,0.0,0.0,0.9259,1.0399,1.0798,1.144,1.2588,1.2208,1.1886,1.1846,1.0517,0.9727,0.9674,0.9365,0.9177,0.9204,1.0312,1.1494,1.2709,1.3247,1.384,1.4447,1.5044,1.5311,1.5324,1.5311,1.5146,1.4758,1.3347,1.2415,1.1827,1.1512,0.0,0.0,0.0,0.0,0.0,0.0,0.0,0.0,0.0,0.0,0.0,0.0,0.0,0.0,0.0,0.0,0.0,0.0,0.0,0.0,0.0,0.0,0.0,0.0,0.0,0.0,0.0,0.0,0.0,0.0,0.0,0.0,0.0,0.0,0.0,0.0,0.0,0.0,0.7315,0.828,0.0,0.0,0.0,0.0,0.8243,0.8656,0.9006,0.9192,1.1044,1.2378,1.3054,1.3734,1.4656,1.5795,1.5808,1.5808,1.5808,1.5808,1.5808,1.5808,1.5808,1.5808,1.5808,1.5808,1.5808,1.6054,1.9082,1.9315,1.7737,1.7835,1.7871,1.7871,1.7871,1.8848,2.0233,0.0,0.0,0.0,0.0,0.0,0.0,0.0,0.0,0.8858,0.9031,0.9725,1.0448,1.1049,1.2238,1.3166,1.3594,1.3782,1.3634,1.3033,1.1828,1.1025,1.0792,0.998,0.9967,1.0915,1.1904,1.2906,1.3881,1.4461,1.4954,1.5341,1.5555,1.5778,1.5989,1.5989,1.5488,1.4582,1.3239,1.231,1.1665,1.0413,0.9757,0.0,0.0,0.0,0.0,0.0,0.0,0.0,0.0,0.0,0.0,0.0,0.0,0.0,0.0,0.0,0.0,0.0,0.0,0.0,0.0,0.0,0.0,0.0,0.0,0.0,0.0,0.0,0.0,0.0,0.0,0.0,0.0,0.0,0.0,0.0,0.0,0.0,0.8401,0.9,0.0,0.7933,0.8062,0.8293,0.8514,0.8827,0.9494,1.0595,1.1893,1.3495,1.5388,1.5274,1.5765,1.6941,1.6954,1.6954,1.6941,1.6168,1.5808,1.5808,1.5808,1.5808,1.5808,1.5808,1.5808,1.5886,1.7048,1.7127,1.6585,1.6585,1.8509,2.1268,2.1268,2.1679,2.2206,0.0,0.0,0.0,0.0,0.0,0.0,0.0,0.0,0.8938,0.9325,1.0234,1.1182,1.2059,1.332,1.4303,1.4812,1.4839,1.441,1.3416,1.2113,1.1103,1.0476,1.0121,1.0734,1.2438,1.3253,1.406,1.4941,1.5351,1.5715,1.6102,1.5995,1.6139,1.642,1.5914,1.5258,1.4387,1.2611,1.1502,1.0866,0.9927,0.939,0.9154,0.0,0.0,0.0,0.0,0.0,0.0,0.0,0.0,0.0,0.0,0.0,0.0,0.0,0.0,0.0,0.0,0.0,0.0,0.0,0.0,0.0,0.0,0.0,0.0,0.0,0.0,0.0,0.0,0.0,0.0,0.0,0.0,0.0,0.0,0.7192,0.7983,0.8316,0.8811,0.8794,0.7959,0.8055,0.8299,0.8621,0.8839,0.9477,1.0664,1.1806,1.292,1.4031,1.5595,1.5859,1.4679,1.4663,1.4663,1.4652,1.3643,1.3175,1.3175,1.3175,1.3175,1.3175,1.3175,1.3175,1.3319,1.5069,1.5808,1.5808,1.5808,1.777,2.0652,2.0652,2.0652,2.0652,0.0,0.0,0.0,0.0,0.0,0.0,0.8765,0.8778,0.8977,0.956,1.0186,1.1324,1.3279,1.3836,1.4612,1.6042,1.5103,1.3933,1.2843,1.1257,0.983,0.8657,0.9754,1.1376,1.3483,1.4119,1.4819,1.5679,1.5679,1.5994,1.6575,1.6297,1.631,1.6513,1.5077,1.4417,1.4225,1.1545,1.0046,0.9531,1.0089,0.9322,0.7893,0.0,0.0,0.0,0.0,0.0,0.0,0.0,0.0,0.0,0.0,0.0,0.0,0.0,0.0,0.0,0.0,0.0,0.0,0.0,0.0,0.0,0.0,0.0,0.0,0.0,0.0,0.0,0.0,0.0,0.0,0.0,0.0,0.0,0.4457,0.5045,0.5692,0.6682,0.7429,0.7778,0.7516,0.8009,0.8368,0.8368,0.8535,0.877,0.908,1.0577,1.0642,0.8961,1.4368,1.4609,0.8968,0.8912,0.8912,0.8906,0.8292,0.8008,0.7988,0.7988,0.7988,0.7988,0.7988,0.7988,0.8404,1.3464,1.5557,1.5557,1.5557,1.5666,1.5808,1.5808,1.5808,1.5784,0.0,0.0,0.0,0.0,0.0,0.0,0.8089,0.8074,0.8175,0.8236,0.9159,1.0224,1.1316,1.2204,1.2885,1.3287,1.2702,1.216,1.1748,1.0302,0.9275,0.8825,0.9737,1.0772,1.1917,1.2181,1.267,1.3333,1.3333,1.3424,1.358,1.3514,1.3638,1.3867,1.3541,1.2959,1.2119,1.1362,1.0282,0.9025,0.8555,0.8459,0.8572,0.0,0.0,0.0,0.0,0.0,0.0,0.0,0.0,0.0,0.0,0.0,0.0,0.0,0.0,0.0,0.0,0.0,0.0,0.0,0.0,0.0,0.0,0.0,0.0,0.0,0.0,0.0,0.0,0.0,0.0,0.0,0.0736,0.1391,0.3287,0.3725,0.4076,0.4597,0.4924,0.5058,0.4998,0.522,0.5382,0.5382,0.6214,0.6776,0.6865,0.8628,0.9393,0.8912,1.0453,1.0507,0.8912,0.8912,0.8912,0.8912,0.8743,0.8413,0.7988,0.7988,0.7988,0.7988,0.7988,0.7988,0.8113,0.955,1.0132,1.0132,1.0132,1.2474,1.5808,1.5808,1.5808,1.5272,0.0,0.0,0.0,0.0,0.0,0.0,0.7845,0.7611,0.7609,0.7946,0.8873,0.9876,1.0865,1.1624,1.2123,1.2264,1.1754,1.1126,1.0413,0.9054,0.8521,0.913,0.9822,1.0655,1.1668,1.1869,1.2155,1.2557,1.2467,1.2567,1.2863,1.272,1.2839,1.3165,1.2606,1.2004,1.1348,1.0762,0.995,0.9076,0.8486,0.8512,0.882,0.8162,0.8276,0.8766,0.8737,0.8775,0.8834,0.8807,0.0,0.0,0.0,0.0,0.0,0.0,0.0,0.0,0.0,0.0,0.0,0.0,0.0,0.0,0.0,0.0,0.0,0.0,0.0,0.0,0.0,0.0,0.0,0.0,0.0,0.0419,0.1627,0.24,0.3109,0.3881,0.4123,0.4202,0.4217,0.4345,0.4412,0.4412,0.5461,0.6156,0.6244,0.793,0.9021,0.9271,0.9278,0.9278,0.9278,0.9034,0.8912,0.8912,0.8912,0.873,0.8366,0.8366,0.8366,0.8366,0.8366,0.825,0.7988,0.7988,0.7988,0.0,0.0,0.0,0.0,0.0,1.2546,1.211,0.0,0.0,0.0,0.0,0.0,0.0,0.7686,0.7188,0.7143,0.8009,0.8741,0.9665,1.0912,1.1308,1.1516,1.1679,1.1058,1.0063,0.8557,0.7367,0.7414,0.9035,0.9546,1.0441,1.1817,1.2123,1.22,1.2128,1.1897,1.203,1.2478,1.2183,1.2257,1.2624,1.1315,1.0734,1.0634,0.9395,0.8984,0.9173,0.8994,0.8949,0.8858,0.8175,0.8099,0.8341,0.8269,0.8255,0.8338,0.8802,0.0,0.0,0.0,0.0,0.0,0.0,0.0,0.0,0.0,0.0,0.0,0.0,0.0,0.0,0.0,0.0,0.0,0.0,0.0,0.0,0.0,0.0,0.0,0.0,0.0,0.0,0.0,0.1136,0.238,0.3593,0.3875,0.3994,0.398,0.4097,0.4162,0.4156,0.5062,0.5658,0.5857,0.7164,0.0,0.0,0.0,0.9792,0.9792,0.9271,0.9007,0.9007,0.894,0.8912,0.8912,0.8912,0.8912,0.8912,0.8912,0.8608,0.8089,0.8089,0.8049,0.7988,0.7988,0.7988,0.7988,0.7988,0.7988,0.7988,0.0,0.0,0.0,0.0,0.0,0.0,0.6564,0.6347,0.6359,0.6459,0.692,0.7516,0.828,0.8597,0.8335,0.733,0.702,0.6185,0.4616,0.437,0.4996,0.6605,0.7015,0.8023,0.9731,0.9928,0.9375,0.8035,0.7983,0.7377,0.6252,0.6171,0.6185,0.6279,0.6105,0.6009,0.5982,0.5735,0.6452,0.7746,0.7471,0.8059,0.9111,0.8791,0.8656,0.8614,0.8487,0.851,0.8557,0.818,0.8041,0.7932,0.7483,0.7051,0.0,0.0,0.0,0.0,0.0,0.0,0.0,0.0,0.0,0.0,0.0,0.0,0.0,0.0,0.0,0.0,0.0,0.0,0.0,0.0,0.0,0.0,0.0,0.0254,0.0535,0.0776,0.0848,0.0879,0.0858,0.0899,0.0902,0.0922,0.1104,0.1227,0.1263,0.1554,0.1764,0.1878,0.7027,0.9792,0.9792,0.9677,0.9623,0.9616,0.0,0.0,0.8912,0.8912,0.8912,0.8912,0.8912,0.8845,0.8737,0.8737,0.8426,0.7988,0.7988,0.7988,0.7988,0.7988,0.7988,0.7988,0.0,0.0,0.0,0.0,0.0,0.0,0.6216,0.5841,0.5734,0.5967,0.6295,0.6537,0.6595,0.6716,0.6308,0.51,0.4726,0.427,0.3652,0.367,0.4151,0.5197,0.5463,0.6016,0.6939,0.7028,0.6612,0.571,0.571,0.5325,0.4598,0.4598,0.4634,0.4703,0.4774,0.4799,0.4802,0.4798,0.5324,0.6143,0.5976,0.635,0.719,0.8602,0.9157,0.9123,0.8818,0.873,0.8716,0.8221,0.8038,0.7963,0.7486,0.717,0.6978,0.0,0.0,0.0,0.0,0.0,0.0,0.0,0.0,0.0,0.0,0.0,0.0,0.0,0.0,0.0,0.0,0.0,0.0,0.0,0.0,0.0,0.0,0.0,0.0,0.0,0.0,0.0,0.0,0.0,0.0,0.0,0.0,0.0,0.0,0.0,0.0,0.0,0.3198,0.4882,0.4882,0.4882,0.4882,0.4879,0.4585,0.4457,0.4457,0.4457,0.4457,0.4626,0.759,0.8912,0.8912,0.8912,0.8737,0.8459,0.8459,0.8251,0.7988,0.7988,0.7988,0.7988,0.0,0.0,0.0,0.0,0.0,0.0,0.0,0.5536,0.5356,0.5897,0.5986,0.5864,0.5503,0.5346,0.4808,0.3682,0.3021,0.2785,0.3052,0.3068,0.3387,0.408,0.4217,0.4433,0.4734,0.4734,0.4531,0.4103,0.4103,0.3986,0.3775,0.3775,0.3856,0.3944,0.3944,0.3944,0.3932,0.3954,0.4155,0.4465,0.4441,0.4628,0.5191,0.7618,0.8593,0.8635,0.8233,0.8084,0.802,0.7695,0.7548,0.7431,0.7057,0.6894,0.6721,0.6244,0.5435,0.0,0.0,0.0,0.0,0.0,0.0,0.0,0.0,0.0608,0.0,0.0,0.0,0.0,0.0,0.0,0.0,0.0,0.0,0.0,0.0,0.0,0.0,0.0,0.0,0.0,0.0,0.0,0.0,0.0,0.0,0.0,0.0,0.0,0.0,0.0,0.0,0.0,0.0,0.0,0.0,0.0,0.0,0.0,0.0,0.0,0.0,0.0272,0.5085,0.7171,0.7171,0.7171,0.7171,0.7171,0.7171,0.6877,0.6582,0.7629,0.7988,0.7988,0.0,0.0,0.0,0.0,0.0,0.0,0.0,0.0,0.547,0.5786,0.5267,0.4898,0.4967,0.4403,0.3465,0.2164,0.1015,0.0377,0.0412,0.0412,0.1127,0.2665,0.2739,0.3406,0.4841,0.4872,0.4164,0.2718,0.2718,0.1985,0.0512,0.0512,0.0545,0.0547,0.0547,0.0551,0.0558,0.0551,0.1472,0.2933,0.2826,0.3689,0.5086,0.5332,0.5426,0.5401,0.5219,0.5178,0.5155,0.4965,0.4804,0.4646,0.4606,0.4335,0.4024,0.3976,0.3651,0.3123,0.2195,0.1159,0.0344,0.035,0.025,0.018,0.0,0.0092,0.0,0.0,0.0,0.0,0.0,0.0,0.0,0.0,0.0,0.0,0.0,0.0,0.0,0.0,0.0,0.0,0.0,0.0,0.0,0.0,0.0,0.0,0.0,0.0,0.0,0.0,0.0,0.0,0.0,0.0,0.0,0.0,0.0,0.0,0.0,0.0,0.0,0.0028,0.0703,0.1008,0.1008,0.1008,0.1008,0.1008,0.1008,0.0947,0.1483,0.6246,0.7988,0.7988,0.0,0.0,0.0,0.0,0.0,0.0,0.0,0.0,0.0,0.4851,0.4151,0.3475,0.3037,0.2139,0.1357,0.0796,0.0294,0.0,0.0,0.0,0.0323,0.1019,0.105,0.1362,0.2028,0.206,0.1722,0.104,0.105,0.0673,0.0,0.0,0.0,0.0,0.0,0.0,0.0,0.0,0.0435,0.1121,0.1066,0.1491,0.2121,0.2075,0.2035,0.2285,0.4059,0.4697,0.0,0.4559,0.449,0.4477,0.4398,0.4249,0.4063,0.3804,0.312,0.2198,0.1007,-0.0422,-0.1321,-0.0269,-0.0786,-0.13,-0.0254,0.0,0.0,0.0,0.0,0.0,0.0,0.0,0.0,0.0,0.0,0.0,0.0,0.0,0.0,0.0,0.0,0.0,0.0,0.0,0.0,0.0,0.0,0.0,0.0,0.0,0.0,0.0,0.0,0.0,0.0,0.0,0.0,0.0,0.0,0.0,0.0,0.0,0.0,0.0,0.0,0.0,0.0,0.0,0.0,0.0,0.0,0.0,0.0279,0.2517,0.3338,0.3344,0.0,0.0,0.0,0.0,0.0,0.0,0.0,0.0,0.0,0.0,0.3159,0.2123,0.1249,0.0473,0.0,0.0,0.0,0.0,0.0,0.0,0.0,0.0,0.0,0.0,0.0,0.0,0.0,0.0,0.0,0.0,0.0,0.0,0.0,0.0,0.0,0.0,0.0,0.0,0.0,0.0,0.0,0.0,0.0,0.0,0.0,0.0298,0.2578,0.3417,0.338,0.3278,0.3326,0.3385,0.3292,0.3255,0.3195,0.2858,0.1871,0.0573,-0.0885,-0.2291,-0.3033,-0.1899,-0.2612,-0.3267,-0.2027,-0.1271,-0.0847,-0.0847,-0.0401,0.0,0.0,0.0,0.0,0.0,0.0,0.0,0.0,0.0,0.0,0.0,0.0,0.0,0.0,0.0,0.0,0.0,0.0,0.0,0.0,0.0,0.0,0.0,0.0,0.0,0.0,0.0,0.0,0.0,0.0,0.0,0.0,0.0,0.0,0.0,0.0,0.0,0.0,0.0,0.0,0.0,0.0,0.0,0.0,0.0,0.0,0.0,0.0,0.0,0.0,0.0,0.0,0.0,0.0,0.0,0.0,0.0,0.0,0.0,0.0,0.0019,0.0,0.0,0.0,0.0,0.0,0.0,0.0,0.0,0.0,0.0,0.0,0.0,0.0,0.0,0.0,0.0,0.0,0.0,0.0,0.0,0.0,0.0,0.0,0.0,0.0,0.0,0.0,0.0,0.0,0.0,0.0,0.0,0.011,0.0133,0.0152,0.0149,0.0148,0.0148,0.0126,0.0128,0.013,0.0132,-0.0839,-0.2271,-0.4078,-0.4694,-0.4949,-0.5502,-0.5763,-0.5934,-0.6076,-0.4504,-0.3012,-0.3012,-0.1397,0.0,0.0,0.0,0.0,0.0,0.0,0.0,0.0,0.0,0.0,0.0,0.0,0.0,0.0,0.0,0.0,0.0,0.0,0.0,0.0,0.0,0.0,0.0,0.0,0.0,0.0,0.0,0.0,0.0,0.0,0.0,0.0,0.0,0.0,0.0,0.0,0.0,0.0,0.0,0.0,0.0,0.0,0.0,0.0,0.0,0.0,0.0,0.0,0.0,0.0,0.0,0.0,0.0,0.0,0.0,0.0,0.0,0.0,0.0,0.0,0.0,0.0,0.0,0.0,0.0,0.0,0.0,0.0,0.0,0.0,0.0,0.0,0.0,0.0,0.0,0.0,0.0,0.0,0.0,0.0,0.0,0.0,0.0,0.0,0.0,0.0,0.0,0.0,0.0,0.0,0.0,0.0,0.0,0.0,0.0,0.0,0.0,0.0,-0.0142,-0.0951,-0.1196,-0.1376,-0.2261,-0.3184,-0.4065,-0.4773,-0.6155,-0.7219,-0.634,-0.7035,-0.7629,-0.6556,-0.5727,-0.5193,-0.5069,-0.4243,-0.3547,-0.3403,-0.3305,-0.2852,-0.1644,-0.1645,-0.1362,-0.0173,0.0,0.0,0.0,0.0,0.0,0.0,0.0,0.0,0.0,0.0,0.0,0.0,0.0,0.0,0.0,0.0,0.0,0.0,0.0,0.0,0.0,0.0,0.0,0.0,0.0,0.0,0.0,0.0,0.0,0.0,0.0,0.0,0.0,0.0,0.0,0.0,0.0,0.0,0.0,0.0,0.0,0.0,0.0,0.0,0.0,0.0,0.0,0.0,0.0,0.0,0.0,0.0,0.0,0.0,0.0,0.0,0.0,0.0,0.0,0.0,0.0,0.0,0.0,0.0,0.0,0.0,0.0,0.0,0.0,0.0,0.0,0.0,0.0,0.0,0.0,0.0,0.0,0.0,0.0,0.0,0.0,0.0,0.0,0.0,0.0,0.0,0.0,0.0,0.0,-0.0287,-0.0791,-0.1603,-0.2232,-0.2945,-0.4402,-0.5289,-0.5976,-0.6802,-0.8288,-0.9393,-0.8571,-0.9265,-0.9818,-0.8741,-0.7898,-0.7249,-0.7032,-0.6047,-0.5149,-0.4912,-0.4709,-0.4046,-0.2408,-0.2312,-0.1882,-0.0238,0.0,0.0,0.0,0.0,0.0,0.0,0.0,0.0,0.0,0.0,0.0,0.0,0.0,0.0,0.0,0.0,0.0,0.0,0.0,0.0,0.0,0.0,0.0,0.0,0.0,0.0,0.0,0.0,0.0,0.0,0.0,0.0,0.0,0.0,0.0,0.0,0.0,0.0,0.0,0.0,0.0,0.0,0.0,0.0,0.0,0.0,0.0,0.0,0.0,0.0,0.0,0.0,0.0,0.0,0.0,0.0,0.0,0.0,0.0,0.0,0.0,0.0,0.0,0.0,0.0,0.0,0.0,0.0,0.0,0.0,0.0,0.0,0.0,0.0,0.0,0.0,0.0,0.0,0.0,0.0,0.0,0.0,0.0,0.0,0.0,0.0,0.0,0.0,0.0,-0.0862,-0.1967,-0.2163,-0.3251,-0.4768,-0.6368,-0.7207,-0.8022,-0.9999,-1.0921,-1.1417,-1.1989,-1.2241,-1.2338,-1.2454,-1.0853,-0.923,-0.8877,-0.6848,-0.506,-0.4788,-0.449,-0.3838,-0.2484,-0.2293,-0.183,-0.0468,-0.0297,-0.0261,-0.0165,-0.0163,-0.0098,0.0,0.0,0.0,0.0,0.0,0.0,0.0,0.0,0.0,0.0,0.0,0.0,0.0,0.0,0.0,0.0,0.0,0.0,0.0,0.0,0.0,0.0,0.0,0.0,0.0,0.0,0.0,0.0,0.0,0.0,0.0,0.0,0.0,0.0,0.0,0.0,0.0,0.0,0.0,0.0,0.0,0.0,0.0,0.0,0.0,0.0,0.0,0.0,0.0,0.0,0.0,0.0,0.0,0.0,0.0,0.0,0.0,0.0,0.0,0.0,0.0,0.0,0.0,0.0,0.0,0.0,0.0,0.0,0.0,0.0,0.0,0.0,0.0,0.0,0.0,0.0,0.0,0.0,0.0,0.0,0.0,0.0,0.0,0.0,-0.1698,-0.3999,-0.5037,-0.6524,-0.8051,-0.8667,-0.9401,-1.0207,-1.1095,-1.1823,-1.2366,-1.2522,-1.2589,-1.2542,-1.2244,-1.1637,-1.0954,-1.0332,-0.9302,-0.8451,-0.807,-0.8014,-0.7487,-0.5899,-0.6104,-0.5917,-0.4375,-0.4266,-0.3789,-0.2343,-0.2165,-0.1583,-0.0134,0.0,0.0,0.0,0.0,0.0,0.0,0.0,0.0,0.0,0.0,0.0,0.0,0.0,0.0,0.0,0.0,0.0,0.0,0.0,0.0,0.0,0.0,0.0,0.0,0.0,0.0,0.0,0.0,0.0,0.0,0.0,0.0,0.0,0.0,0.0,0.0,0.0,0.0,0.0,0.0,0.0,0.0,0.0,0.0,0.0,0.0,0.0,0.0,0.0,0.0,0.0,0.0,0.0,0.0,0.0,0.0,0.0,0.0,0.0,0.0,0.0,0.0,0.0,0.0,0.0,0.0,0.0,0.0,0.0,0.0,0.0,0.0,0.0,0.0,0.0,0.0,0.0,0.0,0.0,0.0,-0.0504,-0.1287,-0.1993,-0.3762,-0.5922,-0.7462,-0.882,-0.9924,-1.0365,-1.0941,-1.1538,-1.1949,-1.2461,-1.2813,-1.2706,-1.2678,-1.2481,-1.1934,-1.1599,-1.1158,-1.031,-0.9731,-0.9244,-0.8757,-0.8838,-0.8516,-0.6983,-0.7281,-0.7238,-0.58,-0.5724,-0.5084,-0.3147,-0.2905,-0.2139,-0.0206,0.0,0.0,0.0,0.0,0.0,0.0,0.0,0.0,0.0,0.0,0.0,0.0,0.0,0.0,0.0,0.0,0.0,0.0,0.0,0.0,0.0,0.0,0.0,0.0,0.0,0.0,0.0,0.0,0.0,0.0,0.0,0.0,0.0,0.0,0.0,0.0,0.0,0.0,0.0,0.0,0.0,0.0,0.0,0.0,0.0,0.0,0.0,0.0,0.0,0.0,0.0,0.0,0.0,0.0,0.0,0.0,0.0,0.0,0.0,0.0,0.0,0.0,0.0,0.0,0.0,0.0,0.0,0.0,0.0,0.0,0.0,0.0,0.0,0.0,0.0,0.0,0.0,0.0,0.0,0.0,-0.1237,-0.3106,-0.4667,-0.6139,-0.7641,-0.9411,-1.0426,-1.1002,-1.1563,-1.1979,-1.2343,-1.2693,-1.2949,-1.305,-1.2834,-1.263,-1.2271,-1.1504,-1.092,-1.0279,-0.9447,-0.8882,-0.8434,-0.8031,-0.8255,-0.8116,-0.706,-0.7367,-0.7421,-0.6477,-0.6473,-0.5839,-0.3895,-0.3446,-0.2532,-0.0564,-0.0141,0.0,0.0,0.0,0.0,0.0,0.0,0.0,0.0,0.0,0.0,0.0,0.0,0.0,0.0,0.0,0.0,0.0,0.0,0.0,0.0,0.0,0.0,0.0,0.0,0.0,0.0,0.0,0.0,0.0,0.0,0.0,0.0,0.0,0.0,0.0,0.0,0.0,0.0,0.0,0.0,0.0,0.0,0.0,0.0,0.0,0.0,0.0,0.0,0.0,0.0,0.0,0.0,0.0,0.0,0.0,0.0,0.0,0.0,0.0,0.0,0.0,0.0,0.0,0.0,0.0,0.0,0.0,0.0,0.0,0.0,0.0,0.0,0.0,0.0,0.0,0.0,0.0,0.0,0.0,-0.1626,-0.3978,-0.5257,-0.6898,-0.8707,-1.0404,-1.1465,-1.2088,-1.2395,-1.2745,-1.3051,-1.3342,-1.345,-1.3444,-1.3166,-1.2712,-1.2101,-1.1191,-0.9714,-0.8533,-0.8634,-0.7643,-0.6981,-0.7693,-0.8099,-0.8447,-0.885,-0.931,-0.978,-1.0159,-1.0338,-0.9765,-0.7912,-0.6274,-0.4547,-0.2601,-0.0941,0.0,0.0,0.0,0.0,0.0,0.0,0.0,0.0,0.0,0.0,0.0,0.0,0.0,0.0,0.0,0.0,0.0,0.0,0.0,0.0,0.0,0.0,0.0,0.0,0.0,0.0,0.0,0.0,0.0,0.0,0.0,0.0,0.0,0.0,0.0,0.0,0.0,0.0,0.0,0.0,0.0,0.0,0.0,0.0,0.0,0.0,0.0,0.0,0.0,0.0,0.0,0.0,0.0,0.0,0.0,0.0,0.0,0.0,0.0,0.0,0.0,0.0,0.0,0.0,0.0,0.0,0.0,0.0,0.0,0.0,0.0,0.0,0.0,0.0,0.0,0.0,0.0,0.0,0.0,-0.1432,-0.343,-0.4159,-0.569,-0.7819,-1.0847,-1.1428,-1.1061,-1.1241,-1.1487,-1.1724,-1.1944,-1.2836,-1.3605,-1.3268,-1.2764,-1.1807,-0.9967,-0.8573,-0.7384,-0.6292,-0.6053,-0.6139,-0.6496,-0.7422,-0.8296,-0.8757,-0.9178,-0.9788,-1.0723,-1.0873,-1.0388,-0.8962,-0.7988,-0.6634,-0.4692,-0.3669,-0.2674,-0.1603,-0.1493,-0.1056,-0.0036,0.0,0.0,0.0,0.0,0.0,0.0,0.0,0.0,0.0,0.0,0.0,0.0,0.0,0.0,0.0,0.0,0.0,0.0,0.0,0.0,0.0,0.0,0.0,0.0,0.0,0.0,0.0,0.0,0.0,0.0,0.0,0.0,0.0,0.0,0.0,0.0,0.0,0.0,0.0,0.0,0.0,0.0,0.0,0.0,0.0,0.0,0.0,0.0,0.0,0.0,0.0,0.0,0.0,0.0,0.0,0.0,0.0,0.0,0.0,0.0,0.0,0.0,0.0,0.0,0.0,0.0,0.0,0.0,0.0,0.0,0.0,0.0,0.0,0.0,-0.1093,-0.26,-0.2987,-0.4328,-0.6464,-0.9917,-1.0479,-0.9778,-0.9442,-1.0169,-1.0966,-1.0661,-1.2128,-1.37,-1.3329,-1.2678,-1.1481,-0.8901,-0.7568,-0.628,-0.4235,-0.4618,-0.5365,-0.5425,-0.6773,-0.7966,-0.8294,-0.8635,-0.9224,-1.0297,-1.0527,-1.0308,-0.9568,-0.9118,-0.8315,-0.6765,-0.6235,-0.5284,-0.3637,-0.3125,-0.2037,-0.0109,0.0,0.0,0.0,0.0,0.0,0.0,0.0,0.0,0.0,0.0,0.0,0.0,0.0,0.0,0.0,0.0,0.0,0.0,0.0,0.0,0.0,0.0,0.0,0.0,0.0,0.0,0.0,0.0,0.0,0.0,0.0,0.0,0.0,0.0,0.0,0.0,0.0,0.0,0.0,0.0,0.0,0.0,0.0,0.0,0.0,0.0,0.0,0.0,0.0,0.0,0.0,0.0,0.0,0.0,0.0,0.0,0.0,0.0,0.0,0.0,0.0,0.0,0.0,0.0,0.0,0.0,0.0,0.0,0.0,0.0,0.0,0.0,0.0,0.0,-0.0881,-0.2167,-0.2875,-0.4148,-0.5634,-0.6542,-0.8305,-0.9614,-0.7723,-1.0152,-1.3054,-1.1199,-1.22,-1.3727,-1.3458,-1.2522,-1.1076,-0.8806,-0.6643,-0.4884,-0.3985,-0.3802,-0.4171,-0.536,-0.6609,-0.7682,-0.8376,-0.8615,-0.9096,-1.0186,-1.0617,-1.0987,-1.1328,-0.9916,-0.8835,-0.8651,-0.6918,-0.5742,-0.5555,-0.3887,-0.2037,-0.0109,0.0,0.0,0.0,0.0,0.0,0.0,0.0,0.0,0.0,0.0,0.0,0.0,0.0,0.0,0.0,0.0,0.0,0.0,0.0,0.0,0.0,0.0,0.0,0.0,0.0,0.0,0.0,0.0,0.0,0.0,0.0,0.0,0.0,0.0,0.0,0.0,0.0,0.0,0.0,0.0,0.0,0.0,0.0,0.0,0.0,0.0,0.0,0.0,0.0,0.0,0.0,0.0,0.0,0.0,0.0,0.0,0.0,0.0,0.0,0.0,0.0,0.0,0.0,0.0,0.0,0.0,0.0,0.0,0.0,0.0,0.0,0.0,0.0,0.0,0.0,-0.0837,-0.1142,-0.1644,-0.2191,-0.2439,-0.4048,-0.57,-0.4847,-0.7675,-1.0648,-0.8875,-1.1138,-1.3844,-1.3322,-1.2305,-1.0892,-0.8627,-0.6337,-0.4289,-0.2998,-0.262,-0.2933,-0.4266,-0.5504,-0.6701,-0.7874,-0.8058,-0.8377,-0.9311,-0.9595,-1.0076,-1.1063,-1.0668,-1.0413,-1.078,-1.009,-0.9066,-0.7746,-0.4704,-0.2545,-0.1784,-0.062,0.0,0.0,0.0,0.0,0.0,0.0,0.0,0.0,0.0,0.0,0.0,0.0,0.0,0.0,0.0,0.0,0.0,0.0,0.0,0.0,0.0,0.0,0.0,0.0,0.0,0.0,0.0,0.0,0.0,0.0,0.0,0.0,0.0,0.0,0.0,0.0,0.0,0.0,0.0,0.0,0.0,0.0,0.0,0.0,0.0,0.0,0.0,0.0,0.0,0.0,0.0,0.0,0.0,0.0,0.0,0.0,0.0,0.0,0.0,0.0,0.0,0.0,0.0,0.0,0.0,0.0,0.0,0.0,0.0,0.0,0.0,0.0,0.0,0.0,0.0,0.0,0.0,0.0,0.0,-0.1283,-0.2688,-0.231,-0.518,-0.8096,-0.6371,-0.9314,-1.2621,-1.1442,-1.0903,-0.9924,-0.7185,-0.5186,-0.3446,-0.1756,-0.1628,-0.219,-0.3503,-0.4769,-0.6079,-0.7515,-0.774,-0.7986,-0.8798,-0.9027,-0.9508,-1.059,-1.0914,-1.1288,-1.1846,-1.1975,-1.1162,-0.9066,-0.625,-0.4105,-0.2943,-0.1602,-0.0583,0.0,0.0,0.0,0.0,0.0,0.0,0.0,0.0,0.0,0.0,0.0,0.0,0.0,0.0,0.0,0.0,0.0,0.0,0.0,0.0,0.0,0.0,0.0,0.0,0.0,0.0,0.0,0.0,0.0,0.0,0.0,0.0,0.0,0.0,0.0,0.0,0.0,0.0,0.0,0.0,0.0,0.0,0.0,0.0,0.0,0.0,0.0,0.0,0.0,0.0,0.0,0.0,0.0,0.0,0.0,0.0,0.0,0.0,0.0,0.0,0.0,0.0,0.0,0.0,0.0,0.0,0.0,0.0,0.0,0.0,0.0,0.0,0.0,0.0,0.0,0.0,0.0,0.0,-0.0917,-0.1749,-0.0415,-0.3211,-0.6289,-0.4202,-0.676,-0.9515,-0.733,-0.787,-0.7922,-0.4031,-0.2813,-0.2043,-0.036,-0.0968,-0.2169,-0.3371,-0.47,-0.6029,-0.7389,-0.7824,-0.8223,-0.8825,-0.9291,-0.9774,-1.0267,-1.0548,-1.09,-1.1355,-1.166,-1.1018,-0.9061,-0.8733,-0.6962,-0.3088,-0.2872,-0.2001,-0.0073,0.0,0.0,0.0,0.0,0.0,0.0,0.0,0.0,0.0,0.0,0.0,0.0,0.0,0.0,0.0,0.0,0.0,0.0,0.0,0.0,0.0,0.0,0.0,0.0,0.0,0.0,0.0,0.0,0.0,0.0,0.0,0.047,0.0,0.0,0.0,0.0,0.0,0.0,0.0,0.0,0.0,0.0,0.0,0.0,0.0,0.0,0.0,0.0,0.0,0.0,0.0,0.0,0.0,0.0,0.0,0.0,0.0,0.0,0.0,0.0,0.0,0.0,0.0,0.0,0.0,0.0,0.0,0.0,0.0,0.0,0.0,0.0,0.0,0.0,0.0,0.0,0.0,0.0,0.0,-0.0132,-0.2829,-0.5598,-0.3932,-0.564,-0.7643,-0.6686,-0.6474,-0.6124,-0.4657,-0.3197,-0.2012,-0.1479,-0.0931,-0.0977,-0.2265,-0.3591,-0.5012,-0.6603,-0.7686,-0.8445,-0.8716,-0.9259,-0.9774,-1.0229,-1.1179,-1.185,-1.1993,-1.1993,-1.1763,-1.1126,-0.9618,-0.8158,-0.6926,-0.4358,-0.2001,-0.0073,0.0,0.0,0.0,0.0,0.0,0.0,0.0,0.0,0.0,0.0,0.0,0.0,0.0,0.0,0.0,0.0,0.0,0.0,0.0,0.0,0.0,0.0,0.0,0.0,0.0,0.0,0.0,0.0,0.0,0.0,0.0,0.1036,0.0451,0.0063,0.0,0.0,0.0,0.0,0.0,0.0,0.0,0.0,0.0,0.0,0.0,0.0,0.0,0.0,0.0,0.0,0.0,0.0,0.0,0.0,0.0,0.0,0.0,0.0,0.0,0.0,0.0,0.0,0.0,0.0,0.0,0.0,0.0,0.0,0.0,0.0,0.0,0.0,0.0,0.0,0.0,0.0,0.0,0.0,0.0,0.0,-0.1662,-0.3272,-0.2376,-0.3766,-0.5231,-0.418,-0.4243,-0.4284,-0.3263,-0.212,-0.124,-0.1244,-0.0978,-0.0987,-0.1784,-0.3475,-0.5068,-0.6073,-0.7466,-0.8498,-0.8682,-0.9178,-0.9754,-1.0371,-1.1389,-1.206,-1.2115,-1.2135,-1.2159,-1.2104,-1.0718,-0.951,-0.8739,-0.642,-0.3851,-0.1166,-0.0365,0.0,0.0,0.0,0.0,0.0,0.0,0.0,0.0,0.0,0.0,0.0,0.0,0.0,0.0,0.0,0.0,0.0,0.0,0.0,0.0,0.0,0.0,0.0,0.0,0.0,0.0,0.0,0.0,0.0,0.0,0.0,0.1224,0.0146,0.0,0.0,0.0,0.0,0.0,0.0,0.0,0.0,0.0,0.0,0.0,0.0,0.0,0.0,0.0,0.0,0.0,0.0,0.0,0.0,0.0,0.0,0.0,0.0,0.0,0.0,0.0,0.0,0.0,0.0,0.0,0.0,0.0,0.0,0.0,0.0,0.0,0.0,0.0,0.0,0.0,0.0,0.0,0.0,0.0,0.0,0.0,0.0,0.0,-0.1423,-0.2416,-0.0489,-0.1437,-0.2379,-0.0428,0.0,0.0,0.0,-0.1061,-0.1961,-0.1852,-0.4098,-0.5961,-0.5875,-0.7252,-0.843,-0.8703,-0.9178,-0.9815,-1.0697,-1.1286,-1.1728,-1.18,-1.2115,-1.2268,-1.2125,-1.1925,-1.0961,-0.9008,-0.8781,-0.7034,-0.3415,-0.131,-0.0145,0.0,0.0,0.0,0.0,0.0,0.0,0.0,0.0,0.0,0.0,0.0,0.0,0.0,0.0,0.0,0.0,0.0,0.0,0.0,0.0,0.0,0.0,0.0,0.0,0.0,0.0,0.0,0.0,0.0,0.0,0.0,0.0,0.0,0.0,0.0,0.0,0.0,0.0,0.0,0.0,0.0,0.0,0.0,0.0,0.0,0.0,0.0,0.0,0.0,0.0,0.0,0.0,0.0,0.0,0.0,0.0,0.0,0.0,0.0,0.0,0.0,0.0,0.0,0.0,0.0,0.0,0.0,0.0,0.0,0.0,0.0,0.0,0.0,0.0,0.0,0.0,0.0,0.0,0.0,0.0,0.0,0.0,-0.0618,-0.0128,-0.0378,-0.0597,0.0,0.0,0.0,0.0,-0.0981,-0.1899,-0.2083,-0.4148,-0.599,-0.6406,-0.7673,-0.871,-0.9036,-0.993,-1.0792,-1.1455,-1.1999,-1.2216,-1.2064,-1.2182,-1.2277,-1.2275,-1.1986,-1.159,-1.1113,-0.9552,-0.8266,-0.7363,-0.3992,-0.1511,0.0,0.0,0.0,0.0,0.0,0.0,0.0,0.0,0.0,0.0,0.0,0.0,0.0,0.0,0.0,0.0,0.0,0.0,0.0,0.0,0.0,0.0,0.0,0.0,0.0,0.0,0.0,0.0,0.0,0.0,0.0,0.0,0.0,0.0,0.0,0.0,0.0,0.0,0.0,0.0,0.0,0.0,0.0,0.0,0.0,0.0,0.0,0.0,0.0,0.0,0.0,0.0,0.0,0.0,0.0,0.0,0.0,0.0,0.0,0.0,0.0,0.0,0.0,0.0,0.0,0.0,0.0,0.0,0.0,0.0,0.0,0.0,0.0,0.0,0.0,0.0,0.0,0.0,0.0,0.0,0.0,0.0,0.0,0.0,0.0,0.0,0.0,0.0,-0.0161,-0.0708,-0.1877,-0.2834,-0.2925,-0.5065,-0.6755,-0.6553,-0.7754,-0.8933,-0.9607,-1.0373,-1.113,-1.1726,-1.2108,-1.2329,-1.2302,-1.2277,-1.2257,-1.2227,-1.1965,-1.1766,-1.1698,-1.0637,-0.961,-0.8739,-0.659,-0.4144,-0.1371,-0.0458,0.0,0.0,0.0,0.0,0.0,0.0,0.0,0.0,0.0,0.0,0.0,0.0,0.0,0.0,0.0,0.0,0.0,0.0,0.0,0.0,0.0,0.0,0.0,0.0,0.0,0.0,0.0,0.0,0.0,0.0,0.0,0.0,0.0,0.0,0.0,0.0,0.0,0.0,0.0,0.0,0.0,0.0,0.0,0.0,0.0,0.0,0.0,0.0,0.0,0.0,0.0,0.0,0.0,0.0,0.0,0.0,0.0,0.0,0.0,0.0,0.0,0.0,0.0,0.0,0.0,0.0,0.0,0.0,0.0,0.0,0.0,0.0,0.0,0.0,0.0,0.0,0.0,0.0,-0.0317,-0.0497,-0.0616,-0.034,-0.0438,-0.0607,-0.0595,-0.0586,-0.0901,-0.1926,-0.3268,-0.4261,-0.4227,-0.6317,-0.7762,-0.6894,-0.7969,-0.93,-1.031,-1.0812,-1.1245,-1.1766,-1.202,-1.2247,-1.2413,-1.2366,-1.2257,-1.2145,-1.1952,-1.1766,-1.1624,-1.1597,-1.0851,-0.9213,-0.8718,-0.6983,-0.38,-0.1528,-0.0275,0.0,0.0,0.0,0.0,0.0,0.0,0.0,0.0,0.0,0.0,0.0,0.0,0.0,0.0,0.0,0.0,0.0,0.0,0.0,0.0,0.0,0.0,0.0,0.0,0.0,0.0,0.0,0.0,0.0,0.0,0.0,0.0,0.0,0.0,0.0,0.0,0.0,0.0,0.0,0.0,0.0,0.0,0.0,0.0,0.0,0.0,0.0,0.0,0.0,0.0,0.0,0.0,0.0,0.0,0.0,0.0,0.0,0.0,0.0,0.0,0.0,0.0,0.0,0.0,0.0,0.0,0.0,0.0,0.0,0.0,0.0,0.0,0.0,0.0,0.0,0.0,0.0,-0.1797,-0.2823,-0.3444,-0.1902,-0.2467,-0.3346,-0.3254,-0.3298,-0.3449,-0.3625,-0.4654,-0.5633,-0.6012,-0.7274,-0.8352,-0.8706,-0.9502,-1.0317,-1.1111,-1.1497,-1.1775,-1.2036,-1.2271,-1.2352,-1.2186,-1.2338,-1.2413,-1.2264,-1.2152,-1.1959,-1.1773,-1.1651,-1.1476,-1.1145,-0.9431,-0.8224,-0.7627,-0.4072,-0.1512,0.0,0.0,0.0,0.0,0.0,0.0,0.0,0.0,0.0,0.0,0.0,0.0,0.0,0.0,0.0,0.0,0.0,0.0,0.0,0.0,0.0,0.0,0.0,0.0,0.0,0.0,0.0,0.0,0.0,0.0,0.0,0.0,0.0,0.0,0.0,0.0,0.0,0.0,0.0,-0.0762,-0.0023,-0.0702,-0.0743,-0.0022,0.0,0.0,0.0,0.0,0.0,0.0,0.0,0.0,0.0,0.0,0.0,-0.0044,-0.0704,-0.0978,-0.1031,0.0,0.0,0.0,0.0,0.0,0.0,0.0,0.0,0.0,0.0,0.0,0.0,0.0,0.0,0.0,0.0,0.0,0.0,-0.2744,-0.4047,-0.5054,-0.4391,-0.4354,-0.4412,-0.4096,-0.4158,-0.4456,-0.5119,-0.5748,-0.6476,-0.7414,-0.8229,-0.9022,-0.9784,-1.0403,-1.0941,-1.1328,-1.1579,-1.1803,-1.207,-1.222,-1.2244,-1.2227,-1.2311,-1.2291,-1.206,-1.1979,-1.187,-1.1692,-1.1617,-1.1584,-1.1584,-1.0584,-1.0015,-0.9977,-0.7159,-0.43,-0.1463,-0.0473,0.0,0.0,0.0,0.0,0.0,0.0,0.0,0.0,0.0,0.0,0.0,0.0,0.0,0.0,0.0,0.0,0.0,0.0,0.0,0.0,0.0,0.0,0.0,0.0,0.0,0.0,0.0,0.0,0.0,0.0,0.0,0.0,0.0,0.0,0.0,0.0,-0.1721,-0.1869,-0.0527,-0.1444,-0.1362,-0.0023,0.0,0.0,0.0,-0.0322,-0.0471,-0.0469,-0.0142,0.0,0.0,0.0,-0.0156,-0.0482,-0.1401,-0.1968,-0.2303,0.0,0.0,0.0,0.0,0.0,0.0,0.0,0.0,0.0,0.0,0.0,0.0,0.0,0.0,0.0,-0.1898,-0.2446,-0.2869,-0.3885,-0.526,-0.6429,-0.6641,-0.6169,-0.5585,-0.5443,-0.5468,-0.5819,-0.6865,-0.7144,-0.7523,-0.8515,-0.9145,-0.9743,-1.0473,-1.1036,-1.1465,-1.1579,-1.1728,-1.1911,-1.2173,-1.2207,-1.221,-1.2332,-1.2311,-1.2176,-1.1904,-1.1813,-1.1732,-1.1626,-1.1584,-1.1606,-1.1565,-1.1416,-1.1267,-1.1118,-0.9211,-0.6597,-0.332,-0.1512,-0.0404,0.0,0.0,0.0,0.0,0.0,0.0,0.0,0.0,0.0,0.0,0.0,0.0,0.0,0.0,0.0,0.0,0.0,0.0,0.0,0.0,0.0,0.0,0.0,0.0,0.0,0.0,0.0,0.0,0.0,0.0,0.0,0.0,0.0,0.0,0.0,-0.3117,-0.3269,-0.1904,-0.1962,-0.1367,-0.0024,0.0,0.0,0.0,-0.1254,-0.1864,-0.1832,-0.0581,0.0,0.0,0.0,-0.0628,-0.1674,-0.1767,-0.2437,-0.3486,-0.3692,0.0,0.0,0.0,0.0,0.0,0.0,0.0,0.0,0.0,0.0,0.0,0.0,0.0,-0.1934,-0.3269,-0.4353,-0.5245,-0.5688,-0.6939,-0.8086,-0.7922,-0.7834,-0.7988,-0.8843,-0.8788,-0.8737,-0.9263,-0.9356,-0.9352,-0.934,-0.991,-1.0507,-1.0826,-1.1525,-1.2091,-1.2203,-1.2345,-1.2447,-1.2467,-1.2467,-1.2474,-1.2488,-1.2366,-1.2223,-1.2098,-1.1911,-1.1732,-1.1626,-1.1584,-1.1552,-1.1409,-1.1295,-1.1111,-1.0928,-0.8979,-0.7069,-0.5195,-0.3354,-0.1613,0.0,0.0,0.0,0.0,0.0,0.0,0.0,0.0,0.0,0.0,0.0,0.0,0.0,0.0,0.0,0.0,0.0,0.0,0.0,0.0,0.0,0.0,0.0,0.0,0.0,0.0,0.0,0.0,0.0,0.0,0.0,0.0,0.0,0.0,0.0,-0.4506,-0.4649,-0.3304,-0.4054,-0.3857,-0.2512,-0.175,-0.1768,-0.2609,-0.3028,-0.3246,-0.3235,-0.2647,-0.2359,-0.2353,-0.2286,-0.2502,-0.297,-0.3731,-0.4342,-0.4922,-0.5712,-0.5611,0.0,0.0,0.0,0.0,0.0,0.0,0.0,0.0,-0.2236,-0.233,-0.2882,-0.2978,-0.3192,-0.4621,-0.5223,-0.5606,-0.66,-0.7578,-0.8301,-0.8309,-0.8526,-0.8873,-0.9308,-0.9539,-0.9707,-0.9971,-1.0175,-1.0256,-1.01,-1.0567,-1.1009,-1.1279,-1.1837,-1.2257,-1.24,-1.2467,-1.2467,-1.2379,-1.2372,-1.2298,-1.2064,-1.2121,-1.2084,-1.1803,-1.1735,-1.1633,-1.1484,-1.1389,-1.1342,-1.1288,-1.1227,-1.109,-1.0914,-1.0173,-0.8879,-0.6998,-0.4091,-0.1747,0.0,0.0,0.0,0.0,0.0,0.0,0.0,0.0,0.0,0.0,0.0,0.0,0.0,0.0,0.0,0.0,0.0,0.0,0.0,0.0,0.0,0.0,0.0,0.0,0.0,0.0,0.0,0.0,0.0,0.0,0.0,0.0,0.0,0.0,-0.4539,-0.5444,-0.5539,-0.4668,-0.5097,-0.516,-0.4733,-0.3923,-0.3708,-0.4143,-0.4041,-0.4218,-0.461,-0.4109,-0.3854,-0.3869,-0.3769,-0.3938,-0.4342,-0.5166,-0.5787,-0.6253,-0.7168,-0.7044,0.0,0.0,0.0,0.0,0.0,0.0,0.0,0.0,-0.3594,-0.369,-0.4153,-0.4246,-0.445,-0.5884,-0.6173,-0.6251,-0.7194,-0.7797,-0.8199,-0.8396,-0.8777,-0.9254,-0.9754,-1.008,-1.0403,-1.0798,-1.0819,-1.0738,-1.0717,-1.0989,-1.1281,-1.1504,-1.1999,-1.2393,-1.2488,-1.2501,-1.2447,-1.2311,-1.2291,-1.2189,-1.1932,-1.1952,-1.1904,-1.1665,-1.1563,-1.1504,-1.1396,-1.1281,-1.1172,-1.1097,-1.1097,-1.1023,-1.0846,-1.084,-0.9768,-0.7698,-0.5258,-0.2952,-0.0874,-0.1041,-0.1042,-0.0807,-0.0235,0.0,0.0,0.0,0.0,0.0,0.0,0.0,0.0,0.0,0.0,0.0,0.0,0.0,0.0,0.0,0.0,0.0,0.0,0.0,0.0,0.0,0.0,0.0,0.0,0.0,0.0,0.0,0.0,0.0,-0.5897,-0.5876,-0.586,-0.5997,-0.4743,-0.4758,-0.6287,-0.6318,-0.557,-0.4042,-0.4042,-0.4718,-0.6002,-0.4659,-0.4034,-0.403,-0.4025,-0.4694,-0.5808,-0.5808,-0.6427,-0.7423,-0.7692,-0.7638,-0.743,0.0,0.0,0.0,0.0,0.0,0.0,0.0,-0.3638,-0.3838,-0.5048,-0.5425,-0.5674,-0.7008,-0.7396,-0.743,-0.7556,-0.7706,-0.7889,-0.8226,-0.8615,-0.9278,-1.0617,-1.0799,-1.0975,-1.1914,-1.147,-1.0968,-1.1172,-1.12,-1.1254,-1.1369,-1.2013,-1.2501,-1.2501,-1.2501,-1.2447,-1.2305,-1.2284,-1.2223,-1.2111,-1.1918,-1.1793,-1.1793,-1.1552,-1.1389,-1.1389,-1.1274,-1.109,-1.0914,-1.0914,-1.084,-1.0691,-1.0684,-0.951,-0.7131,-0.7131,-0.5593,-0.2752,-0.332,-0.3287,-0.2652,-0.084,-0.0067,-0.0034,0.0,0.0,0.0,0.0,0.0,0.0,0.0,0.0,0.0,0.0,0.0,0.0,0.0,0.0,0.0,0.0,0.0,0.0,0.0,0.0,0.0,0.0,0.0,0.0,0.0,0.0,0.0,-0.4493,-0.5444,-0.5971,-0.6002,-0.6531,-0.7023,-0.7491,-0.7497,-0.7346,-0.7014,-0.6871,-0.7005,-0.7409,-0.6899,-0.6664,-0.6658,-0.6584,-0.6744,-0.7073,-0.7073,-0.7294,-0.7685,-0.7773,-0.7797,-0.7713,0.0,0.0,0.0,0.0,0.0,0.0,0.0,0.0,0.0,-0.6657,-0.6801,-0.6901,-0.7396,-0.7478,-0.7403,-0.745,-0.7804,-0.8233,-0.8506,-0.9313,-1.0276,-1.1171,-1.1103,-1.1103,-1.2033,-1.187,-1.1516,-1.1497,-1.1565,-1.1613,-1.1558,-1.1999,-1.2352,-1.2352,-1.2352,-1.2257,-1.1999,-1.1965,-1.1911,-1.1762,-1.1671,-1.164,-1.1531,-1.1376,-1.1185,-1.1049,-1.0934,-1.0833,-1.0752,-1.0752,-1.0732,-1.0684,-1.0684,-1.0352,-0.9643,-0.9643,-0.7869,-0.4559,-0.389,-0.4389,-0.5759,-0.5225,-0.4523,-0.3588,-0.1042,0.0,0.0,0.0,0.0,0.0,0.0,0.0,0.0,0.0,0.0,0.0,0.0,0.0,0.0,0.0,0.0,0.0,0.0,0.0,0.0,0.0,0.0,0.0,0.0,0.0,0.0,0.0,-0.4715,-0.5386,-0.5977,-0.6781,-0.7459,-0.7988,-0.7988,-0.806,-0.818,-0.806,-0.7988,-0.7988,-0.7918,-0.7878,-0.7871,-0.779,-0.7749,-0.7749,-0.7749,-0.7763,-0.7814,-0.7851,-0.7898,-0.782,0.0,0.0,0.0,0.0,0.0,0.0,0.0,0.0,0.0,-0.7362,-0.7348,-0.7319,-0.7536,-0.7512,-0.745,-0.7689,-0.8056,-0.8526,-0.9061,-0.9917,-1.0792,-1.1613,-1.1816,-1.1986,-1.2528,-1.2305,-1.1986,-1.1904,-1.1857,-1.1766,-1.1678,-1.2033,-1.2271,-1.2247,-1.2234,-1.2108,-1.1827,-1.1793,-1.1739,-1.1597,-1.1565,-1.1491,-1.1396,-1.1199,-1.1036,-1.0921,-1.0772,-1.0684,-1.0684,-1.0684,-1.0684,-1.0684,-1.0684,-1.0684,-1.0684,-1.0684,-0.9576,-0.7469,-0.6765,-0.6794,-0.7498,-0.8235,-0.8135,-0.7098,-0.2081,0.0,0.0,0.0,0.0,0.0,0.0,0.0,0.0,0.0,0.0,0.0,0.0,0.0,0.0,0.0,0.0,0.0,0.0,0.0,0.0,0.0,0.0,0.0,0.0,0.0,0.0,0.0,-0.3808,-0.4466,-0.5927,-0.6137,-0.6767,-0.7963,-0.8027,-0.8027,-0.7988,-0.7988,-0.7988,-0.7988,-0.7988,-0.7988,-0.7988,-0.7988,-0.7988,-0.7988,-0.7988,-0.7932,-0.7817,-0.7959,-0.7932,-0.7824,-0.7946,0.0,0.0,0.0,0.0,0.0,0.0,0.0,0.0,-0.7376,-0.7265,-0.7188,-0.7482,-0.7498,-0.7539,-0.8117,-0.8396,-0.8757,-0.9792,-1.0468,-1.1124,-1.2009,-1.2724,-1.3207,-1.318,-1.2718,-1.2345,-1.2332,-1.2088,-1.1847,-1.182,-1.2094,-1.223,-1.2104,-1.2077,-1.1986,-1.1793,-1.1773,-1.1719,-1.1577,-1.147,-1.1382,-1.1355,-1.107,-1.0873,-1.0894,-1.0765,-1.0684,-1.0684,-1.0684,-1.0684,-1.0684,-1.0684,-1.0677,-1.0664,-1.0664,-1.069,-1.065,-1.0677,-0.9809,-0.833,-0.9981,-1.0684,-1.018,-0.3653,-0.0973,-0.0871,-0.0235,0.0,0.0,0.0,0.0,0.0,0.0,0.0,0.0,0.0,0.0,0.0,0.0,0.0,0.0,0.0,0.0,0.0,0.0,0.0,0.0,0.0,0.0,0.0,0.0,-0.3379,-0.4574,-0.5927,-0.7162,-0.7857,-0.7995,-0.816,-0.816,-0.7988,-0.7988,-0.7988,-0.7988,-0.7988,-0.7988,-0.7988,-0.7988,-0.7988,-0.7988,-0.7988,-0.7993,-0.7966,-0.7975,-0.7993,-0.7959,-0.7871,-0.7891,0.0,0.0,0.0,0.0,0.0,0.0,0.0,-0.7208,-0.7251,-0.7312,-0.7235,-0.7364,-0.7631,-0.7966,-0.8344,-0.894,-1.0107,-1.1355,-1.2368,-1.288,-1.3098,-1.3146,-1.2874,-1.282,-1.2819,-1.2657,-1.2481,-1.2284,-1.2084,-1.2169,-1.2196,-1.1918,-1.184,-1.183,-1.1644,-1.1631,-1.1606,-1.1457,-1.1409,-1.1294,-1.1029,-1.0948,-1.086,-1.0745,-1.0704,-1.0684,-1.0684,-1.0684,-1.0684,-1.0684,-1.0684,-1.0663,-1.0541,-1.0541,-1.048,-1.0385,-1.0616,-1.0485,-1.0147,-1.0518,-1.0684,-1.0585,-0.9039,-0.8262,-0.7532,-0.2131,0.0,0.0,0.0,0.0,0.0,0.0,0.0,0.0,0.0,0.0,0.0,0.0,0.0,0.0,0.0,0.0,0.0,0.0,0.0,0.0,0.0,0.0,0.0,0.0,0.0,-0.5547,-0.6905,-0.7736,-0.8094,-0.7988,-0.8094,-0.8094,-0.7988,-0.7988,-0.7988,-0.7988,-0.7988,-0.7988,-0.7988,-0.7988,-0.7988,-0.7988,-0.7988,-0.7988,-0.7988,-0.7988,-0.7988,-0.7982,-0.7925,-0.7898,-0.7885,-0.7753,0.0,0.0,0.0,0.0,0.0,0.0,0.0,-0.7272,-0.7317,-0.7421,-0.7617,-0.8175,-0.8689,-0.9388,-1.0907,-1.1993,-1.2753,-1.3057,-1.3111,-1.3071,-1.2874,-1.2847,-1.2779,-1.2562,-1.2454,-1.2305,-1.1999,-1.202,-1.1965,-1.166,-1.1619,-1.1565,-1.1416,-1.1402,-1.1369,-1.1322,-1.1219,-1.1083,-1.0928,-1.0846,-1.0772,-1.0691,-1.0684,-1.0684,-1.0684,-1.0649,-1.0609,-1.0609,-1.0541,-1.0473,-1.0392,-1.0392,-1.0383,-1.0283,-1.0439,-1.0548,-1.0609,-1.0609,-1.0649,-1.0618,-0.9443,-0.8569,-0.7569,-0.3808,-0.1382,-0.0131,-0.1294,-0.0995,-0.0129,0.0,0.0,0.0,0.0,0.0,0.0,0.0,0.0,0.0,0.0,0.0,0.0,0.0,0.0,0.0,0.0,0.0,0.0,0.0,0.0,0.0,-0.7963,-0.804,-0.804,-0.7988,-0.804,-0.804,-0.7988,-0.7988,-0.8029,-0.8128,-0.8081,-0.8054,-0.8054,-0.8054,-0.804,-0.7988,-0.7988,-0.7988,-0.7988,-0.7988,-0.7988,-0.7988,-0.7988,-0.7939,-0.7824,-0.7824,-0.7749,-0.7672,-0.7645,0.0,0.0,0.0,0.0,-0.7202,-0.7455,-0.7448,-0.7573,-0.837,-0.9055,-0.9961,-1.1608,-1.2325,-1.2691,-1.2887,-1.2921,-1.2914,-1.2887,-1.2786,-1.2651,-1.2379,-1.2284,-1.2149,-1.1807,-1.1739,-1.166,-1.1389,-1.1355,-1.1307,-1.1213,-1.12,-1.1186,-1.1166,-1.0982,-1.0907,-1.088,-1.0759,-1.0677,-1.0683,-1.0683,-1.0637,-1.0643,-1.0521,-1.0453,-1.0453,-1.0369,-1.0263,-1.0243,-1.0215,-1.0202,-1.0202,-1.0202,-1.0297,-1.0453,-1.0453,-1.0527,-1.0478,-0.8491,-0.6916,-0.5661,-0.4494,-0.2584,-0.0765,-0.3637,-0.2677,-0.0226,0.0,0.0,0.0,0.0,0.0,0.0,0.0,0.0,0.0,0.0,0.0,0.0,0.0,0.0,0.0,0.0,0.0,0.0,-0.366,0.0,0.0,-0.7988,-0.8167,-0.8174,-0.7995,-0.8174,-0.8174,-0.7988,-0.7988,-0.8216,-0.8588,-0.8357,-0.8267,-0.8267,-0.8267,-0.8167,-0.7988,-0.7988,-0.7988,-0.7988,-0.7988,-0.7988,-0.7988,-0.7988,-0.7975,-0.7986,-0.7986,-0.7973,-0.7939,-0.7804,-0.7767,0.0,0.0,0.0,-0.7342,-0.7208,-0.7285,-0.7505,-0.7966,-0.9123,-1.0405,-1.1423,-1.202,-1.2386,-1.2528,-1.2562,-1.2528,-1.2406,-1.2569,-1.2638,-1.2508,-1.2264,-1.203,-1.1694,-1.1538,-1.1389,-1.1254,-1.1227,-1.122,-1.12,-1.12,-1.1118,-1.0955,-1.0928,-1.086,-1.0725,-1.0698,-1.0663,-1.0527,-1.0521,-1.0466,-1.0376,-1.0349,-1.0342,-1.0342,-1.0322,-1.0215,-1.0049,-0.9913,-0.9852,-0.9852,-0.9852,-1.0039,-1.0342,-1.0342,-1.0356,-1.0344,-1.0064,-0.891,-0.6864,-0.2405,-0.1277,-0.2727,-0.7304,-0.5171,-0.0032,0.0,0.0,0.0,0.0,0.0,0.0,0.0,0.0,0.0,0.0,0.0,0.0,0.0,0.0,0.0,-0.1043,-0.2359,-0.4008,-0.6096,-0.7335,-0.7988,-0.7988,-0.8081,-0.8081,-0.7988,-0.8081,-0.8081,-0.7988,-0.7988,-0.829,-0.8804,-0.8676,-0.8689,-0.8784,-0.8621,-0.8431,-0.8275,-0.8088,-0.7988,-0.7988,-0.7988,-0.7988,-0.7988,-0.7988,-0.7988,-0.7982,-0.7918,-0.7885,-0.7864,-0.774,-0.7638,-0.7566,-0.7437,0.0,0.0,0.0,-0.7251,-0.7587,-0.8451,-0.9273,-1.0141,-1.1118,-1.1511,-1.1778,-1.2054,-1.2128,-1.2135,-1.2193,-1.2264,-1.2305,-1.2155,-1.1952,-1.1742,-1.1525,-1.1362,-1.1247,-1.1063,-1.1043,-1.1009,-1.0928,-1.0914,-1.0887,-1.0792,-1.0786,-1.0759,-1.0691,-1.0643,-1.0561,-1.0493,-1.0419,-1.0344,-1.0315,-1.0195,-1.0116,-1.0116,-1.0066,-0.9992,-0.9893,-0.9819,-0.9792,-0.9792,-0.9792,-0.9913,-1.0123,-1.0243,-1.0315,-1.0233,-0.9415,-0.854,-0.7323,-0.3519,-0.1627,-0.1372,-0.3528,-0.247,-0.0197,0.0,0.0,0.0,0.0,0.0,0.0,0.0,0.0,0.0,0.0,0.0,0.0,0.0,0.0,0.0,0.0,-0.3742,-0.5497,-0.7839,-0.7988,-0.7988,-0.7988,-0.7988,-0.7988,-0.7988,-0.7988,-0.7988,-0.7988,-0.8054,-0.8399,-0.9021,-0.9061,-0.9245,-0.9505,-0.9062,-0.8757,-0.852,-0.8236,-0.8128,-0.8121,-0.8047,-0.7993,-0.7959,-0.7975,-0.7993,-0.7946,-0.7871,-0.7844,-0.7831,-0.7722,-0.7638,-0.7553,-0.7478,-0.7346,0.0,0.0,0.0,-0.7553,-0.8566,-0.9063,-0.951,-1.0546,-1.0914,-1.1145,-1.1558,-1.1658,-1.1762,-1.1918,-1.1955,-1.1907,-1.1753,-1.1624,-1.1511,-1.1355,-1.1172,-1.1016,-1.0874,-1.086,-1.0813,-1.0698,-1.0684,-1.0684,-1.0684,-1.0684,-1.0684,-1.0684,-1.0616,-1.0514,-1.0439,-1.0337,-1.0243,-1.0168,-1.0021,-0.9961,-0.9961,-0.9846,-0.9792,-0.9792,-0.9792,-0.9792,-0.9792,-0.9792,-0.9852,-0.9967,-1.0114,-1.0161,-1.008,-0.8931,-0.8075,-0.7332,-0.5776,-0.3062,0.0,0.0,0.0,-0.0269,0.0,0.0,0.0,0.0,0.0,0.0,0.0,0.0,0.0,0.0,0.0,0.0,-0.1759,-0.1885,-0.2437,-0.3792,-0.5122,-0.6506,-0.7914,-0.7988,-0.7988,-0.7988,-0.7988,0.0,-0.7988,-0.7988,-0.7988,-0.7988,-0.8187,-0.8662,-0.939,-0.951,-0.9876,-1.0392,-0.9666,-0.9103,-0.8689,-0.8526,-0.8485,-0.8431,-0.8128,-0.7925,-0.7817,-0.7959,-0.7925,-0.7817,-0.7952,-0.8,-0.7975,-0.7993,-0.7986,-0.7932,-0.7678,-0.7584,-0.7516,0.0,0.0,0.0,-0.7722,-0.8106,-0.8587,-0.9462,-1.0114,-1.0643,-1.1132,-1.1342,-1.1457,-1.1613,-1.1525,-1.147,-1.1606,-1.1504,-1.1355,-1.1234,-1.0934,-1.0711,-1.0698,-1.0698,-1.0698,-1.0691,-1.0684,-1.0684,-1.0684,-1.0684,-1.0684,-1.0684,-1.0677,-1.0588,-1.0304,-1.0315,-1.0148,-0.9825,-0.9805,-0.9805,-0.9805,-0.9792,-0.9792,-0.9792,-0.9792,-0.9792,-0.9792,-0.9792,-0.9792,-0.9805,-0.9812,-0.9812,-0.9812,-0.9741,-0.8506,-0.6837,-0.8751,-0.5582,0.0,0.0,0.0,-0.0034,0.0,0.0,0.0,0.0,0.0,0.0,0.0,0.0,0.0,0.0,0.0,0.0,0.0,-0.3291,-0.3817,-0.5172,-0.6506,-0.7484,-0.7963,-0.7988,-0.7988,-0.7988,-0.7988,-0.7988,-0.7988,-0.7988,-0.7988,-0.7988,-0.8067,-0.8404,-0.8954,-0.9082,-0.9395,-0.9798,-0.9605,-0.9327,-0.8995,-0.856,-0.8289,-0.8162,-0.8054,-0.7979,-0.7939,-0.7993,-0.7979,-0.7939,-0.7993,-0.7988,-0.7988,-0.7988,-0.7952,-0.7837,-0.7658,-0.7536,-0.7437,-0.7181,-0.7098,-0.7193,-0.7668,-0.7896,-0.8167,-0.8953,-0.9483,-0.9897,-1.0312,-1.0711,-1.1002,-1.1124,-1.1294,-1.1375,-1.1335,-1.1315,-1.1261,-1.1206,-1.0914,-1.0684,-1.0684,-1.0684,-1.0684,-1.0684,-1.0684,-1.0684,-1.0684,-1.1696,-1.238,-1.238,-1.3169,-1.3599,-1.3519,-1.3216,-1.299,-1.2877,-1.1886,-1.0793,-0.9686,-0.9744,-0.9744,-0.9686,-0.9744,-0.9792,-0.9792,-0.9792,-0.9792,-0.9792,-0.9792,-0.9792,-0.9805,-1.0032,-0.9586,-0.8902,-0.9965,-0.8939,-0.6313,-0.1705,-0.2918,-0.6193,0.0,0.0,0.0,0.0,0.0,0.0,0.0,0.0,0.0,-0.2663,0.0,0.0,0.0,0.0,-0.4543,-0.5877,-0.7235,-0.7988,-0.7988,-0.7988,-0.7988,-0.7988,-0.7988,-0.7988,-0.7988,-0.8067,-0.8067,-0.7988,-0.8115,-0.8344,-0.8716,-0.8838,-0.9068,-0.941,-0.9435,-0.9403,-0.9226,-0.8784,-0.8452,-0.823,-0.8128,-0.806,-0.8008,-0.8182,-0.8175,-0.8108,-0.8202,-0.8175,-0.8081,-0.8033,-0.7946,-0.7837,-0.7719,-0.7536,-0.7362,-0.7161,-0.7098,-0.7159,-0.7479,-0.7624,-0.7848,-0.8568,-0.8933,-0.9239,-0.9805,-1.017,-1.0454,-1.0711,-1.0995,-1.1151,-1.1097,-1.105,-1.1063,-1.1084,-1.0839,-1.0643,-1.0643,-1.0602,-1.0588,-1.0636,-1.0643,-1.0894,-1.1497,-1.261,-1.3545,-1.4134,-1.5003,-1.5439,-1.5318,-1.5004,-1.472,-1.4458,-1.3414,-1.2268,-1.0977,-1.0562,-1.0324,-1.023,-0.9889,-0.9717,-0.9724,-0.9771,-0.9792,-0.9792,-0.9792,-0.9792,-0.9805,-1.0039,-1.0035,-0.9974,-1.0272,-1.0508,-1.0114,-0.5359,-0.6093,-0.8806,0.0,0.0,0.0,0.0,0.0,0.0,0.0,0.0,-0.4067,-0.4067,0.0,0.0,0.0,0.0,0.0,-0.5967,-0.7278,-0.8008,-0.7995,-0.7995,-0.7995,-0.7988,-0.7988,-0.7988,-0.7988,-0.8187,-0.8187,-0.7988,-0.833,-0.8547,-0.8696,-0.8818,-0.9048,-0.9383,-0.9233,-0.9254,-0.939,-0.9226,-0.8995,-0.8682,-0.8417,-0.8187,-0.8094,-0.8514,-0.8533,-0.8355,-0.8608,-0.8526,-0.8294,-0.8081,-0.8027,-0.8,-0.7837,-0.7611,-0.7369,-0.7175,-0.7105,-0.7105,0.0,0.0,0.0,-0.8294,-0.8485,-0.8696,-0.9571,-0.9751,-0.9917,-1.0365,-1.0582,-1.0704,-1.086,-1.0772,-1.0718,-1.0867,-1.071,-1.0584,-1.0649,-1.0525,-1.049,-1.0628,-1.0649,-1.1348,-1.3201,-1.3414,-1.4157,-1.5848,-1.6,-1.5871,-1.5463,-1.5422,-1.5085,-1.4305,-1.4284,-1.4086,-1.3713,-1.2271,-1.1565,-1.1536,-1.031,-0.9687,-0.9664,-0.9801,-0.9839,-0.9778,-0.9785,-0.9785,-0.9785,-0.9792,-0.9792,-0.9792,-0.9798,-1.0157,-1.0677,-1.0684,-0.9205,-0.7198,0.0,0.0,0.0,0.0,0.0,0.0,-0.3989,-0.4818,-0.5452,0.0,0.0,0.0,-0.7096,-0.7293,-0.7563,-0.7913,-0.8282,-0.8431,-0.8221,-0.8208,-0.816,-0.7995,-0.7988,-0.7988,-0.7988,-0.8054,-0.8054,-0.7988,-0.8094,-0.8162,-0.8202,-0.8384,-0.8615,-0.8893,-0.8852,-0.892,-0.9014,-0.8777,-0.8682,-0.8682,-0.8417,-0.8526,-0.8852,-0.8648,-0.8628,-0.8723,-0.8723,-0.8703,-0.8689,-0.8445,-0.8357,-0.8296,-0.7929,-0.7685,-0.7529,-0.7482,-0.7394,-0.7305,-0.7305,0.0,0.0,0.0,0.0,0.0,-0.8594,-0.8866,-0.9144,-0.9598,-0.989,-1.0082,-1.0206,-1.0358,-1.0378,-1.0278,-1.129,-1.2463,-1.3591,-1.3703,-1.3725,-1.3748,-1.3748,-1.4051,-1.483,-1.6032,-1.7062,-1.772,-1.8548,-1.8951,-1.8863,-1.8489,-1.7537,-1.5925,-1.5856,-1.513,-1.3578,-1.3248,-1.305,-1.2945,-1.269,-1.2015,-1.0991,-1.101,-1.0486,-0.951,-0.9618,-0.9666,-0.968,-0.9751,-0.9792,-0.9805,-0.9947,-1.0197,-1.0488,-1.0637,-1.0286,-0.9443,0.0,0.0,0.0,0.0,0.0,-0.5893,-0.5963,-0.6623,-0.7125,0.0,0.0,0.0,-0.768,-0.7873,-0.7984,-0.7873,-0.838,-0.8608,-0.8403,-0.8383,-0.8315,-0.814,-0.8133,-0.8081,-0.7988,-0.8081,-0.8081,-0.7988,-0.8081,-0.8133,-0.814,-0.8253,-0.8417,-0.8615,-0.8682,-0.8689,-0.8655,-0.8533,-0.8533,-0.8615,-0.8567,-0.8818,-0.9207,-0.9144,-0.9176,-0.9278,-0.9251,-0.9217,-0.9142,-0.8893,-0.8662,-0.843,-0.795,-0.7753,-0.7678,-0.7617,-0.7536,-0.7491,-0.7491,-0.74,-0.7357,-0.7597,0.0,0.0,-0.8213,-0.835,-0.8534,-0.9008,-0.9286,-0.9467,-0.9646,-0.9747,-1.0016,-1.0547,-1.1497,-1.2543,-1.352,-1.4129,-1.453,-1.474,-1.477,-1.5197,-1.6264,-1.7428,-1.8399,-1.9137,-1.9936,-2.0307,-2.0037,-1.9613,-1.8756,-1.7393,-1.7324,-1.6662,-1.5212,-1.4691,-1.4378,-1.4287,-1.3818,-1.3172,-1.2334,-1.2378,-1.1622,-1.0272,-1.0368,-1.0104,-0.9618,-0.967,-0.9737,-0.9812,-1.0008,-1.0265,-1.0529,-1.0644,-1.0684,-1.0485,0.0,0.0,0.0,-0.6535,-0.7674,-0.8587,-0.8757,-0.8771,-0.8764,0.0,-0.8682,-0.8239,-0.7183,-0.7263,-0.7296,-0.7056,-0.8117,-0.871,-0.8547,-0.852,-0.8464,-0.8301,-0.8315,-0.8221,-0.804,-0.8214,-0.8228,-0.806,-0.8228,-0.8321,-0.8321,-0.8321,-0.8396,-0.8539,-0.8628,-0.854,-0.8328,-0.8457,-0.8519,-0.8533,-0.8798,-0.9062,-0.9335,-0.9798,-0.9927,-0.9859,-0.9974,-0.9859,-0.9632,-0.9342,-0.892,-0.8431,-0.8018,-0.7875,-0.7834,-0.7692,-0.7638,-0.7624,-0.7624,-0.7624,-0.7685,-0.7905,-0.7804,0.0,-0.8145,-0.8099,-0.8101,-0.85,-0.8689,-0.8838,-0.907,-0.9132,-0.9574,-1.0926,-1.1332,-1.1653,-1.2232,-1.3279,-1.4216,-1.4833,-1.4903,-1.5688,-1.7643,-1.8099,-1.8809,-2.0089,-2.0414,-2.0324,-1.9733,-1.9455,-1.904,-1.8464,-1.8437,-1.8156,-1.7622,-1.6301,-1.5636,-1.5636,-1.4505,-1.3871,-1.3706,-1.3844,-1.3088,-1.1677,-1.1531,-1.0846,-0.9792,-0.9657,-0.9693,-0.9812,-1.0008,-1.0312,-1.067,-1.0657,-1.0704,-1.0684,0.0,-0.5874,-0.6696,-0.8135,-0.8634,-0.8912,-0.9211,-0.9172,-0.9138,-0.926,-0.9334,-0.9372,-0.9362,-0.9305,-0.9247,-0.9189,-0.9243,-0.9137,-0.8838,-0.871,-0.8547,-0.8308,-0.8403,-0.8396,-0.8253,-0.8396,-0.8451,-0.8397,-0.8451,-0.8464,-0.8464,-0.8464,-0.852,-0.8662,-0.8567,-0.8519,-0.8471,-0.8498,-0.8554,-0.8682,-0.8838,-0.9284,-0.9846,-0.9839,-0.9998,-1.0175,-1.0049,-1.0062,-1.0086,-0.9666,-0.9137,-0.8628,-0.8418,-0.8294,-0.8179,-0.7973,-0.7844,-0.7773,-0.7773,-0.7773,-0.7753,-0.7699,-0.7916,0.0,-0.7794,-0.7794,-0.7858,-0.797,-0.7986,-0.8147,-0.8566,-0.8641,-0.8748,-0.9033,-1.0171,-1.2064,-1.5002,-1.5648,-1.636,-1.7849,-1.8014,-1.8375,-1.9278,-1.9442,-1.9666,-2.0153,-1.9853,-1.9466,-1.9118,-1.8824,-1.8504,-1.8116,-1.8103,-1.7929,-1.7608,-1.7305,-1.7173,-1.7173,-1.6907,-1.6174,-1.5037,-1.5056,-1.4283,-1.2887,-1.1801,-1.1248,-1.1062,-1.0023,-0.9693,-0.9805,-0.9967,-1.0157,-1.0378,-1.0493,-1.0616,-1.0684,-0.6021,-0.6937,-0.7822,-0.887,-0.9171,-0.9345,-0.9636,-0.9646,-0.9625,-0.9707,-0.9849,-0.9971,-1.0008,-1.0021,-0.9958,-0.9734,-0.951,-0.9252,-0.8933,-0.8838,-0.8696,-0.8499,-0.856,-0.8526,-0.8403,-0.8471,-0.8505,-0.8505,-0.8505,-0.8546,-0.8594,-0.8594,-0.8635,-0.871,-0.871,-0.8621,-0.8512,-0.856,-0.8682,-0.8825,-0.9122,-0.9555,-1.0035,-1.0184,-1.0365,-1.0487,-1.038,-1.0385,-1.0297,-0.9693,-0.9347,-0.9076,-0.8621,-0.854,-0.856,-0.833,-0.8208,-0.8113,-0.7939,-0.7898,0.0,-0.7936,-0.7991,0.0,0.0,-0.7699,-0.7631,-0.778,-0.7692,-0.7706,-0.8079,-0.8092,-0.8092,-0.8235,-0.8933,-1.0386,-1.313,-1.4169,-1.504,-1.6085,-1.6975,-1.7695,-1.8222,-1.9201,-1.98,-1.98,-1.9399,-1.9011,-1.8718,-1.8571,-1.8357,-1.8009,-1.7995,-1.7876,-1.7608,-1.7729,-1.7729,-1.7608,-1.7742,-1.7356,-1.6499,-1.6499,-1.5716,-1.4314,-1.3648,-1.2608,-1.1354,-1.0773,-1.0222,-0.9717,-1.0015,-1.0215,-1.0304,-1.0527,-1.0656,-1.0684,-0.6682,-0.7764,-0.8771,-0.9124,-0.9437,-0.969,-1.0015,-1.0004,-1.0011,-1.0096,-1.0297,-1.0371,-1.0245,-1.0351,-1.0297,-1.0019,-0.9914,-0.97,-0.9257,-0.9286,-0.914,-0.8716,-0.8737,-0.8669,-0.8512,-0.854,-0.8567,-0.8567,-0.8567,-0.8635,-0.873,-0.873,-0.873,-0.873,-0.8825,-0.8743,-0.8581,-0.8703,-0.8845,-0.9075,-0.9494,-0.9792,-1.0021,-1.0475,-1.0677,-1.0644,-1.0677,-1.0622,-1.0399,-0.9798,-0.9598,-0.9537,-0.8866,-0.8804,-0.8899,-0.8648,-0.8567,-0.852,-0.825,0.0,0.0,0.0,0.0,-0.8092,0.0,0.0,0.0,-0.7699,-0.7559,-0.7464,-0.7685,-0.7631,-0.7631,-0.7851,-0.7959,-0.85,-0.9892,-1.1206,-1.2388,-1.3375,-1.4716,-1.5826,-1.6547,-1.8349,-1.9269,-1.8853,-1.8723,-1.8584,-1.841,-1.8343,-1.8183,-1.7849,-1.7902,-1.7782,-1.7528,-1.7782,-1.7809,-1.7608,-1.7809,-1.7796,-1.7608,-1.7608,-1.6962,-1.5823,-1.553,-1.4011,-1.1724,-1.1574,-1.0761,-0.9646,-1.0039,-1.0229,-1.0342,-1.0548,-1.067,-1.0684,-0.8064,-0.832,-0.8668,-0.9132,-0.9437,-0.9754,-1.0188,-1.0109,-1.0109,-1.0405,-1.0657,-1.088,-1.1057,-1.0907,-1.0975,-1.1327,-1.1467,-1.1224,-1.0538,-1.0714,-1.0218,-0.877,-0.8811,-0.875,-0.8512,-0.8723,-0.8858,-0.8858,-0.8858,-0.8872,-0.8885,-0.8885,-0.8885,-0.8879,-0.8764,-0.8764,-0.8858,-0.8879,-0.9122,-0.9557,-0.9846,-0.9907,-0.9866,-1.0344,-1.0521,-1.0534,-1.067,-1.0622,-1.046,-1.0281,-1.0005,-0.9704,-0.9388,-0.924,-0.9124,-0.8906,-0.8858,-0.8852,-0.8818,0.0,0.0,0.0,-0.8859,0.0,-0.8045,0.0,-0.8049,-0.7546,0.0,-0.7403,-0.7437,0.0,0.0,-0.7464,-0.7756,-0.7981,-0.7965,-0.8297,-0.9805,-1.31,-1.3566,-1.4341,-1.6163,-1.7476,-1.7767,-1.6718,-1.7319,-1.7836,-1.8063,-1.7836,-1.7582,-1.7313,-1.7528,-1.7528,-1.7246,-1.7515,-1.7622,-1.7608,-1.7622,-1.7622,-1.7608,-1.7608,-1.7503,-1.7279,-1.5956,-1.4581,-1.3146,-1.1973,-1.0761,-0.9625,-0.9802,-1.0039,-1.0315,-1.0317,-1.0493,-1.0684,-0.8389,-0.8581,-0.8859,-0.9254,-0.9462,-0.9761,-1.024,-1.0595,-1.0839,-1.0907,-1.1145,-1.1423,-1.1696,-1.1477,-1.1381,-1.157,-1.2311,-1.2115,-1.0557,-1.1257,-1.1008,-0.9412,-0.9164,-0.9042,-0.9029,-0.8933,-0.8912,-0.8912,-0.8912,-0.8912,-0.8912,-0.8912,-0.8865,-0.8777,-0.8804,-0.9471,-1.052,-0.9503,-0.9918,-1.1168,-1.0259,-0.99,-0.9974,-1.0453,-1.0622,-1.0629,-1.0664,-1.0644,-1.0575,-1.0288,-1.0152,-1.0019,-0.9632,-0.9523,-0.9496,-0.9266,-0.9198,-0.9157,-0.896,0.0,0.0,0.0,0.0,0.0,-0.8303,0.0,-0.7957,0.0,0.0,0.0,0.0,0.0,0.0,0.0,-0.759,-0.7638,-0.7604,-0.7631,-0.8355,-1.0249,-1.1216,-1.2549,-1.4598,-1.5212,-1.5252,-1.4602,-1.4893,-1.5083,-1.4995,-1.4879,-1.4775,-1.4644,-1.4824,-1.5298,-1.6019,-1.6418,-1.6956,-1.7608,-1.7769,-1.7756,-1.7582,-1.6711,-1.679,-1.7477,-1.5171,-1.3883,-1.33,-1.2014,-1.0699,-0.9503,-0.9734,-0.9927,-1.0136,-1.0337,-1.048,-1.0602,-0.8425,-0.8662,-0.8865,-0.915,-0.9395,-0.9713,-1.0202,-1.0738,-1.1324,-1.2002,-1.2255,-1.28,-1.3971,-1.3966,-1.3972,-1.4245,-1.5221,-1.4713,-1.2105,-1.2806,-1.2268,-0.9858,-0.949,-0.9342,-0.9259,-0.913,-0.8994,-0.8912,-0.8912,-0.8933,-0.8967,-0.8926,-0.8872,-0.8838,-0.8947,-0.9813,-1.1208,-1.0524,-1.0888,-1.1874,-1.1108,-1.0565,-1.0231,-1.0515,-1.0683,-1.0684,-1.0684,-1.0684,-1.0663,-1.0329,-1.0281,0.0,-0.991,-0.9836,-0.9805,-0.9578,-0.9503,-0.9449,-0.9163,0.0,0.0,0.0,0.0,0.0,0.0,0.0,0.0,0.0,-0.7875,0.0,0.0,0.0,0.0,0.0,0.0,-0.7478,-0.7529,-0.7464,-0.76,-0.814,-0.9656,-1.1042,-1.2115,-1.2896,-1.3115,-1.2561,-1.2863,-1.2972,-1.2756,-1.2782,-1.2787,-1.2761,-1.2914,-1.3509,-1.4526,-1.4972,-1.5611,-1.6419,-1.6605,-1.6619,-1.6393,-1.5304,-1.5423,-1.6313,-1.4207,-1.3075,-1.2627,-1.1838,-1.0661,-0.9437,-0.9707,-0.9859,-0.9994,-1.0324,-1.046,-1.0514,-0.8425,-0.8519,-0.8547,-0.8703,-0.9096,-0.9621,-1.022,-1.0329,-1.1279,-1.3966,-1.4301,-1.5542,-1.88,-1.9435,-2.0042,-2.1012,-2.1464,-2.0105,-1.6273,-1.6181,-1.4266,-0.9795,-0.9704,-0.9501,-0.894,-0.9225,-0.9225,-0.8912,-0.8912,-0.9008,-0.92,-0.9001,-0.9008,-0.9193,-0.92,-0.9446,-0.999,-1.1951,-1.1996,-1.0922,-1.2669,-1.2316,-1.0683,-1.0548,-1.0595,-1.0684,-1.0684,-1.0684,0.0,-1.0534,-1.048,0.0,0.0,0.0,0.0,0.0,0.0,0.0,0.0,0.0,0.0,-0.9088,0.0,0.0,0.0,0.0,-0.8336,0.0,0.0,0.0,0.0,0.0,0.0,0.0,0.0,0.0,0.0,-0.7396,-0.7566,-0.7966,-0.9611,-1.0114,-0.8611,-1.088,-1.1903,-1.0593,-1.1702,-1.2469,-1.2609,-1.274,-1.2736,-1.2623,-1.2862,-1.2947,-1.2878,-1.3217,-1.341,-1.3426,-1.3464,-1.3464,-1.3426,-1.3399,-1.3399,-1.3426,-1.3345,-1.248,-1.119,-1.1413,-1.0661,-0.9437,-0.9707,-0.9792,-0.9832,-1.0175,-1.0403,-1.0514,-0.8737,-0.894,-0.9028,-0.8858,-0.9062,-0.9526,-1.0297,-1.174,-1.3604,-1.6016,-1.6307,-1.7761,-2.1635,-2.2072,-2.2188,-2.2444,-2.1873,-2.0847,-1.9334,-1.6833,-1.4893,-1.37,-1.1541,-1.0877,-1.1925,-1.0449,-1.0649,-1.2671,-1.0267,-0.9716,-1.089,-0.9524,-0.9015,-0.9214,-0.9288,-1.0164,-1.1601,-1.26,-1.3411,-1.3969,-1.3453,-1.2283,-1.0819,-1.0671,-1.0677,-1.0684,-1.0684,-1.0684,0.0,-1.0663,-1.0575,-1.048,-1.0432,-1.0317,-1.0175,-0.9988,-1.0046,-1.0093,0.0,0.0,-0.9913,-0.9467,0.0,0.0,0.0,0.0,0.0,0.0,0.0,0.0,0.0,0.0,0.0,0.0,0.0,0.0,0.0,-0.7396,-0.745,-0.7577,-0.8309,-0.8544,-0.789,-0.8756,-0.9176,-0.8718,-0.9103,-0.942,-0.954,-0.9604,-0.9666,-0.976,-0.9928,-1.0511,-1.1531,-1.1738,-1.2317,-1.3291,-1.3291,-1.3291,-1.3264,-1.2299,-1.2371,-1.3183,-1.1237,-1.0644,-1.1053,-1.0379,-0.9838,-0.9437,-0.9707,-0.9852,-0.9967,-1.0202,-1.0342,-1.0385,-0.9136,-0.9286,-0.934,-0.9176,-1.0033,-1.0959,-1.1682,-1.4224,-1.6915,-1.9354,-2.0008,-2.1716,-2.5628,-2.5936,-2.5959,-2.6087,-2.5264,-2.4026,-2.2281,-1.9055,-1.7027,-1.6638,-1.3995,-1.3269,-1.484,-1.3266,-1.3185,-1.4746,-1.1815,-1.0907,-1.1745,-0.9884,-0.9062,-0.9221,-0.9396,-1.0591,-1.2548,-1.382,-1.4923,-1.5748,-1.4576,-1.3511,-1.267,-1.2584,-1.1799,-1.0759,0.0,-1.0684,-1.0684,-1.0684,-1.0656,-1.0575,-1.0575,-1.0473,-1.0324,-1.0175,-1.0202,-1.0249,-1.0062,-0.9984,0.0,-0.9656,-0.9347,0.0,-0.8574,0.0,-0.856,0.0,0.0,0.0,0.0,0.0,0.0,0.0,0.0,0.0,0.0,-0.7292,-0.7292,-0.7292,-0.7556,-0.7719,-0.7678,-0.7712,-0.7712,-0.7658,-0.7753,-0.781,-0.7858,-0.7959,-0.8108,-0.8362,-0.8457,-0.9051,-1.0178,-1.026,-1.0781,-1.1728,-1.1728,-1.1728,-1.1701,-1.0754,-1.0869,-1.1717,-0.9748,-0.9515,-1.0436,-0.9702,-0.9444,-0.949,-0.9758,-0.9934,-1.0004,-1.0222,-1.0344,-1.0466,-0.9591,-0.9537,-0.951,-0.9652,-1.1775,-1.3637,-1.4163,-1.7326,-2.0758,-2.3689,-2.4957,-2.691,-3.0544,-3.079,-3.1016,-3.169,-3.1241,-2.9151,-2.5094,-2.2498,-2.0313,-1.855,-1.6673,-1.6333,-1.7648,-1.7193,-1.6407,-1.5398,-1.3414,-1.2276,-1.1931,-1.008,-0.9207,-0.9221,-0.9483,-1.0665,-1.2645,-1.542,-1.6455,-1.6237,-1.6102,-1.5988,-1.5901,-1.5891,-1.393,-1.113,-1.0905,-1.0784,-1.0684,-1.0684,-1.0684,-1.0684,-1.0684,-1.0622,-1.0473,-1.0363,-1.0297,-1.027,-1.0082,-1.0035,-0.9961,-0.969,-0.9517,0.0,0.0,0.0,-0.8845,0.0,0.0,0.0,0.0,0.0,0.0,0.0,0.0,0.0,0.0,0.0,-0.7112,-0.7119,-0.7391,-0.7638,-0.7767,-0.7665,-0.7529,-0.7403,-0.7631,-0.774,-0.7617,-0.7851,-0.8142,-0.8498,-0.8505,-0.8628,-0.8906,-0.8912,-0.8912,-0.8912,-0.8912,-0.8912,-0.8912,-0.8912,-0.9015,-0.92,-0.9008,-0.9088,-0.941,-0.9417,-0.9476,-0.9639,-0.9893,-0.9984,-1.0049,-1.0236,-1.0473,-1.0684,-0.9751,-1.027,-1.0683,-1.0583,-1.1805,-1.3279,-1.4516,-1.7338,-2.083,-2.4942,-2.497,-2.6686,-3.2119,-3.1013,-3.0615,-3.2519,-2.8962,-2.6655,-2.6852,-2.0631,-1.8208,-2.1016,-1.6651,-1.6498,-2.154,-1.5986,-1.5602,-2.0869,-1.3929,-1.1842,-1.4262,-1.0805,-0.9207,-0.9228,-0.9585,-1.0044,-1.0767,-1.477,-1.7149,-1.8244,-1.7961,-1.7131,-1.6047,-1.5952,-1.5433,-1.4569,-1.3161,-1.1795,-1.0684,-1.0684,-1.0684,-1.0684,-1.0684,-1.0697,-1.0629,-1.048,-1.0521,-1.0575,-1.0419,-1.0304,-1.0229,-1.0256,-0.9822,-0.9396,0.0,0.0,0.0,0.0,0.0,0.0,0.0,0.0,0.0,0.0,0.0,0.0,0.0,0.0,-0.7353,-0.7468,-0.7455,-0.74,-0.7296,-0.738,-0.7437,-0.7396,-0.7464,-0.7563,-0.7746,-0.7804,-0.8058,-0.8498,-0.8505,-0.8628,-0.8906,-0.8912,-0.8912,-0.8912,-0.8912,-0.8912,-0.8912,-0.8912,-0.9015,-0.9207,-0.9145,-0.9233,-0.9417,-0.9503,-0.9571,-0.9625,-0.9778,-0.9988,-1.0243,-1.0385,-1.0555,-1.0684,-1.1585,-1.3249,-1.4529,-1.4321,-1.54,-1.6513,-1.717,-2.0277,-2.3723,-2.7109,-2.7401,-2.8666,-3.2288,-3.1766,-3.1264,-3.1365,-2.9603,-2.8198,-2.7412,-2.3322,-2.2145,-2.4989,-2.0055,-1.9579,-2.4628,-1.8847,-1.7689,-2.1543,-1.5445,-1.2957,-1.3827,-1.0787,-0.9342,-0.9294,-0.9652,-1.0663,-1.2439,-1.6668,-1.9158,-2.0268,-1.9836,-1.9088,0.0,-1.8206,-1.726,-1.5856,-1.4824,-1.3325,-1.1729,-1.0949,-1.0684,-1.0684,-1.0684,-1.0684,-1.0704,-1.0616,-1.0656,-1.0671,-1.0616,-1.0487,-1.0424,-1.0473,-1.0127,-0.9747,-0.9632,-0.9544,-0.9415,0.0,-0.9096,-0.9022,0.0,0.0,0.0,0.0,0.0,0.0,0.0,0.0,-0.7525,-0.759,-0.7577,-0.7502,-0.733,-0.7421,-0.7437,-0.7278,-0.7455,-0.7611,0.0,-0.7817,-0.8085,-0.8498,-0.8615,-0.8737,-0.8912,-0.9041,-0.9041,-0.8912,-0.8912,-0.8946,-0.9028,-0.9028,-0.915,-0.9376,-0.9308,-0.9403,-0.9637,-1.0354,-1.0257,-0.9727,-0.9937,-1.0168,-1.0392,-1.0534,-1.0649,-1.0684,-1.433,-1.6968,-1.8984,-1.8667,-2.0223,-2.1424,-2.1192,-2.4438,-2.7619,-2.9553,-3.0525,-3.1262,-3.1877,-3.2481,-3.2071,-3.004,-3.1502,-3.1042,-2.759,-2.748,-2.7911,-2.877,-2.4419,-2.3598,-2.7012,-2.301,-2.071,-2.0438,-1.7109,-1.4521,-1.2543,-1.0539,-0.953,-0.9424,-0.9896,-1.2162,-1.5808,-1.925,-2.1197,-2.1917,-2.1336,-2.1136,-2.1162,-2.1122,-1.9228,-1.6528,-1.6043,-1.4623,-1.2734,-1.1207,-1.0684,-1.0684,-1.0684,-1.0684,-1.0684,-1.0684,-1.0684,-1.0684,-1.0684,-1.0609,-1.0493,-1.0514,-1.0399,-1.0213,-0.9808,-0.9713,-0.9652,-0.9503,-0.9217,-0.9095,0.0,0.0,0.0,0.0,0.0,0.0,0.0,0.0,-0.7631,-0.7631,-0.7733,0.0,-0.7638,-0.7631,-0.7509,-0.7202,-0.754,-0.774,0.0,0.0,-0.8128,-0.8498,-0.873,-0.8912,-0.8967,-0.9252,-0.9266,-0.9,-0.898,-0.9062,-0.9241,-0.9241,-0.9369,-0.9598,-0.9697,-0.9889,-1.0226,-1.1743,-1.1449,-1.0154,-1.0468,-1.0575,-1.0487,-1.0623,-1.0684,-1.0684,-1.6821,-1.8356,-1.9357,-1.8713,-2.1696,-2.4535,-2.5578,-2.6917,-2.866,-3.1002,-3.0663,-3.0946,-3.2898,-3.134,-3.088,-3.2561,-3.1013,-2.9632,-2.894,-2.6517,-2.5929,-2.7771,-2.4358,-2.4341,-2.8542,-2.2326,-2.0579,-2.3763,-1.6828,-1.3834,-1.461,-1.1182,-0.953,-0.9482,-1.1076,-1.3948,-1.7653,-1.8324,-1.9789,-2.1636,-2.1243,-2.1256,-2.1475,-2.1203,-2.0716,-1.9801,-1.6915,-1.3872,-1.1108,-1.0784,-1.0684,-1.0684,-1.0684,-1.0684,-1.0684,-1.0684,-1.0684,-1.0684,-1.0684,-1.0609,-1.0521,-1.0649,-1.048,-1.0322,-1.0331,-1.0249,-1.012,-0.9934,-0.9758,-0.9605,-0.9415,0.0,0.0,0.0,0.0,0.0,0.0,0.0,-0.7773,-0.7773,-0.7794,-0.7801,-0.7773,-0.7773,-0.7706,-0.7529,-0.759,-0.7678,0.0,0.0,-0.8045,0.0,-0.8655,-0.8927,0.0,0.0,-0.9415,-0.946,-0.9367,-0.932,-0.9369,-0.9369,-0.9442,-0.9664,-1.0973,-1.163,-1.1916,-1.3489,-1.32,-1.1798,-1.2157,-1.1482,-1.0351,-1.0622,-1.0684,-1.0684,-2.0493,-2.2074,-2.3472,-2.372,-2.6078,-2.8391,-2.9662,-3.0517,-3.122,-3.1669,-3.1076,-3.1042,-3.216,-3.1812,-3.1453,-3.1277,-3.1365,-3.0736,-2.9169,-2.8854,-2.8933,-2.9437,-2.6283,-2.5879,-2.8745,-2.3107,-2.1097,-2.305,0.0,0.0,-1.3985,-1.2771,-1.1713,-1.0961,-1.3551,-1.603,-1.8344,-1.9105,-2.0354,-2.1796,-2.1617,-2.1596,-2.1569,-2.1422,-2.0688,-1.9419,-1.6818,-1.4232,-1.1927,-1.1016,-1.0684,-1.0684,-1.0684,-1.0684,-1.0684,-1.0684,-1.0684,-1.0684,-1.0684,-1.0663,-1.0629,-1.0671,-1.0616,-1.0507,-1.0493,-1.0439,-1.0324,-1.0069,-0.9961,-0.9792,-0.9449,-0.9015,0.0,0.0,0.0,0.0,0.0,0.0,-0.8133,-0.8058,-0.8052,-0.8018,-0.7912,-0.8004,-0.7923,-0.7624,-0.7716,-0.7797,-0.7814,0.0,-0.8099,0.0,0.0,0.0,-0.9288,0.0,-0.9571,-0.949,-0.9444,-0.9422,-0.9496,-0.9496,-1.0022,-1.0995,-1.1913,-1.281,-1.3716,-1.45,-1.4952,-1.4983,-1.3345,-1.2328,-1.1683,-1.0965,-1.0684,-1.0684,-2.4303,-2.6031,-2.7722,-2.8791,-3.0247,-3.1543,-3.246,-3.341,-3.3561,-3.2385,-3.1917,-3.169,-3.169,-3.2719,-3.2548,-3.0343,-3.2082,-3.2303,-2.9942,-3.1486,-3.2126,-3.1263,-2.8594,-2.761,-2.8668,-2.4639,-2.239,0.0,0.0,0.0,0.0,-1.4238,-1.4113,-1.3223,-1.5895,-1.7749,-1.895,-2.024,-2.1269,-2.2071,-2.2004,-2.1877,-2.1676,-2.1609,-2.0548,-1.8832,-1.7076,-1.5557,-1.4134,-1.238,-1.1306,-1.0684,-1.0684,-1.0684,-1.0684,-1.0684,-1.0684,-1.0684,-1.0684,-1.0684,-1.0684,-1.0684,-1.0684,-1.0657,-1.0568,-1.0541,-1.0466,-1.0163,-1.0062,-0.99,-0.9544,-0.9157,0.0,0.0,0.0,0.0,0.0,0.0,-0.8492,0.0,0.0,0.0,-0.8027,-0.8147,-0.8072,-0.7719,-0.7885,-0.7959,-0.7844,0.0,0.0,0.0,0.0,-0.9165,-0.9226,0.0,-0.972,-0.9523,-0.949,-0.9537,-0.9652,-0.9652,-1.0621,-1.2315,-1.2878,-1.4252,-1.61,-1.61,-1.6819,-1.7583,-1.4495,-1.3228,-1.2902,-1.1282,-1.0684,-1.0684,-2.7554,-2.8545,-2.9476,-3.0132,-3.1671,-3.2768,-3.2621,-3.3534,-3.4229,-3.4095,-3.3561,-3.32,-3.32,-3.3334,-3.3314,-3.305,-3.3024,-3.2901,-3.2627,-3.2306,-3.1864,-3.1249,-3.0153,-2.9397,-2.8975,-2.6745,-2.4919,0.0,0.0,-1.7739,0.0,0.0,0.0,-1.6143,-1.6984,-1.836,0.0,-2.0761,-2.1577,-2.2352,-2.2084,-2.1964,-2.1957,-2.1689,-2.1299,-2.0621,-1.8864,-1.8148,-1.7763,-1.601,-1.3325,-1.0684,-1.0684,-1.0684,-1.0684,-1.0684,-1.0684,-1.0684,-1.0684,-1.0684,-1.0684,-1.0684,-1.0684,-1.0684,-1.0671,-1.0664,-1.0649,-1.0487,-1.0204,-0.9961,-0.9785,-0.9639,-0.9366,0.0,0.0,0.0,0.0,0.0,-0.8587,-0.8328,0.0,0.0,-0.8027,-0.8027,-0.802,-0.7973,-0.7975,-0.7982,-0.7993,0.0,0.0,-0.8308,-0.8723,-0.9089,-0.9383,-0.9666,-0.9846,-0.9954,-0.9812,-0.9758,-0.9771,-0.9771,-1.0784,-1.2646,-1.4131,-1.666,-1.972,-1.972,-1.899,-1.773,-1.5919,-1.4362,-1.2902,-1.1282,-1.0684,-1.0684,-2.9887,-3.0007,-3.052,-3.1957,-3.2345,-3.2772,-3.3785,-3.3988,-3.4055,-3.4055,-3.3681,-3.3414,-3.3414,-3.3414,-3.3414,-3.3414,-3.3146,-3.2906,-3.2781,-3.2332,-3.1757,-3.0996,-3.0461,-2.982,-2.9015,-2.7535,-2.6145,0.0,0.0,0.0,0.0,0.0,0.0,0.0,0.0,-2.0006,-2.1069,-2.1643,-2.2065,-2.2411,-2.2686,-2.2565,-2.2218,-2.1924,-2.1662,-2.1157,-1.9212,-1.8512,-1.8212,-1.6496,-1.4972,-1.3807,-1.3807,-1.3095,-1.2479,-1.3513,-1.3095,-1.2479,-1.3554,-1.3807,-1.3807,-1.3807,-1.3029,-1.2248,-1.2248,-1.1439,-1.0677,-1.0521,-1.0224,-1.0001,-0.994,-0.9693,-0.9469,-0.944,0.0,0.0,0.0,0.0,0.0,-0.8445,0.0,-1.0128,-0.927,-0.9188,-0.9274,-0.9425,-0.8535,-0.7988,0.0,0.0,0.0,-0.8294,0.0,-0.9007,-0.9274,-0.9625,-0.9819,-0.9879,-0.9913,-0.9927,-0.9934,-1.0053,-1.1103,-1.3038,-1.5701,-1.7742,-1.9243,-2.0129,-2.0217,-1.9631,-1.7759,-1.6117,-1.4567,-1.2873,-1.1604,-1.0698,-3.1623,-3.141,-3.173,-3.3627,-3.336,-3.328,-3.4456,-3.4202,-3.3855,-3.3761,-3.3547,-3.3414,-3.3414,-3.3334,-3.332,-3.34,-3.3066,-3.2808,-3.2607,-3.2265,-3.1704,-3.0835,-3.0434,-2.986,-2.9015,-2.7963,-2.6814,-2.5638,-2.4245,0.0,0.0,0.0,0.0,0.0,-2.1141,-2.1529,-2.1877,-2.2432,-2.2652,-2.2692,-2.3118,-2.2932,-2.2392,-2.2191,-2.197,-2.1514,-2.005,-1.9524,-1.935,-1.8028,-1.7573,-1.7368,-1.6258,-1.4712,-1.3643,-1.5394,-1.4726,-1.3829,-1.5558,-1.6047,-1.6047,-1.6047,-1.5052,-1.3938,-1.3423,-1.2347,-1.1278,-1.068,-1.0326,-1.0163,-1.0204,-0.9917,-0.9686,-0.9771,0.0,0.0,0.0,-1.0153,0.0,-0.9035,-1.0703,-1.1595,-1.0665,-1.0215,-1.0079,-1.0313,-0.895,-0.8101,0.0,0.0,0.0,0.0,0.0,0.0,-0.9247,-0.9618,-0.9812,-0.9859,-0.9967,-1.0042,-1.012,-1.0802,-1.2131,-1.4029,-1.7029,-1.8705,-1.9343,-2.049,-2.1034,-2.0924,-1.8989,-1.7573,-1.6399,-1.4134,-1.2512,-1.1387,-3.2679,-3.2946,-3.3414,-3.491,-3.4923,-3.4643,-3.4362,-3.4068,-3.3774,-3.3454,-3.3414,-3.3414,-3.3414,-3.316,-3.3093,-3.3387,-3.2929,-3.2594,-3.2594,-3.2265,-3.1704,-3.0835,-3.0234,-2.9602,-2.9015,-2.815,-2.7121,-2.5998,0.0,0.0,-2.0071,0.0,-2.0302,-2.1609,-2.2479,-2.2672,-2.2411,-2.3025,-2.3278,-2.3278,-2.3292,-2.2932,-2.2385,-2.2418,-2.2231,-2.1977,-2.1977,-2.1977,-2.1891,-2.1643,-2.155,-2.087,-1.7087,-1.4712,-1.3643,-1.5394,-1.4894,-1.4163,-1.5916,-1.6379,-1.6379,-1.6379,-1.614,-1.5427,-1.3676,-1.3292,-1.2767,-1.1042,-1.0595,-1.0534,-1.0683,-1.0473,-1.0168,-0.9839,0.0,0.0,0.0,-1.0087,0.0,-1.0247,-1.1363,-1.2108,-1.1897,-1.073,-1.0045,-1.0197,-0.902,0.0,0.0,0.0,0.0,-0.8498,-0.875,0.0,-0.9403,-0.9673,-0.9866,-0.9984,-0.9984,-1.0096,-1.0347,-1.2227,-1.402,-1.579,-1.8007,-1.9794,-2.1104,-2.1462,-2.1408,-2.0919,-1.9183,-1.8468,-1.8052,-1.4591,-1.3292,-1.3029,-3.3467,-3.3601,-3.3814,-3.4482,-3.4362,-3.4135,-3.4042,-3.3761,-3.3521,-3.3427,-3.3414,-3.3414,-3.3414,-3.3334,-3.3227,-3.3133,-3.2808,-3.2514,-3.2251,-3.1784,-3.1289,-3.0808,-3.0234,-2.9602,-2.9015,-2.8564,-2.7829,-2.6894,0.0,0.0,0.0,-2.2695,-2.2872,-2.3121,-2.3603,-2.3728,-2.3647,-2.3848,-2.3688,-2.3292,-2.3292,-2.3086,-2.2733,-2.2498,-2.2231,-2.1991,-2.1991,-2.189,-2.1743,-2.185,-2.1743,-2.1407,-2.018,-1.8576,-1.7522,-1.9269,-1.875,-1.8017,-1.9721,-2.0092,-1.9955,-1.9955,-1.8797,-1.7538,-1.698,-1.5005,-1.28,-1.1049,-1.0602,-1.0507,-1.0555,-1.0412,-1.0654,-1.1752,-1.0851,0.0,-1.1905,0.0,-1.203,-1.1433,-1.3322,-1.4292,-1.3355,-1.3051,-1.295,-1.2983,-1.0975,0.0,0.0,0.0,0.0,0.0,-0.89,0.0,-0.941,-0.9744,-0.9967,-0.999,-1.0224,-1.1031,-1.2386,-1.321,-1.4538,-1.6283,-1.8368,-1.9541,-2.0026,-2.1123,-2.1529,-2.1358,-2.0572,-1.9546,-1.8384,-1.7248,-1.5394,-1.3369,-3.3828,-3.3881,-3.3975,-3.4269,-3.4082,-3.3881,-3.3881,-3.3614,-3.3414,-3.3414,-3.3414,-3.3414,-3.3414,-3.332,-3.3173,-3.2986,-3.2661,-3.2305,-3.2118,-3.1664,-3.1209,-3.0808,-3.0234,-2.9602,-2.9015,-2.8751,0.0,-2.763,-2.6894,-2.5932,-2.4793,-2.4823,-2.4807,-2.4633,-2.4663,-2.4636,-2.4529,-2.4409,-2.4022,-2.3487,-2.3487,-2.3247,-2.288,-2.2659,-2.2405,-2.2151,-2.2151,-2.2031,-2.1917,-2.1997,-2.197,-2.189,-2.1783,-2.1077,-2.0446,-2.1344,-2.0623,-1.9932,-2.1673,-2.1937,-2.1743,-2.1743,-2.0618,-1.9323,-1.864,-1.6302,-1.397,-1.2865,-1.258,-1.254,-1.254,-1.1911,-1.1978,-1.3676,-1.176,-1.0936,-1.3492,0.0,-1.2886,0.0,0.0,0.0,0.0,-1.4955,-1.4861,0.0,-1.2989,0.0,0.0,0.0,0.0,-0.8757,-0.9145,-0.9478,-0.9743,-0.9998,-1.013,-1.0184,-1.1099,-1.2244,-1.3534,-1.4376,-1.5839,-1.775,-1.9011,-1.9932,-2.0601,-2.1509,-2.185,-2.1716,-2.1422,-2.0618,-1.9567,-1.8911,-1.7348,-1.549,-3.3801,-3.3855,-3.3935,-3.4215,-3.4028,-3.3855,-3.3855,-3.3601,-3.3414,-3.3414,-3.3414,-3.3414,-3.3414,-3.3133,-3.2946,-3.2946,-3.2425,-3.2091,-3.2078,-3.1784,-3.1417,-3.0822,-3.0194,-2.9548,-2.9001,-2.8738,-2.843,-2.8179,-2.7321,-2.676,-2.6466,-2.6225,-2.6078,-2.6038,-2.5665,-2.5358,-2.509,-2.4719,-2.4289,-2.383,-2.379,-2.3429,-2.292,-2.2907,-2.2672,-2.2385,-2.2445,-2.2432,-2.2378,-2.2124,-2.2218,-2.2378,-2.2098,-2.2205,-2.2311,-2.181,-2.0788,-2.0197,-2.196,-2.2065,-2.1707,-2.1958,-2.155,-2.0652,-1.8896,-1.7248,-1.601,-1.5751,-1.5816,-1.5848,-1.5751,-1.4493,-1.4006,-1.562,-1.2827,-1.1369,-1.4041,0.0,0.0,0.0,0.0,0.0,-1.682,-1.6447,-1.5959,0.0,0.0,0.0,0.0,0.0,-0.9021,-0.9228,-0.9483,-0.9849,-1.0308,-1.0322,-1.0429,-1.0734,-1.2604,-1.3732,-1.4256,-1.5909,-1.7894,-2.0029,-2.0075,-2.0971,-2.2451,-2.2425,-2.2271,-2.1991,-2.1729,-2.1609,-2.1421,-1.9805,-1.912,-1.8827,-3.3507,-3.3521,-3.3547,-3.3614,-3.3574,-3.3521,-3.3521,-3.3454,-3.3414,-3.3414,-3.3414,-3.3414,-3.3414,-3.3009,-3.2701,-3.2701,-3.2318,-3.2011,-3.1831,-3.1289,-3.0942,-3.0795,-2.9793,-2.9135,-2.9001,-2.8524,-2.8259,-2.8179,-2.7978,-2.7724,-2.7388,-2.7135,-2.6881,-2.6587,-2.5838,-2.5478,-2.5358,-2.4623,-2.4222,-2.4062,-2.3607,-2.334,-2.3193,-2.2987,-2.2672,-2.2411,-2.2672,-2.2605,-2.2445,-2.2639,-2.2552,-2.2371,-2.2338,-2.2365,-2.2392,-2.2258,-2.1162,-2.0417,-2.2261,-2.0452,-1.8665,-2.1323,-2.155,-2.0652,-1.8896,-1.818,-1.7141,-1.446,-1.4972,-1.5492,-1.4166,-1.4688,-1.5778,-1.7278,-1.536,-1.457,-1.7088,-1.6066,-1.5448,0.0,-1.7318,-1.7782,-1.7702,-1.762,-1.7575,0.0,0.0,-1.527,-1.4926,-1.3796,-1.2032,-0.9584,-0.9758,-1.0021,-1.0308,-1.0385,-1.1189,-1.2677,-1.4687,-1.6519,-1.8095,-1.897,-2.0509,-2.2488,-2.2732,-2.2929,-2.3065,-2.2859,-2.2579,-2.2285,-2.1991,-2.1783,-2.1577,-2.1365,-2.0364,-1.9129,-3.3414,-3.3414,-3.3414,-3.3414,-3.3414,-3.3414,-3.3414,-3.3414,-3.3414,-3.3414,-3.3414,-3.336,-3.3227,-3.2862,-3.2541,-3.2407,-3.2078,-3.1784,-3.149,-3.1049,-3.0742,-3.0595,-2.986,-2.9268,-2.9001,-2.8724,-2.846,-2.8179,-2.8179,-2.8098,-2.7938,-2.7602,-2.7308,-2.6987,-2.6253,-2.5838,-2.5665,-2.4917,-2.4529,-2.4319,-2.3768,-2.3447,-2.3252,-2.3014,-2.2672,-2.2411,-2.2605,-2.2552,-2.2445,-2.2605,-2.2645,-2.2483,-2.162,-2.1335,-2.1189,-2.0395,-2.0143,-2.0537,-2.2536,-2.0014,-1.737,-1.9868,-2.0786,-2.0856,-1.9909,-1.9674,-1.8932,-1.6306,-1.7217,-1.7932,-1.6098,-1.6504,-1.7511,-1.8858,-1.6491,-1.5455,-1.8139,-1.6937,-1.6281,-1.7622,-1.829,-1.8651,-1.8651,-1.9011,-1.9092,-1.8718,-1.8213,0.0,-1.6561,-1.6322,-1.491,-1.2073,-1.2381,-1.2676,-1.2868,-1.2928,-1.355,-1.473,-1.6795,-1.8485,-1.9844,-2.1101,-2.2412,-2.3692,-2.3754,-2.371,-2.35,-2.3207,-2.2899,-2.2592,-2.2298,-2.2084,-2.1964,-2.2124,-2.1532,-2.0722,-3.3414,-3.3414,-3.3414,-3.3414,-3.3414,-3.3414,-3.3414,-3.3414,-3.3414,-3.3414,-3.3414,-3.3293,-3.3013,-3.2768,-3.2474,-3.2131,-3.1837,-3.1543,-3.1203,-3.0955,-3.0648,-3.036,-2.9967,-2.9526,-2.8948,-2.8881,-2.8657,-2.8179,-2.8179,-2.8179,-2.8179,-2.7843,-2.7549,-2.7282,-2.6653,-2.6265,-2.5957,-2.5369,-2.493,-2.4613,-2.4075,-2.3688,-2.3385,-2.3073,-2.2779,-2.2518,-2.2498,-2.2485,-2.2485,-2.2485,-2.2659,-2.2619,-2.1059,-2.0573,-2.0238,-1.8567,-1.8872,-2.0215,-2.2304,-2.0062,-1.7308,-1.7829,-1.9156,-2.0322,-2.0322,-2.0329,-1.9875,-1.8265,-1.9687,-2.0636,-1.8671,-1.8624,-1.9171,-2.0046,-1.7239,-1.5737,-1.8156,0.0,-1.6919,-1.8445,-1.9254,-1.9682,-1.9722,-2.0324,-2.0294,-1.9386,-2.008,-1.9694,-1.7689,-1.8177,-1.7692,-1.5804,-1.5742,-1.5805,-1.5964,-1.6287,-1.6564,-1.6861,-1.8952,-2.0059,-2.0365,-2.2154,-2.3135,-2.3362,-2.3419,-2.3432,-2.3402,-2.3373,-2.3207,-2.2934,-2.2605,-2.2425,-2.2418,-2.2472,-2.2458,-2.2458,-3.3414,-3.3414,-3.3414,-3.3414,-3.3414,-3.3414,-3.3414,-3.3414,-3.3414,-3.3414,-3.3414,-3.3293,-3.3013,-3.2768,-3.2474,-3.2131,-3.1837,-3.1543,-3.1203,-3.0955,-3.0555,-3.0007,-2.9415,-2.8975,-2.8684,-2.846,-2.8272,-2.8179,-2.8179,-2.8179,-2.8179,-2.7843,-2.7549,-2.7282,-2.6653,-2.6265,-2.5957,-2.5369,-2.505,-2.4957,-2.4369,-2.4115,-2.4008,-2.346,-2.322,-2.3118,-2.2886,-2.2827,-2.2827,-2.2827,-2.2853,-2.2913,-2.2819,-2.2793,-2.2534,-2.1064,-1.9482,-1.8594,-2.032,-1.991,-1.8262,-1.5291,-1.5655,-1.6722,-1.6722,-1.6783,-1.6371,-1.4663,-1.7109,-1.8926,-1.6883,-1.8818,-2.0595,-2.026,-1.907,-1.8233,-1.8475,0.0,-1.8636,-1.9199,-2.0187,-2.0935,-2.1221,-2.0927,-2.0833,-2.1154,-2.0401,-2.0003,-2.0134,-2.044,-2.049,-2.0127,-1.7352,-1.6006,-1.6328,-1.8017,-1.8871,-1.8951,-2.1251,-2.1634,-2.0333,-2.1138,-2.0771,-1.9575,-2.1235,-2.181,-2.1691,-2.3129,-2.3527,-2.322,-2.2913,-2.2645,-2.2411,-2.2733,-2.2632,-2.2458,-3.3414,-3.3414,-3.3414,-3.3414,-3.3414,-3.3414,-3.3414,-3.3414,-3.3414,-3.3414,-3.3414,-3.324,-3.2848,-3.2674,-3.2407,-3.1904,-3.1597,-3.1303,-3.1009,-3.0862,-3.0528,-2.994,-2.9615,-2.9255,-2.8845,-2.8419,-2.8179,-2.8179,-2.8179,-2.8179,-2.8179,-2.8045,-2.7737,-2.7296,-2.7028,-2.6653,-2.6185,-2.5558,-2.5411,-2.5516,-2.4569,-2.4302,-2.4332,-2.3794,-2.3474,-2.3278,-2.3166,-2.3006,-2.2893,-2.2893,-2.3014,-2.2953,-2.2058,-2.1903,-2.1698,-2.0098,-1.9519,-1.9098,-1.7678,-1.9103,-2.0093,-1.6343,-1.6543,-1.7401,-1.64,-1.6215,-1.5788,-1.4122,-1.5977,-1.73,-1.5341,-1.762,-1.9678,-1.9249,-1.9013,0.0,-1.9172,-1.9172,-1.9386,-2.003,-2.086,-2.1502,-2.1796,-2.1569,-2.1462,-2.1582,-2.1074,-2.09,-2.1167,-2.1301,-2.1448,-2.1577,-2.0013,-1.9245,-1.9397,-2.0336,-2.0871,-2.1023,-2.2443,-2.2186,-2.053,-2.1154,-2.0392,-1.8648,-1.9591,-1.9799,-1.9598,-2.0315,-2.1043,-2.1672,-2.1468,-2.1911,-2.2672,-2.284,-2.2813,-2.2536,-3.3414,-3.3414,-3.3414,-3.3414,-3.3414,-3.3414,-3.3414,-3.3414,-3.3414,-3.3414,-3.3414,-3.3187,-3.2661,-3.2594,-3.2353,-3.1764,-3.1463,-3.1183,-3.0808,-3.0795,-3.0501,-2.9847,-2.9686,-2.9392,-2.8908,-2.846,-2.8179,-2.8179,-2.8179,-2.8179,-2.8179,-2.8179,-2.7871,-2.7309,-2.7309,-2.6934,-2.636,-2.5838,-2.5705,-2.581,-2.4796,-2.4502,-2.4546,-2.4062,-2.3728,-2.3492,-2.346,-2.3233,-2.3014,-2.3081,-2.318,-2.306,-2.1776,-2.152,-2.133,-1.9582,-1.9889,-2.003,-1.6457,-1.863,-2.1132,-1.7779,-1.7805,-1.8139,-1.6277,-1.5876,-1.5406,-1.3745,-1.4954,-1.5854,-1.4275,-1.6292,-1.8093,-1.7734,0.0,-1.8719,-1.9231,-1.9523,-2.0003,-2.082,-2.1435,-2.1903,-2.2198,-2.2124,-2.2024,-2.1796,-2.1729,-2.1689,-2.1689,-2.1756,-2.1917,-2.2211,-2.2124,-2.2084,-2.2084,-2.2231,-2.2378,-2.2525,-2.3172,-2.2268,-2.0007,-2.0615,-1.9553,-1.7208,-1.7663,-1.7718,-1.7506,-1.7796,-1.8636,-1.9716,-1.9504,-2.0294,-2.1562,-2.1562,-2.1562,-2.139,-3.3414,-3.3414,-3.3414,-3.3414,-3.3414,-3.3414,-3.3414,-3.3414,-3.3414,-3.3414,-3.3414,-3.3187,-3.2661,-3.2594,-3.2353,-3.1764,-3.1698,-3.1443,-3.0835,-3.0795,-3.0408,-2.9553,-2.8991,-2.8684,-2.8644,-2.8353,-2.8179,-2.8179,-2.8179,-2.8179,-2.8179,-2.8179,-2.7871,-2.7309,-2.7309,-2.6934,-2.6373,-2.6091,-2.5824,-2.5518,-2.5157,-2.4863,-2.4572,-2.4289,-2.4155,-2.4102,-2.3834,-2.3541,-2.334,-2.3643,-2.3541,-2.3385,-2.3775,-2.3925,-2.3627,-2.1867,-2.1279,-2.0692,-1.8456,-1.9129,-1.9981,-1.7952,-1.7203,-1.6479,-1.459,-1.4285,-1.3823,-1.198,-1.3345,-1.4675,-1.4116,-1.5515,-1.656,-1.5992,0.0,0.0,-1.7732,-1.9407,-2.0833,-2.1448,-2.2004,-2.2472,-2.28,-2.2552,-2.2345,-2.2352,-2.2111,-2.1984,-2.1984,-2.2205,-2.2485,-2.2827,-2.2525,-2.2392,-2.2392,-2.2905,-2.31,-2.288,-2.3728,-2.1934,-1.7925,-1.8557,-1.6675,-1.3035,-1.4935,-1.5722,-1.5794,-1.7303,-1.7958,-1.8016,-1.7597,-1.7493,-1.7634,-1.7634,-1.7634,-1.7599,-3.3414,-3.3414,-3.3414,-3.3414,-3.3414,-3.3414,-3.3414,-3.3414,-3.3414,-3.3414,-3.3253,-3.2986,-3.2634,-3.2433,-3.2104,-3.1751,-3.1503,-3.1223,-3.0822,-3.0621,-3.0287,-2.978,-2.9192,-2.8828,-2.8828,-2.8433,-2.8179,-2.8179,-2.8179,-2.8179,-2.8179,-2.8179,-2.7965,-2.7522,-2.7389,-2.7081,-2.6627,-2.6198,-2.6038,-2.5999,-2.5344,-2.5117,-2.5144,-2.485,-2.4516,-2.4209,-2.4289,-2.4008,-2.3621,-2.3763,-2.3821,-2.3915,-2.4128,-2.4329,-2.4306,-2.3647,-2.3386,-2.3124,-2.235,-2.2292,-2.2021,-2.0094,-1.9338,-1.8593,-1.6717,-1.6187,-1.5868,-1.5131,-1.5818,-1.6109,-1.4712,-1.5812,-1.6564,-1.5285,0.0,-1.6568,-1.713,-1.878,-2.012,-2.0739,-2.2268,-2.3233,-2.3153,-2.3012,-2.2945,-2.2945,-2.2699,-2.2733,-2.3108,-2.3193,-2.322,-2.3153,-2.3012,-2.2886,-2.2699,-2.3113,-2.326,-2.3153,-2.3861,-2.2688,-1.9867,-2.0273,-1.8301,-1.4563,-1.5207,-1.4846,-1.381,-1.4233,-1.5054,-1.6012,-1.575,-1.628,-1.7213,-1.7213,-1.7213,-1.7037,-3.3414,-3.3414,-3.3414,-3.3414,-3.3414,-3.3414,-3.3414,-3.3414,-3.3414,-3.3414,-3.316,-3.2915,-3.2621,-3.2278,-3.1984,-3.1738,-3.149,-3.1209,-3.0822,-3.0434,-3.0127,-2.9927,-2.9402,-2.9095,-2.9001,-2.8551,-2.8286,-2.8179,-2.8179,-2.8179,-2.8179,-2.8179,-2.8031,-2.7682,-2.7443,-2.7094,-2.6787,-2.6346,-2.6198,-2.6199,-2.5636,-2.5411,-2.5491,-2.5291,-2.497,-2.4623,-2.4743,-2.4462,-2.4035,-2.4035,-2.4115,-2.4222,-2.4315,-2.4439,-2.4599,-2.4599,-2.4599,-2.4599,-2.4599,-2.4342,-2.372,-2.2294,-2.1735,-2.103,-1.9129,-1.8535,-1.8205,-1.7602,-1.7704,-1.7438,-1.604,-1.6219,-1.6209,-1.4964,-1.5052,-1.5518,-1.6195,-1.7708,-1.9158,-2.0296,-2.1853,-2.2999,-2.3417,-2.3474,-2.3474,-2.3474,-2.3308,-2.3362,-2.379,-2.3803,-2.3674,-2.3474,-2.3345,-2.322,-2.3041,-2.3313,-2.3385,-2.3305,-2.4022,-2.3292,-2.1343,-2.1519,-1.9833,-1.6781,-1.5893,-1.4777,-1.352,-1.2654,-1.298,-1.4022,-1.3848,-1.4457,-1.5425,-1.5425,-1.5425,-1.5248,-3.3414,-3.3414,-3.3414,-3.3414,-3.3414,-3.3414,-3.3414,-3.3414,-3.3414,-3.3414,-3.316,-3.2915,-3.2621,-3.2278,-3.1984,-3.1738,-3.1711,-3.1423,-3.0835,-3.0234,-2.9913,-2.9913,-2.9633,-2.9352,-2.9001,-2.8764,-2.8457,-2.8192,-2.8192,-2.8192,-2.8192,-2.8179,-2.8031,-2.7682,-2.7443,-2.7108,-2.6814,-2.652,-2.6265,-2.5998,-2.5998,-2.5824,-2.5518,-2.5518,-2.5518,-2.5478,-2.5184,-2.489,-2.4613,-2.4599,-2.4412,-2.4262,-2.4506,-2.4599,-2.4599,-2.4599,-2.4599,-2.4599,-2.4599,-2.4599,-2.4532,-2.4275,-2.3981,-2.3291,-2.1378,-2.0922,-2.0382,-1.8534,-1.8261,-1.8316,-1.8138,-1.661,-1.5246,-1.4952,-1.4639,-1.4494,-1.4692,-1.6191,-1.814,-2.0406,-2.0658,-2.1498,-2.359,-2.3781,-2.3781,-2.3817,-2.3817,-2.3817,-2.3803,-2.3817,-2.3817,-2.3803,-2.3487,-2.3305,-2.3292,-2.3621,-2.3621,-2.3305,-2.4186,-2.3574,-2.1639,-2.1639,-2.0676,-1.8886,-1.6536,-1.5501,-1.534,-1.3177,-1.2241,-1.2084,-1.1891,-1.1705,-1.1584,-1.1584,-1.1584,-1.1584,-3.3414,-3.3414,-3.3414,-3.3414,-3.3414,-3.3414,-3.3414,-3.3414,-3.3414,-3.3414,-3.2986,-3.2688,-3.2607,-3.2152,-3.1677,-3.1383,-3.1356,-3.1102,-3.0574,-2.994,-2.97,-2.9913,-2.9633,-2.9446,-2.9352,-2.9058,-2.8815,-2.8764,-2.8564,-2.847,-2.847,-2.8286,-2.8138,-2.8045,-2.7696,-2.7415,-2.7108,-2.6814,-2.6533,-2.6239,-2.6078,-2.5944,-2.5864,-2.5864,-2.5692,-2.5504,-2.5411,-2.5331,-2.5184,-2.4733,-2.4716,-2.4796,-2.4639,-2.4746,-2.4903,-2.4666,-2.4783,-2.4903,-2.4653,-2.4599,-2.4572,-2.4492,-2.4289,-2.3931,-2.3362,-2.3063,-2.2778,-2.2228,-2.2296,-2.2007,-2.0523,-1.9896,-1.9075,-1.7542,-1.6009,-1.5105,-1.524,-1.5708,-1.6334,-1.715,-1.8434,-1.9955,-2.1789,-2.1995,-2.2628,-2.4246,-2.4569,-2.4539,-2.4102,-2.4262,-2.4289,-2.4075,-2.3995,-2.3848,-2.3647,-2.3763,-2.3763,-2.3647,-2.4529,-2.4644,-2.4056,-2.4056,-2.3051,-2.1184,-1.8734,-1.691,-1.5532,-1.3337,-1.2329,-1.2091,-1.205,-1.1843,-1.1584,-1.1584,-1.1584,-1.1597,-3.3267,-3.3334,-3.3374,-3.3253,-3.3334,-3.3414,-3.3414,-3.332,-3.324,-3.324,-3.2732,-3.242,-3.242,-3.1992,-3.1557,-3.1249,-3.1022,-3.0742,-3.0426,-2.9913,-2.9726,-2.9913,-2.9753,-2.9606,-2.9486,-2.9312,-2.9098,-2.8828,-2.8698,-2.8537,-2.846,-2.8272,-2.8179,-2.8165,-2.7829,-2.7535,-2.7282,-2.6947,-2.6653,-2.6373,-2.6238,-2.6172,-2.6172,-2.6172,-2.6012,-2.5838,-2.5732,-2.5692,-2.5598,-2.501,-2.493,-2.5024,-2.4693,-2.4917,-2.517,-2.4719,-2.485,-2.501,-2.4679,-2.4599,-2.4599,-2.4599,-2.4466,-2.4369,-2.4369,-2.4235,-2.4115,-2.4115,-2.4249,-2.4003,-2.2755,-2.1969,-2.1059,-1.9824,-1.8018,-1.68,-1.689,-1.687,-1.6916,-1.7043,-1.7979,-1.9011,-2.0069,-2.0221,-2.1213,-2.3505,-2.464,-2.509,-2.4743,-2.4783,-2.4783,-2.473,-2.4382,-2.4168,-2.4115,-2.3995,-2.3977,-2.3991,-2.4716,-2.5144,-2.5213,-2.4391,-2.3921,-2.3528,-1.9373,-1.7402,-1.6811,-1.3825,-1.242,-1.2186,-1.2186,-1.2006,-1.1796,-1.1796,-1.1796,-1.1809,-3.3066,-3.3227,-3.332,-3.3026,-3.32,-3.336,-3.3334,-3.3106,-3.2933,-3.2933,-3.2452,-3.2104,-3.2104,-3.1837,-3.1557,-3.1249,-3.0702,-3.04,-3.0373,-3.0047,-2.9887,-2.9913,-2.9887,-2.9766,-2.9526,-2.9526,-2.9245,-2.8684,-2.8657,-2.8484,-2.8219,-2.8205,-2.8179,-2.8179,-2.7898,-2.7562,-2.7282,-2.6974,-2.668,-2.6386,-2.6386,-2.64,-2.6426,-2.64,-2.64,-2.6386,-2.6105,-2.6011,-2.5944,-2.5382,-2.5117,-2.5037,-2.4759,-2.5066,-2.5438,-2.4839,-2.493,-2.509,-2.4759,-2.4679,-2.4666,-2.4653,-2.4639,-2.4639,-2.4613,-2.4599,-2.4599,-2.4599,-2.4599,-2.4599,-2.4599,-2.3141,-2.1887,-2.1863,-2.0412,-1.9311,-1.9311,-1.9157,-1.9052,-1.9072,-1.865,-1.8443,-1.8633,-1.895,-2.0015,-2.2133,-2.4316,-2.5545,-2.5518,-2.5264,-2.5237,-2.5504,-2.4743,-2.4449,-2.4679,-2.4449,-2.4275,-2.4209,-2.4637,-2.4986,-2.516,-2.3031,-2.3293,-2.5049,-1.873,-1.7039,-1.8395,-1.4352,-1.2556,-1.2291,-1.2291,-1.2234,-1.2098,-1.2098,-1.2098,-1.2098,-3.3334,-3.3374,-3.332,-3.3026,-3.3026,-3.3,-3.2822,-3.2728,-3.2688,-3.2688,-3.2332,-3.2104,-3.2104,-3.1837,-3.1557,-3.1249,-3.0702,-3.0306,-3.0034,-2.974,-2.9673,-2.99,-2.97,-2.9659,-2.982,-2.982,-2.9646,-2.9299,-2.9058,-2.8791,-2.8497,-2.8299,-2.8179,-2.8179,-2.8112,-2.7791,-2.7309,-2.7242,-2.6907,-2.6386,-2.6386,-2.6533,-2.6707,-2.648,-2.6533,-2.6653,-2.6185,-2.6145,-2.6239,-2.5931,-2.5503,-2.5104,-2.5277,-2.5571,-2.5824,-2.5424,-2.5531,-2.5743,-2.5411,-2.528,-2.5264,-2.5037,-2.4983,-2.4917,-2.4653,-2.4599,-2.4599,-2.4599,-2.4599,-2.4599,-2.4599,-2.4438,-2.4255,-2.3983,-2.2723,-2.1692,-2.1588,-2.0248,-1.9376,-1.952,-1.7856,-1.7343,-1.8932,-2.075,-2.1983,-2.2272,-2.4546,-2.5797,-2.5518,-2.5451,-2.5451,-2.5504,-2.5331,-2.5264,-2.528,-2.5264,-2.489,-2.4172,-2.3342,-2.2947,-2.293,-2.0998,-2.0385,-2.0744,-1.7435,-1.6184,-1.6285,-1.3733,-1.2556,-1.2291,-1.2291,-1.2234,-1.2098,-1.2098,-1.2098,-1.2118,-3.3053,-3.3213,-3.3227,-3.2666,-3.2786,-3.2929,-3.2634,-3.2474,-3.238,-3.238,-3.2078,-3.1891,-3.1891,-3.1757,-3.149,-3.1062,-3.0667,-3.0279,-2.994,-2.978,-2.97,-2.9713,-2.9566,-2.9486,-2.9455,-2.9633,-2.9566,-2.9272,-2.9068,-2.8818,-2.8419,-2.8259,-2.8179,-2.8179,-2.8179,-2.7938,-2.7468,-2.7362,-2.7041,-2.6587,-2.644,-2.648,-2.6613,-2.66,-2.66,-2.66,-2.6426,-2.6332,-2.6198,-2.6051,-2.5797,-2.5543,-2.5504,-2.5812,-2.6118,-2.5638,-2.5718,-2.5931,-2.5598,-2.5518,-2.5478,-2.5331,-2.5291,-2.517,-2.4693,-2.4599,-2.4599,-2.4599,-2.4599,-2.4639,-2.4823,-2.497,-2.5077,-2.5064,-2.4571,-2.4133,-2.4068,-2.3188,-2.2197,-2.1338,-2.004,-1.928,-1.9421,-2.148,-2.2753,-2.2701,-2.4865,-2.6092,-2.5945,-2.5798,-2.5785,-2.5932,-2.5665,-2.5585,-2.5718,-2.5585,-2.5277,-2.4799,-2.3243,-2.2416,-2.2195,-1.9414,-1.8669,-1.9514,-1.6209,-1.5217,-1.5845,-1.3699,-1.2664,-1.2393,-1.2393,-1.2338,-1.2271,-1.2271,-1.2271,-1.2284,-3.2768,-3.3053,-3.3133,-3.2251,-3.2545,-3.2835,-3.25,-3.2233,-3.2024,-3.2024,-3.1824,-3.1711,-3.1711,-3.1711,-3.1483,-3.0849,-3.0614,-3.0287,-2.994,-2.9873,-2.974,-2.9499,-2.9432,-2.9285,-2.9001,-2.9325,-2.9339,-2.9001,-2.9001,-2.8764,-2.8259,-2.8205,-2.8179,-2.8179,-2.8179,-2.8018,-2.7682,-2.7442,-2.7134,-2.676,-2.656,-2.6466,-2.648,-2.668,-2.6627,-2.6493,-2.668,-2.6413,-2.6011,-2.6118,-2.6078,-2.5971,-2.5785,-2.6039,-2.6293,-2.5798,-2.5838,-2.6011,-2.5732,-2.5665,-2.5651,-2.5598,-2.5585,-2.5451,-2.4866,-2.4746,-2.4733,-2.4679,-2.4706,-2.4813,-2.5037,-2.5195,-2.5342,-2.5545,-2.5879,-2.6145,-2.6145,-2.6145,-2.5492,-2.3763,-2.3011,-2.1906,-2.0076,-2.1749,-2.2861,-2.2682,-2.4652,-2.5699,-2.5391,-2.5123,-2.5281,-2.5884,-2.5387,-2.5425,-2.6065,-2.5785,-2.5665,-2.5626,-2.3683,-2.2447,-2.1708,-1.8186,-1.7384,-1.8607,-1.4953,-1.4249,-1.556,-1.3785,-1.2853,-1.2542,-1.2542,-1.2522,-1.2501,-1.2501,-1.2501,-1.2501,-3.2986,-3.3187,-3.3133,-3.2251,-3.2433,-3.2474,-3.1925,-3.1805,-3.173,-3.173,-3.1738,-3.1711,-3.1711,-3.1711,-3.1483,-3.0849,-3.0755,-3.0501,-2.9953,-2.9686,-2.9526,-2.9486,-2.9232,-2.9041,-2.9001,-2.9325,-2.9339,-2.9001,-2.9001,-2.8828,-2.8537,-2.8312,-2.8179,-2.8179,-2.8179,-2.8018,-2.7696,-2.7655,-2.7321,-2.6814,-2.6774,-2.676,-2.6734,-2.6533,-2.6587,-2.6734,-2.652,-2.6279,-2.6078,-2.6533,-2.6373,-2.6078,-2.6493,-2.652,-2.6373,-2.6293,-2.6293,-2.6319,-2.6279,-2.6266,-2.6213,-2.5998,-2.5931,-2.585,-2.5464,-2.5398,-2.5317,-2.5077,-2.5224,-2.5331,-2.5117,-2.5529,-2.5891,-2.5931,-2.6346,-2.6707,-2.6707,-2.6707,-2.6587,-2.6293,-2.4372,-2.2418,-2.0807,-2.2126,-2.2474,-2.1056,-2.2576,-2.2843,-2.1201,-2.1002,-2.1785,-2.3753,-2.3722,-2.4539,-2.6333,-2.6293,-2.6266,-2.6266,-2.4077,-2.1946,-1.9801,-1.7602,-1.5761,-1.4259,-1.3645,-1.3466,-1.3586,-1.3301,-1.2969,-1.2659,-1.2659,-1.2617,-1.2501,-1.2501,-1.2501,-1.2501,-3.2875,-3.2973,-3.2893,-3.2011,-3.2104,-3.2158,-3.1778,-3.1711,-3.1711,-3.1711,-3.1711,-3.161,-3.1436,-3.1276,-3.1076,-3.0808,-3.0648,-3.0301,-2.9713,-2.9553,-2.9339,-2.9005,-2.8871,-2.8711,-2.8537,-2.8831,-2.8925,-2.8804,-2.8921,-2.8804,-2.8393,-2.8245,-2.8179,-2.8179,-2.8179,-2.8112,-2.7978,-2.7762,-2.7549,-2.7295,-2.7134,-2.7068,-2.7054,-2.6974,-2.7001,-2.7028,-2.6734,-2.6547,-2.648,-2.6734,-2.676,-2.6747,-2.6787,-2.6734,-2.66,-2.644,-2.6386,-2.6426,-2.6587,-2.6507,-2.644,-2.668,-2.6479,-2.6292,-2.6453,-2.636,-2.6066,-2.5451,-2.5424,-2.5531,-2.5596,-2.5824,-2.6105,-2.6386,-2.6653,-2.6881,-2.7041,-2.7068,-2.7068,-2.7068,-2.6125,-2.5191,-2.4511,-2.3868,-2.3177,-2.243,-2.1871,-2.1179,-2.0345,-2.0254,-2.0661,-2.1656,-2.2946,-2.4061,-2.4942,-2.6262,-2.6921,-2.6881,-2.5926,-2.4049,-2.1439,-1.9371,-1.7261,-1.5193,-1.5193,-1.4445,-1.3214,-1.3214,-1.3091,-1.2861,-1.2861,-1.2766,-1.2644,-1.2725,-1.2705,-1.2644]},{"header":{"parameterUnit":"m.s-1","parameterCategory":1,"la1":30.6,"la2":28.766,"lo1":-90.7593,"lo2":-88.6598,"dy":0.0162,"dx":0.0183,"nx":116,"ny":114,"refTime":"2023-08-22T12:00:00:Z","depth":0,"parameterNumber":3,"parameterNumberName":"V-component_of_WINDS"},"data":[0.0,0.0,0.0,0.0,0.0,0.0,0.0,0.0,0.0,0.0,0.0,0.0,0.0,0.0,0.0,0.0,0.0,0.0,0.0,0.0,0.0,0.0,0.0,0.0,0.0,0.0,0.0,0.0,0.0,0.0,0.0,0.0,0.0,0.0,0.0,0.0,0.0,0.0,0.0,0.0,0.0,0.0,0.0,0.0,0.0,0.0,0.0,0.0,0.0,0.0,0.0,0.0,0.0,0.0,0.0,0.0,0.0,0.0,0.0,0.0,0.0,0.0,0.0,0.0,0.0,0.0,0.0,0.0,0.0,0.0,0.0,0.0,0.0,0.0,0.0,0.0,0.0,0.0,0.0,0.0,0.0,0.0,0.0,0.0,0.0,0.0,0.0,0.0,0.0,0.0,0.0,0.0,0.0,0.0,0.0,0.0,0.0,0.0,0.0,0.0,0.0,0.0,0.0,0.0,0.0,0.0,0.0,0.0,0.0,0.0,0.0,0.0,0.0,0.0,0.0,0.0,0.0,0.0,0.0,0.0,0.0,0.0,0.0,0.0,0.0,0.0,0.0,0.0,0.0,0.0,0.0,0.0,0.0,0.0,0.0,0.0,0.0,0.0,0.0,0.0,0.0,0.0,0.0,0.0,0.0,0.0,0.0,0.0,0.0,0.0,0.0,0.0,0.0,0.0,0.0,0.0,0.0,0.0,0.0,0.0,0.0,0.0,0.0,0.0,0.0,0.0,0.0,0.0,0.0,0.0,0.0,0.0,0.0,0.0,0.0,0.0,0.0,0.0,0.0,0.0,0.0,0.0,0.0,0.0,0.0,0.0,0.0,0.0,0.0,0.0,0.0,0.0,0.0,0.0,0.0,0.0,0.0,0.0,0.0,0.0,0.0,0.0,0.0,0.0,0.0,0.0,0.0,0.0,0.0,0.0,0.0,0.0,0.0,0.0,0.0,0.0,0.0,0.0,0.0,0.0,0.0,0.0,0.0,0.0,0.0,0.0,0.0,0.0,0.0,0.0,0.0,0.0,0.0,0.0,0.0,0.0,0.0,0.0,0.0,0.0,0.0,0.0,0.0,0.0,0.0,0.0,0.0,0.0,0.0,0.0,0.0,0.0,0.0,0.0,0.0,0.0,0.0,0.0,0.0,0.0,0.0,0.0,0.0,0.0,0.0,0.0,0.0,0.0,0.0,0.0,0.0,0.0,0.0,0.0,0.0,0.0,0.0,0.0,0.0,0.0,0.0,0.0,0.0,0.0,0.0,0.0,0.0,0.0,0.0,0.0,0.0,0.0,0.0,0.0,0.0,0.0,0.0,0.0,0.0,0.0,0.0,0.0,0.0,0.0,0.0,0.0,0.0,0.0,0.0,0.0,0.0,0.0,0.0,0.0,0.0,0.0,0.0,0.0,0.0,0.0,0.0,0.0,0.0,0.0,0.0,0.0,0.0,0.0,0.0,0.0,0.0,0.0,0.0,0.0,0.0,0.0,0.0,0.0,0.0,0.0,0.0,0.0,0.0,0.0,0.0,0.0,0.0,0.0,0.0,0.0,0.0,0.0,0.0,0.0,0.0,0.0,0.0,0.0,0.0,0.0,0.0,0.0,0.0,0.0,0.0,0.0,0.0,0.0,0.0,0.0,0.0,0.0,0.0,0.0,0.0,0.0,0.0,0.0,0.0,0.0,0.0,0.0,0.0,0.0,0.0,0.0,0.0,0.0,0.0,0.0,0.0,0.0,0.0,0.0,0.0,0.0,0.0,0.0,0.0,0.0,0.0,0.0,0.0,0.0,0.0,0.0,0.0,0.0,0.0,0.0,0.0,0.0,0.0,0.0,0.0,0.0,0.0,0.0,0.0,0.0,0.0,0.0,0.0,0.0,0.0,0.0,0.0,0.0,0.0,0.0,0.0,0.0,0.0,0.0,0.0,0.0,0.0,0.0,0.0,0.0,0.0,0.0,0.0,0.0,0.0,0.0,0.0,0.0,0.0,0.0,0.0,0.0,0.0,0.0,0.0,0.0,0.0,0.0,0.0,0.0,0.0,0.0,0.0,0.0,0.0,0.0,0.0,0.0,0.0,0.0,0.0,0.0,0.0,0.0,0.0,0.0,0.0,0.0,0.0,0.0,0.0,0.0,0.0,0.0,0.0,0.0,0.0,0.0,0.0,0.0,0.0,0.0,0.0,0.0,0.0,0.0,0.0,0.0,0.0,0.0,0.0,0.0,0.0,0.0,0.0,0.0,0.0,0.0,0.0,0.0,0.0,0.0,0.0,0.0,0.0,0.0,0.0,0.0,0.0,0.0,0.0,0.0,0.0,0.0,0.0,0.0,0.0,0.0,0.0,0.0,0.0,0.0,0.0,0.0,0.0,0.0,0.0,0.0,0.0,0.0,0.0,0.0,0.0,0.0,0.0,0.0,0.0,0.0,0.0,0.0,0.0,0.0,0.0,0.0,0.0,0.0,0.0,0.0,0.0,0.0,0.0,0.0,0.0,0.0,0.0,0.0,0.0,0.0,0.0,0.0,0.0,0.0,0.0,0.0,0.0,0.0,0.0,0.0,0.0,0.0,0.0,0.0,0.0,0.0,0.0,0.0,0.0,0.0,0.0,0.0,0.0,0.0,0.0,0.0,0.0,0.0,0.0,0.0,0.0,0.0,0.0,0.0,0.0,0.0,0.0,0.0,0.0,0.0,0.0,0.0,0.0,0.0,0.0,0.0,0.0,0.0,0.0,0.0,0.0,0.0,0.0,0.0,0.0,0.0,0.0,0.0,0.0,0.0,0.0,0.0,0.0,0.0,0.0,0.0,0.0,0.0,0.0,0.0,0.0,0.0,0.0,0.0,0.0,0.0,0.0,0.0,0.0,0.0,0.0,0.0,0.0,0.0,0.0,0.0,0.0,0.0,0.0,0.0,0.0,0.0,0.0,0.0,0.0,0.0,0.0,0.0,0.0,0.0,0.0,0.0,0.0,0.0,0.0,0.0,0.0,0.0,0.0,0.0,0.0,0.0,0.0,0.0,0.0,0.0,0.0,0.0,0.0,0.0,0.0,0.0,0.0,0.0,0.0,0.0,0.0,0.0,0.0,0.0,0.0,0.0,0.0,0.0,0.0,0.0,0.0,0.0,0.0,0.0,0.0,0.0,0.0,0.0,0.0,0.0,0.0,0.0,0.0,0.0,0.0,0.0,0.0,0.0,0.0,0.0,0.0,0.0,0.0,0.0,0.0,0.0,0.0,0.0,0.0,0.0,0.0,0.0,0.0,0.0,0.0,0.0,0.0,0.0,0.0,0.0,0.0,0.0,0.0,0.0,0.0,0.0,0.0,0.0,0.0,0.0,0.0,0.0,0.0,0.0,0.0,0.0,0.0,0.0,0.0,0.0,0.0,0.0,0.0,0.0,0.0,0.0,0.0,0.0,0.0,0.0,0.0,0.0,0.0,0.0,0.0,0.0,0.0,0.0,0.0,0.0,0.0,0.0,0.0,0.0,0.0,0.0,0.0,0.0,0.0,0.0,0.0,0.0,0.0,0.0,0.0,0.0,0.0,0.0,0.0,0.0,0.0,0.0,0.0,0.0,0.0,0.0,0.0,0.0,0.0,0.0,0.0,0.0,0.0,0.0,0.0,0.0,0.0,0.0,0.0,0.0,0.0,0.0,0.0,0.0,0.0,0.0,0.0,0.0,0.0,0.0,0.0,0.0,0.0,0.0,0.0,0.0,0.0,0.0,0.0,0.0,0.0,0.0,0.0,0.0,0.0,0.0,0.0,0.0,0.0,0.0,0.0,0.0,0.0,0.0,0.0,0.0,0.0,0.0,0.0,0.0,0.0,0.0,0.0,0.0,0.0,0.0,0.0,0.0,0.0,0.0,0.0,0.0,0.0,0.0,0.0,0.0,0.0,0.0,0.0,0.0,0.0,0.0,0.0,0.0,0.0,0.0,0.0,0.0,0.0,0.0,0.0,0.0,0.0,0.0,0.0,0.0,0.0,0.0,0.0,0.0,0.0,0.0,0.0,0.0,0.0,0.0,0.0,0.0,0.0,0.0,0.0,0.0,0.0,0.0,0.0,0.0,0.0,0.0,0.0,0.0,0.0,0.0,0.0,0.0,0.0,0.0,0.0,0.0,0.0,0.0,0.0,0.0,0.0,0.0,0.0,0.0,0.0,0.0,0.0,0.0,0.0,0.0,0.0,0.0,0.0,0.0,0.0,0.0,0.0,0.0,0.0,0.0,0.0,0.0,0.0,0.0,0.0,0.0,0.0,0.0,0.0,0.0,0.0,0.0,0.0,0.0,0.0,0.0,0.0,0.0,0.0,0.0,0.0,0.0,0.0,0.0,0.0,0.0,0.0,0.0,0.0,0.0,0.0,0.0,0.0,0.0,0.0,0.0,0.0,0.0,0.0,0.0,0.0,0.0,0.0,0.0,0.0,0.0,0.0,0.0,0.0,0.0,0.0,0.0,0.0,0.0,0.0,0.0,0.0,0.0,0.0,0.0,0.0,0.0,0.0,0.0,0.0,0.0,0.0,0.0,0.0,0.0,0.0,0.0,0.0,0.0,0.0,0.0,0.0,0.0,0.0,0.0,0.0,0.0,0.0,0.0,0.0,0.0,0.0,0.0,0.0,0.0,0.0,0.0,0.0,0.0,0.0,0.0,0.0,0.0,0.0,0.0,0.0,0.0,0.0,0.0,0.0,0.0,0.0,0.0,0.0,0.0,0.0,0.0,0.0,0.0,0.0,0.0,0.0,0.0,0.0,0.0,0.0,0.0,0.0,0.0,0.0,0.0,0.0,0.0,0.0,0.0,0.0,0.0,0.0,0.0,0.0,0.0,0.0,0.0,0.0,0.0,0.0,0.0,0.0,0.0,0.0,0.0,0.0,0.0,0.0,0.0,0.0,0.0,0.0,0.0,0.0,0.0,0.0,0.0,0.0,0.0,0.0,0.0,0.0,0.0,0.0,0.0,0.0,0.0,0.0,0.0,0.0,0.0,0.0,0.0,0.0,0.0,0.0,0.0,0.0,0.0,0.0,0.0,0.0,0.0,0.0,0.0,0.0,0.0,0.0,0.0,0.0,0.0,0.0,0.0,0.0,0.0,0.0,0.0,0.0,0.0,0.0,0.0,0.0,0.0,0.0,0.0,0.0,0.0,0.0,0.0,0.0,0.0,0.0,0.0,0.0,0.0,0.0,0.0,0.0,0.0,0.0,0.0,0.0,0.0,0.0,0.0,0.0,0.0,0.0,0.0,0.0,0.0,0.0,0.0,0.0,0.0,0.0,0.0,0.0,0.0,0.0,0.0,0.0,0.0,0.0,0.0,0.0,0.0,0.0,0.0,0.0,0.0,0.0,0.0,0.0,0.0,0.0,0.0,0.0,0.0,0.0,0.0,0.0,0.0,0.0,0.0,0.0,0.0,0.0,0.0,0.0,0.0,0.0,0.0,0.0,0.0,0.0,0.0,0.0,0.0,0.0,0.0,0.0,0.0,0.0,0.0,0.0,0.0,0.0,0.0,0.0,0.0,0.0,0.0,0.0,0.0,0.0,0.0,0.0,0.0,0.0,0.0,0.0,0.0,0.0,0.0,0.0,0.0,0.0,0.0,0.0,0.0,0.0,0.0,0.0,0.0,0.0,0.0,0.0,0.0,0.0,0.0,0.0,0.0,0.0,0.0,0.0,0.0,0.0,0.0,0.0,0.0,0.0,0.0,0.0,0.0,0.0,0.0,0.0,0.0,0.0,0.0,0.0,0.0,0.0,0.0,0.0,0.0,0.0,0.0,0.0,0.0,0.0,0.0,0.0,0.0,0.0,0.0,0.0,0.0,0.0,0.0,0.0,0.0,0.0,0.0,0.0,0.0,0.0,0.0,0.0,0.0,0.0,0.0,0.0,0.0,0.0,0.0,0.0,0.0,0.0,0.0,0.0,0.0,0.0,0.0,0.0,0.0,0.0,0.0,0.0,0.0,0.0,0.0,0.0,0.0,0.0,0.0,0.0,0.0,0.0,0.0,0.0,0.0,0.0,0.0,0.0,0.0,0.0,0.0,0.0,0.0,0.0,0.0,0.0,0.0,0.0,0.0,0.0,0.0,0.0,0.0,0.0,0.0,2.2313,0.0,0.0,0.0,0.0,0.0,0.0,0.0,0.0,0.0,0.0,0.0,0.0,0.0,0.0,0.0,0.0,0.0,0.0,0.0,0.0,0.0,0.0,0.0,0.0,0.0,0.0,0.0,0.0,0.0,0.0,0.0,0.0,0.0,0.0,0.0,0.0,0.0,0.0,2.5416,2.581,2.6612,2.7776,2.8987,2.9176,2.8442,0.0,0.0,0.0,0.0,0.0,0.0,0.0,0.0,0.0,0.0,0.0,0.0,0.0,0.0,0.0,0.0,0.0,0.0,0.0,0.0,0.0,0.0,0.0,0.0,0.0,0.0,0.0,0.0,0.0,0.0,0.0,0.0,0.0,0.0,0.0,0.0,0.0,0.0,0.0,0.0,0.0,0.0,0.0,0.0,0.0,0.0,0.0,0.0,0.0,0.0,0.0,0.0,0.0,0.0,0.0,0.0,0.0,0.0,0.0,0.0,0.0,0.0,0.0,0.0,0.0,0.0,0.0,0.0,0.0,0.0,0.0,2.0961,0.0,0.0,0.0,0.0,0.0,0.0,0.0,0.0,0.0,0.0,0.0,0.0,0.0,0.0,0.0,0.0,0.0,0.0,0.0,0.0,0.0,0.0,0.0,2.4341,2.4415,2.4415,2.4415,2.4415,0.0,0.0,0.0,0.0,0.0,0.0,2.4194,2.4194,2.4525,2.5191,2.5595,2.7058,2.9427,3.0393,3.0136,2.8857,2.9103,0.0,0.0,0.0,0.0,0.0,0.0,0.0,0.0,0.0,0.0,0.0,0.0,0.0,0.0,0.0,0.0,0.0,0.0,0.0,0.0,0.0,0.0,0.0,0.0,0.0,0.0,0.0,0.0,0.0,0.0,0.0,0.0,0.0,0.0,0.0,0.0,0.0,0.0,0.0,0.0,0.0,0.0,0.0,0.0,0.0,0.0,0.0,0.0,0.0,0.0,0.0,0.0,0.0,0.0,0.0,0.0,0.0,0.0,0.0,0.0,0.0,0.0,0.0,2.4891,2.5693,2.6764,2.8176,2.8788,2.8512,2.3595,2.205,2.3124,2.3642,0.0,0.0,0.0,0.0,0.0,0.0,0.0,0.0,0.0,0.0,0.0,0.0,0.0,0.0,0.0,0.0,0.0,0.0,0.0,2.4194,2.4194,2.4824,2.5232,2.5232,2.5232,2.5232,2.5232,0.0,0.0,0.0,0.0,0.0,2.4194,2.4194,2.4268,2.4378,2.6471,2.871,3.1133,3.2632,3.322,3.2926,3.0938,3.1194,3.2999,0.0,0.0,0.0,0.0,0.0,0.0,0.0,0.0,0.0,0.0,0.0,0.0,0.0,0.0,0.0,0.0,0.0,0.0,0.0,0.0,0.0,0.0,0.0,0.0,0.0,0.0,0.0,0.0,0.0,0.0,0.0,0.0,0.0,0.0,0.0,0.0,0.0,0.0,0.0,0.0,0.0,2.6319,2.549,0.0,0.0,0.0,0.0,0.0,0.0,0.0,0.0,0.0,0.0,0.0,0.0,0.0,2.4772,2.6211,3.0256,3.2281,3.2317,3.5177,3.6647,3.6809,3.7011,3.7117,3.708,3.6294,0.0,2.5929,2.3545,0.0,0.0,0.0,0.0,0.0,0.0,0.0,0.0,0.0,0.0,0.0,0.0,0.0,0.0,0.0,0.0,0.0,0.0,0.0,0.0,0.0,2.6397,2.742,2.742,2.8668,2.8888,2.753,2.7084,0.0,0.0,0.0,2.4415,2.486,2.486,2.5773,2.7567,2.9989,3.2192,3.4181,3.5356,3.6127,3.6486,3.4988,3.4107,3.3697,3.1812,0.0,0.0,0.0,0.0,0.0,0.0,0.0,0.0,0.0,0.0,0.0,0.0,0.0,0.0,0.0,0.0,0.0,0.0,0.0,0.0,0.0,0.0,0.0,0.0,0.0,0.0,0.0,0.0,0.0,0.0,0.0,0.0,0.0,0.0,0.0,0.0,0.0,0.0,0.0,2.8332,2.8154,2.6917,2.7457,2.7553,0.0,0.0,0.0,0.0,0.0,0.0,0.0,0.0,0.0,2.6974,3.0424,3.3581,3.6116,3.8202,3.9247,3.9284,4.0716,4.1405,4.1405,4.1405,4.1405,4.1405,4.1405,3.9408,3.5538,2.7906,2.3808,2.2455,0.0,0.0,0.0,0.0,2.3707,2.2557,0.0,0.0,0.0,0.0,0.0,0.0,0.0,0.0,0.0,0.0,0.0,0.0,2.6214,2.8112,2.9647,3.0448,3.1812,3.1849,3.0051,2.895,2.7598,2.5778,2.4929,2.4787,2.5379,2.6219,2.8196,3.1415,3.366,3.5613,3.7228,3.8264,3.9064,3.9606,3.899,3.7595,3.5569,3.3903,3.2671,3.1747,0.0,0.0,0.0,0.0,0.0,0.0,0.0,0.0,0.0,0.0,0.0,0.0,0.0,0.0,0.0,0.0,0.0,0.0,0.0,0.0,0.0,0.0,0.0,0.0,0.0,0.0,0.0,0.0,0.0,0.0,0.0,0.0,0.0,0.0,0.0,0.0,0.0,2.9486,2.9724,2.7874,2.9339,2.9986,0.0,0.0,0.0,0.0,0.0,0.0,3.2855,3.3611,3.3048,3.0938,3.5965,4.0267,4.3469,4.3506,4.3506,4.3506,4.3506,4.3506,4.3506,4.3506,4.3506,4.3506,4.3506,4.3506,4.2742,3.2992,2.7232,2.4789,2.6996,2.7841,2.7841,2.7841,2.6928,2.604,0.0,0.0,0.0,0.0,0.0,0.0,0.0,0.0,0.0,0.0,0.0,2.5438,2.8473,2.9616,3.1378,3.441,3.3426,3.2546,3.2436,2.8846,2.668,2.6534,2.5773,2.5343,2.5416,2.838,3.1525,3.474,3.6457,3.8153,3.9761,4.1332,4.2066,4.2103,4.2066,4.1544,4.0479,3.6545,3.5427,3.5998,3.268,0.0,0.0,0.0,0.0,0.0,0.0,0.0,0.0,0.0,0.0,0.0,0.0,0.0,0.0,0.0,0.0,0.0,0.0,0.0,0.0,0.0,0.0,0.0,0.0,0.0,0.0,0.0,0.0,0.0,0.0,0.0,0.0,0.0,0.0,0.0,0.0,0.0,0.0,2.7602,3.1589,0.0,0.0,0.0,0.0,3.3372,3.4799,3.6121,3.704,3.8201,3.7954,3.5987,3.7734,4.0267,4.3469,4.3506,4.3506,4.3506,4.3506,4.3506,4.3506,4.3506,4.3506,4.3506,4.3506,4.3506,4.3082,3.745,3.3413,3.076,3.0929,3.0954,3.0954,3.0954,3.2645,3.4957,0.0,0.0,0.0,0.0,0.0,0.0,0.0,0.0,2.4378,2.4897,2.6764,2.8705,3.0356,3.3623,3.6112,3.7287,3.78,3.7397,3.587,3.2442,3.024,2.9702,2.742,2.7383,2.9989,3.2706,3.5459,3.8138,3.9798,4.1156,4.2221,4.2808,4.3351,4.3856,4.3856,4.4118,4.4302,4.0221,3.81,3.728,3.46,3.2676,0.0,0.0,0.0,0.0,0.0,0.0,0.0,0.0,0.0,0.0,0.0,0.0,0.0,0.0,0.0,0.0,0.0,0.0,0.0,0.0,0.0,0.0,0.0,0.0,0.0,0.0,0.0,0.0,0.0,0.0,0.0,0.0,0.0,0.0,0.0,0.0,0.0,3.2929,3.5437,0.0,3.4971,3.5903,3.6932,3.7723,3.8813,4.0223,4.2005,4.2346,4.2478,4.2495,4.2037,4.3314,4.6544,4.6581,4.6581,4.6544,4.4497,4.3506,4.3506,4.3506,4.3506,4.3506,4.3506,4.3506,4.3353,4.1477,4.0046,3.913,3.913,3.8214,3.6931,3.6931,3.7596,3.851,0.0,0.0,0.0,0.0,0.0,0.0,0.0,0.0,2.4598,2.5663,2.8117,3.0723,3.3189,3.6597,3.9232,4.0626,4.07,4.0066,3.8553,3.487,3.2533,3.2124,2.9978,3.0469,3.4174,3.6413,3.8696,4.112,4.2176,4.3249,4.4314,4.402,4.4342,4.5112,4.5252,4.5766,4.6333,4.3888,4.1563,3.9347,3.7538,3.5983,3.4388,0.0,0.0,0.0,0.0,0.0,0.0,0.0,0.0,0.0,0.0,0.0,0.0,0.0,0.0,0.0,0.0,0.0,0.0,0.0,0.0,0.0,0.0,0.0,0.0,0.0,0.0,0.0,0.0,0.0,0.0,0.0,0.0,0.0,0.0,3.5649,3.716,3.7127,3.9338,4.0502,3.9559,4.0496,4.1602,4.2733,4.3565,4.4949,4.7009,4.6171,4.6196,4.7462,4.5941,4.6387,4.9062,4.9108,4.9108,4.907,4.5784,4.4211,4.4211,4.4211,4.4211,4.4211,4.4211,4.4211,4.4168,4.3685,4.3506,4.3506,4.3506,4.2573,4.1252,4.1252,4.1252,4.1252,0.0,0.0,0.0,0.0,0.0,0.0,2.4204,2.4241,2.4833,2.6492,2.8176,3.1378,3.6985,3.8404,4.0491,4.4377,4.185,4.011,4.0349,3.577,3.3184,3.3549,3.3329,3.4624,3.7618,3.9257,4.1205,4.3594,4.3594,4.4394,4.5929,4.5157,4.5194,4.5993,4.6401,4.661,4.671,4.7403,4.5786,4.2659,4.1526,3.9782,3.7538,0.0,0.0,0.0,0.0,0.0,0.0,0.0,0.0,0.0,0.0,0.0,0.0,0.0,0.0,0.0,0.0,0.0,0.0,0.0,0.0,0.0,0.0,0.0,0.0,0.0,0.0,0.0,0.0,0.0,0.0,0.0,0.0,0.0,3.5975,3.9484,4.1486,3.9794,4.3233,4.5116,4.3456,4.6305,4.8225,4.8225,4.9028,5.0216,5.1828,4.9627,4.9014,5.0659,4.9195,4.9123,5.0697,5.0707,5.0707,5.0668,4.7326,4.571,4.5594,4.5594,4.5594,4.5594,4.5594,4.5594,4.548,4.4124,4.3555,4.3555,4.3555,4.3558,4.3506,4.3506,4.3506,4.3515,0.0,0.0,0.0,0.0,0.0,0.0,2.4397,2.4895,2.6175,2.8604,3.1874,3.551,3.9545,4.2298,4.4297,4.54,4.3577,4.2148,4.1656,3.6991,3.4315,3.4434,3.6659,3.909,4.173,4.2833,4.4277,4.6119,4.6119,4.6337,4.678,4.6555,4.6885,4.7672,4.8415,4.9221,4.9997,5.0215,4.957,4.8106,4.4139,4.2048,4.0988,0.0,0.0,0.0,0.0,0.0,0.0,0.0,0.0,0.0,0.0,0.0,0.0,0.0,0.0,0.0,0.0,0.0,0.0,0.0,0.0,0.0,0.0,0.0,0.0,0.0,0.0,0.0,0.0,0.0,0.0,0.0,4.0892,4.2477,4.1471,4.3395,4.5168,4.5903,4.8108,4.9154,4.8061,4.9923,5.1202,5.1202,5.1541,5.1903,5.2364,5.0875,5.0223,5.0707,5.0252,5.0241,5.0707,5.0707,5.0707,5.0707,4.9745,4.8018,4.5594,4.5594,4.5594,4.5594,4.5594,4.5594,4.5573,4.5173,4.5006,4.5006,4.5006,4.4414,4.3506,4.3506,4.3506,4.3656,0.0,0.0,0.0,0.0,0.0,0.0,2.4928,2.5489,2.7036,3.0384,3.3776,3.743,4.1451,4.3958,4.5442,4.5768,4.3963,4.2352,4.1285,3.8641,3.7561,3.8583,4.1108,4.3238,4.4915,4.5791,4.6686,4.759,4.725,4.7628,4.864,4.8314,4.8768,4.9894,5.0561,5.1229,5.1859,5.2023,5.1946,5.1471,4.8125,4.6493,4.564,4.1868,4.0451,4.0268,3.8033,3.7543,3.7609,3.5325,0.0,0.0,0.0,0.0,0.0,0.0,0.0,0.0,0.0,0.0,0.0,0.0,0.0,0.0,0.0,0.0,0.0,0.0,0.0,0.0,0.0,0.0,0.0,0.0,4.5703,4.8006,4.8879,4.8847,4.9081,5.0006,5.1319,5.194,5.1429,5.2633,5.3451,5.3451,5.3354,5.3514,5.4015,5.1898,5.1323,5.2746,5.2784,5.2784,5.2784,5.1399,5.0707,5.0707,5.0707,4.9668,4.7749,4.7749,4.7749,4.7749,4.7749,4.6937,4.5594,4.5594,4.5594,0.0,0.0,0.0,0.0,0.0,4.4394,4.4515,0.0,0.0,0.0,0.0,0.0,0.0,2.5793,2.6139,2.7808,3.19,3.4576,3.7969,4.277,4.4121,4.5035,4.5881,4.3741,4.1814,4.0472,4.0865,4.2047,4.4163,4.5893,4.7099,4.7618,4.8508,4.8932,4.8869,4.8162,4.8933,5.1116,5.0384,5.0808,5.2206,5.2665,5.2906,5.3006,5.328,5.3509,5.3556,5.2516,5.1573,5.0399,4.6513,4.5932,4.6563,4.1688,4.0017,3.976,3.7657,0.0,0.0,0.0,0.0,0.0,0.0,0.0,0.0,0.0,0.0,0.0,0.0,0.0,0.0,0.0,0.0,0.0,0.0,0.0,0.0,0.0,0.0,0.0,0.0,5.0312,5.3125,5.6445,5.4793,5.3189,5.3042,5.3728,5.415,5.3955,5.473,5.5195,5.5117,5.4766,5.4983,5.6023,5.3073,0.0,0.0,0.0,5.5708,5.5708,5.2746,5.1246,5.1246,5.0861,5.0707,5.0707,5.0707,5.0707,5.0707,5.0707,4.8976,4.6172,4.6172,4.5941,4.5594,4.5594,4.5594,4.5594,4.5594,4.5594,4.5594,0.0,0.0,0.0,0.0,0.0,0.0,2.7147,2.784,2.9598,3.3325,3.6021,3.9009,4.2721,4.4489,4.581,4.6773,4.5121,4.3666,4.2799,4.412,4.539,4.6447,4.8756,5.0302,5.0954,5.1831,5.2331,5.2395,5.2245,5.2492,5.307,5.2883,5.3,5.3303,5.411,5.4867,5.5459,5.4857,5.5289,5.6227,5.4017,5.255,5.1505,5.0014,4.9245,4.8697,4.6934,4.6771,4.6882,4.3734,4.2607,4.2031,3.9652,3.703,0.0,0.0,0.0,0.0,0.0,0.0,0.0,0.0,0.0,0.0,0.0,0.0,0.0,0.0,0.0,0.0,0.0,0.0,0.0,5.125,5.3906,5.6328,5.8398,5.8241,5.7654,5.6909,5.7572,5.7571,5.6165,5.6829,5.7024,5.632,5.62,5.6236,5.647,5.5838,5.5753,5.6414,5.5967,5.5708,5.5708,5.5054,5.4747,5.4708,0.0,0.0,5.0707,5.0707,5.0707,5.0707,5.0707,5.0322,4.9707,4.9707,4.8095,4.5594,4.5594,4.5594,4.5594,4.5594,4.5594,4.5594,0.0,0.0,0.0,0.0,0.0,0.0,2.811,2.8629,3.0203,3.3734,3.5699,3.7917,4.0917,4.2401,4.3174,4.3294,4.2511,4.2638,4.395,4.5673,4.7749,5.024,5.1979,5.3058,5.3379,5.384,5.3853,5.3485,5.3485,5.376,5.4259,5.4259,5.4687,5.5504,5.5969,5.6633,5.7417,5.6986,5.7253,5.7839,5.656,5.5733,5.5079,5.282,5.1933,5.1741,5.001,4.9668,4.9591,4.6624,4.5586,4.5163,4.2589,4.0662,3.895,0.0,0.0,0.0,0.0,0.0,0.0,0.0,0.0,0.0,0.0,0.0,0.0,0.0,0.0,4.7695,4.8125,0.0,5.3594,5.6133,5.7656,5.8945,6.0273,6.0469,5.9961,5.8711,5.8945,5.875,5.7578,5.8125,5.8008,5.6719,5.6601,5.6601,5.6601,5.6601,5.6601,5.6601,5.6315,5.6155,5.6155,5.6155,5.6155,5.6116,5.4456,5.3643,5.3643,5.3643,5.3643,5.355,5.1554,5.0707,5.0707,5.0707,4.9707,4.8129,4.8129,4.7095,4.5594,4.5594,4.5594,4.5594,0.0,0.0,0.0,0.0,0.0,0.0,0.0,2.9246,3.047,3.3548,3.4722,3.6129,3.8397,3.9602,4.0064,3.9595,4.0356,4.2135,4.5053,4.7205,5.0002,5.3712,5.472,5.5174,5.5149,5.5149,5.4891,5.4416,5.4416,5.4855,5.5732,5.5732,5.647,5.7756,5.7756,5.8226,5.901,5.8852,5.8955,5.9207,5.8895,5.8802,5.8599,5.5298,5.4443,5.4713,5.2167,5.1043,5.046,4.8416,4.749,4.6915,4.5194,4.4311,4.3349,4.0419,4.0102,0.0,0.0,0.0,0.0,0.0,0.0,0.0,0.0,4.6441,4.7539,4.8594,5.125,5.3711,5.4805,5.6406,5.832,6.0547,6.1055,6.1328,6.1875,6.1953,6.1406,5.9883,5.9687,5.9414,5.8711,5.9101,5.8789,5.7226,5.7187,5.707,5.6601,5.6601,5.6601,5.6601,5.6601,5.6601,5.6601,5.6601,5.6601,5.6601,5.6601,5.6601,5.6562,5.5898,5.5586,5.5429,5.2214,5.0825,5.0825,5.0825,5.0825,5.0825,5.0825,4.913,4.6647,4.5894,4.5594,4.5594,0.0,0.0,0.0,0.0,0.0,0.0,0.0,0.0,3.0926,3.2814,3.385,3.4853,3.5908,3.7555,3.8869,3.9628,4.3269,4.6053,4.7186,5.0311,5.2957,5.4857,5.5753,5.6186,5.6041,5.6038,5.6448,5.724,5.724,5.7739,5.8709,5.8709,5.8825,5.8982,5.8982,5.945,6.0154,5.945,5.9943,6.1062,5.9503,5.926,5.9627,5.7684,5.7008,5.6736,5.4202,5.2283,5.0911,5.0695,4.9612,4.8528,4.9827,4.8635,4.6584,4.5451,4.3088,4.0818,4.0605,4.0843,4.2069,4.5897,4.5859,4.7031,0.0,5.6289,5.5781,5.7422,5.9258,6.0156,5.8867,6.0,6.1484,6.2539,6.3359,6.3633,6.2969,6.2851,6.25,6.1523,6.1406,6.1015,5.9922,6.0078,5.9883,5.8984,5.9336,5.875,5.6719,5.6601,5.6601,5.6601,5.6601,5.6601,5.6601,5.6601,5.6601,5.6601,5.6601,5.6601,5.6484,5.3398,5.1992,5.1953,5.1519,5.1318,5.1318,5.1318,5.1318,5.1318,5.1318,5.1085,5.033,4.6851,4.5594,4.5594,0.0,0.0,0.0,0.0,0.0,0.0,0.0,0.0,0.0,3.2096,3.2628,3.306,3.3456,3.4661,3.6029,3.7413,4.1522,4.4844,4.6719,5.0508,5.3905,5.6592,5.6592,5.6741,5.719,5.7189,5.7396,5.7803,5.8311,5.8785,5.9219,5.9219,5.9453,5.9883,5.9883,6.0664,6.1875,6.1015,6.1326,6.2255,6.1045,6.0724,6.0744,5.8518,5.7386,5.6594,5.3831,5.2054,0.0,4.9909,4.9759,4.9917,4.9649,4.8878,4.7639,4.578,4.4265,4.3304,4.3934,4.5506,4.7482,4.9335,5.1478,5.4164,5.8281,5.9765,6.0547,6.125,6.3594,6.5117,6.3906,6.4258,6.4844,6.5195,6.4726,6.3984,6.3125,6.3008,6.2305,6.0469,6.1094,6.1523,6.1055,6.1094,6.1015,6.0664,6.039,5.9765,5.8633,5.7305,5.6601,5.6601,5.6601,5.6601,5.6601,5.6601,5.6601,5.6601,5.6601,5.6601,5.6562,5.5078,5.4414,5.4414,5.4414,5.4414,5.4414,5.4414,5.3242,5.1406,5.1406,5.1406,5.121,4.9584,4.7735,4.6011,0.0,0.0,0.0,0.0,0.0,0.0,0.0,0.0,0.0,0.0,3.2071,3.2391,3.271,3.3356,3.4375,3.5859,3.9726,4.3164,4.5781,4.9961,5.3789,5.7031,5.6797,5.6914,5.7539,5.7773,5.8008,5.8242,5.9101,5.9648,5.9883,5.9883,6.0195,6.0742,6.0742,6.1445,6.2617,6.1953,6.207,6.2578,6.1953,6.1406,6.0742,5.8437,5.6406,5.4569,5.2476,5.0862,4.9494,4.8013,4.8323,4.918,4.8208,4.8054,4.794,4.6318,4.5704,4.566,4.6359,4.8813,5.1434,5.2739,5.6306,5.9833,6.0904,6.2995,6.4721,6.4721,6.6756,6.8281,6.7422,6.6875,6.6601,6.6875,6.543,6.4062,6.3437,6.293,6.1875,5.9765,6.039,6.1094,6.1328,6.1562,6.1719,6.1719,6.1133,6.0547,6.0039,5.8711,5.7773,5.7344,5.7773,5.8008,5.8008,5.8008,5.8008,5.8008,5.7031,5.6601,5.6601,5.6601,5.6601,5.6601,5.6601,5.6601,5.6601,5.6601,5.5117,5.2812,5.2812,5.2812,5.2734,5.1758,4.9844,4.7695,0.0,0.0,0.0,0.0,0.0,0.0,0.0,0.0,0.0,0.0,0.0,0.0,0.0,3.4648,3.5039,3.5937,3.9219,4.2305,4.4883,4.9062,5.2617,5.5273,5.6172,5.6601,5.664,5.7461,5.832,5.914,5.9961,6.0781,6.1601,6.1601,6.164,6.164,6.164,6.168,6.1758,6.1719,6.1719,6.1758,6.1719,6.0742,5.9062,5.7305,5.4023,5.0391,5.0312,4.8633,4.6328,4.5429,4.5156,4.5312,4.6133,4.6953,4.7773,4.8554,4.8078,4.7289,4.7207,4.9033,5.1991,5.6176,5.9173,6.1982,6.5343,6.7584,6.8997,6.8997,6.9204,6.9101,6.832,6.6797,6.5937,6.6758,6.543,6.4297,6.4258,6.2812,6.1406,6.0469,5.9726,5.957,6.0351,6.1211,6.1719,6.1719,6.168,6.1172,6.0078,6.0976,6.0781,5.918,6.0703,6.1562,6.1562,6.1562,6.1562,6.1523,5.8164,5.6601,5.6601,5.6601,5.6601,5.6601,5.6601,5.6601,5.6601,5.6601,5.6523,5.6445,5.6445,5.6445,5.6015,5.2656,5.1328,5.125,0.0,0.0,0.0,0.0,0.0,0.0,0.0,0.0,0.0,0.0,0.0,0.0,0.0,0.0,0.0,0.0,3.8672,4.1172,4.3164,4.7344,5.0625,5.2617,5.4648,5.5742,5.5742,5.7148,5.8047,5.8359,5.918,6.0039,6.082,6.0273,6.0625,6.168,6.1094,6.1484,6.2539,6.1953,6.2031,6.2344,6.0078,5.918,5.875,5.4687,5.1562,4.9023,0.0,4.4961,4.3594,4.2773,4.2812,4.332,4.3583,4.3851,4.4236,4.5021,4.7393,4.9913,5.0439,5.4025,5.8265,6.096,6.3911,6.6635,6.8476,6.9844,7.0395,6.9229,6.8149,6.6976,6.5615,6.4407,6.3725,6.4119,6.4158,6.4009,6.3515,6.293,6.1601,5.9062,5.9492,5.9453,5.8008,5.9687,6.1094,6.164,6.1719,6.1523,6.1133,6.1484,6.1445,6.0898,6.1406,6.1719,6.1719,6.1719,6.1719,6.164,5.8242,5.6601,5.6601,5.6601,5.6601,5.6601,5.6601,5.6601,5.6601,5.6601,5.6601,5.6601,5.6601,5.6601,5.6445,5.5273,5.4844,5.4531,0.0,0.0,0.0,0.0,0.0,0.0,0.0,0.0,0.0,0.0,0.0,0.0,0.0,0.0,0.0,0.0,0.0,3.9687,4.1406,4.4687,4.7344,4.9023,5.1016,5.207,5.207,5.3476,5.4531,5.5156,5.6015,5.7148,5.8555,5.8047,5.8555,5.9844,5.9297,5.9648,6.0664,5.9765,5.9375,5.914,5.6914,5.5664,5.4648,5.0976,4.8164,0.0,4.2891,4.1133,4.0078,3.9883,4.0546,4.1438,4.1375,4.2598,4.4199,4.4941,4.8541,5.2709,5.442,5.8281,6.2383,6.4826,6.7255,6.9308,7.0239,7.0693,7.0448,6.8703,6.6601,6.4521,6.2855,6.1108,6.0216,6.1281,6.1402,6.1612,6.2421,6.2031,6.0937,5.9023,5.9492,5.9453,5.8086,5.9453,6.0625,6.1172,6.1523,6.1719,6.1719,6.1719,6.1719,6.1719,6.1719,6.1719,6.1719,6.1719,6.1719,6.168,5.9453,5.8437,5.8398,5.7148,5.6601,5.6601,5.6601,5.6601,5.6601,5.6601,5.6601,5.6601,5.6601,5.6601,5.6601,5.6601,5.6601,5.6289,0.0,0.0,0.0,0.0,0.0,0.0,0.0,0.0,0.0,0.0,0.0,0.0,0.0,0.0,0.0,0.0,0.0,0.0,3.9648,4.1328,4.3008,4.4687,4.5703,4.6211,4.6172,4.707,4.8359,5.0,5.082,5.25,5.4961,5.4961,5.5469,5.6328,5.6289,5.6289,5.6289,5.5469,5.4101,5.2578,5.2422,5.043,4.7422,4.6484,4.4023,4.0937,3.9297,3.7578,3.6211,3.707,3.8545,4.003,4.002,4.3433,4.7613,4.8372,5.1687,5.5754,5.8963,6.1737,6.4545,6.7776,6.9199,6.9975,7.0629,7.026,6.9231,6.7426,6.4481,6.1707,6.0004,5.705,5.5766,5.8345,5.7571,5.7822,6.1248,6.0429,5.9726,6.0429,5.9843,5.9687,6.039,6.0508,6.0547,6.0547,6.1289,6.1797,6.1836,6.1797,6.1758,6.1719,6.1719,6.1719,6.1719,6.1719,6.1719,6.1719,6.1719,6.1719,6.1601,5.8359,5.6875,5.6875,5.6875,5.6875,5.6875,5.6875,5.6758,5.6601,5.6601,5.6601,5.6601,5.6601,5.6601,5.6601,0.0,0.0,0.0,0.0,0.0,0.0,0.0,0.0,0.0,0.0,0.0,0.0,0.0,0.0,0.0,0.0,0.0,0.0,3.7891,3.957,4.0742,4.1172,4.3867,4.5039,4.4375,4.5859,4.6836,4.7305,4.8164,4.9258,5.0547,5.0547,5.1328,5.2695,5.2109,5.2148,5.2695,5.25,5.1797,5.0664,4.8711,4.7422,4.6406,4.4219,4.207,4.0273,4.0469,3.8984,3.7109,3.7969,4.0941,4.4312,4.4206,4.7168,5.1009,5.2492,5.637,6.079,6.353,6.7051,7.0129,7.1014,7.1398,7.1129,6.9436,6.8392,6.6803,6.3224,5.9788,5.6757,5.4405,5.3821,5.4133,5.5547,5.8078,6.0414,6.2072,6.2472,6.2502,6.2221,6.1993,6.1737,6.1406,6.1953,6.2344,6.2344,6.2539,6.2969,6.3594,6.3203,6.2578,6.1719,6.1719,6.1719,6.1719,6.1719,6.1719,6.1719,6.1719,6.1719,6.168,6.0781,6.039,6.039,6.039,6.039,6.039,6.039,5.8906,5.6601,5.6601,5.6601,5.6601,5.6601,5.6601,5.6601,0.0,0.0,0.0,0.0,0.0,0.0,0.0,0.0,0.0,0.0,0.0,0.0,0.0,0.0,0.0,0.0,0.0,0.0,0.0,3.7656,3.8203,3.8203,4.0039,4.082,4.0312,4.1289,4.2148,4.293,4.3398,4.4453,4.6055,4.6055,4.6758,4.8008,4.7539,4.7617,4.8008,4.7617,4.6758,0.0,0.0,4.3047,4.2187,4.0703,3.957,3.8828,3.9297,4.0192,4.1386,4.2961,4.5274,4.7799,4.9558,5.2705,5.628,5.8781,6.205,6.5436,6.7981,7.0667,7.2668,7.229,7.1898,7.0783,6.7468,6.5782,6.348,5.8473,5.5362,5.2592,4.9663,5.0125,5.1409,5.2821,5.6249,5.9483,6.1642,6.2669,6.3273,6.3359,6.3371,6.3245,6.289,6.3281,6.3711,6.4101,6.3789,6.3789,6.4258,6.3984,6.3515,6.2851,6.2109,6.1719,6.1719,6.1719,6.1719,6.1719,6.1719,6.1719,6.1719,6.1719,6.1719,6.1719,0.0,6.1719,6.1719,6.1719,6.0586,5.8828,5.8828,5.793,5.6601,5.6601,5.6601,5.6601,0.0,0.0,0.0,0.0,0.0,0.0,0.0,0.0,0.0,0.0,0.0,0.0,0.0,0.0,0.0,0.0,0.0,0.0,0.0,0.0,3.6016,3.6016,3.6016,3.6016,3.6016,3.6016,3.6758,3.8242,3.8359,3.957,4.1719,4.1836,4.2305,4.3008,4.3008,4.3008,4.2969,4.2226,4.0976,3.957,3.9687,3.875,3.7344,0.0,3.7578,3.75,3.7734,4.1231,4.6224,4.9311,5.0684,5.1704,5.5497,5.9127,6.2595,6.5788,6.7936,6.9776,7.2213,7.3437,7.3776,7.2783,7.1629,6.959,6.5243,6.2728,5.9628,5.3746,5.1188,4.9085,4.5984,4.6817,4.8664,5.084,5.3913,5.7334,6.0985,6.2242,6.3168,6.4257,6.44,6.4442,6.4607,6.4648,6.4961,6.5703,6.5078,6.4648,6.4648,6.4648,6.4648,6.4648,6.3164,6.2187,6.1719,6.1719,6.1719,6.1719,6.1719,6.1719,6.1719,6.1719,6.1719,6.1719,6.1719,6.1719,6.1719,6.1719,6.1719,6.1719,6.1719,5.9609,5.6601,5.6601,5.6601,5.6601,0.0,0.0,0.0,0.0,0.0,0.0,0.0,0.0,0.0,0.0,3.6016,3.6016,0.0,0.0,0.0,0.0,0.0,0.0,0.0,0.0,0.0,3.6016,3.6016,3.6016,3.6016,3.6016,3.6133,3.6445,3.7187,3.7734,3.8203,3.8906,3.9336,3.9492,3.9492,3.9492,3.9453,3.9336,3.8672,3.7812,3.8555,3.8203,3.7461,3.8906,0.0,0.0,4.0,4.1961,4.4902,5.1647,5.618,5.9365,6.135,6.4814,6.8552,7.052,7.2283,7.4014,7.5907,7.6522,7.6245,7.4668,7.2091,6.8629,6.3672,5.9644,5.5441,5.0081,4.7751,4.6194,4.4773,4.5932,4.8369,5.2184,5.5078,5.8247,6.2381,6.3698,6.4618,6.5618,6.5913,6.6054,6.6199,6.636,6.6523,6.664,6.6523,6.6445,6.6445,6.6445,6.6445,6.6445,6.6172,6.4609,6.1719,6.1719,6.1719,6.1719,6.1719,6.1719,6.1719,6.1719,6.1719,6.1719,6.1719,0.0,6.1719,6.1719,6.1719,6.1719,6.1719,5.9609,5.6601,5.6601,5.6601,5.6601,0.0,0.0,0.0,0.0,0.0,0.0,0.0,3.6133,3.6836,3.7305,3.7344,3.6992,3.6094,3.6016,0.0,0.0,0.0,0.0,0.0,0.0,0.0,3.6016,3.6016,3.6016,3.6016,3.6016,3.6211,3.668,0.0,3.7109,3.7969,3.793,3.793,3.793,3.793,3.7656,3.7266,3.7266,3.6992,3.6719,3.7578,3.7656,3.7422,3.8711,0.0,0.0,4.0742,4.3023,4.6162,5.0728,5.6197,6.1733,6.5475,6.8982,7.2125,7.3837,7.4905,7.5897,7.7602,7.8013,7.7407,7.5245,7.2161,6.8046,6.1621,5.6936,5.2333,4.6805,4.5025,4.4027,4.2672,4.4502,4.7048,4.9505,5.2049,5.5511,6.0621,6.1666,6.3135,6.639,6.6868,6.6977,6.7102,6.7204,6.7134,6.6777,6.6741,6.6788,6.6875,6.6914,6.6914,6.6914,6.6914,6.5234,6.1719,6.1719,6.1719,6.1719,6.1719,6.1719,6.1719,6.1719,6.1719,6.1719,6.1719,6.1719,6.1719,6.1719,6.1719,6.1719,6.1719,6.0703,5.9258,5.9258,5.8125,5.6601,0.0,0.0,0.0,0.0,0.0,0.0,0.0,3.6601,3.7617,3.8476,3.8437,3.7812,3.6445,3.6289,3.6211,0.0,0.0,0.0,0.0,0.0,0.0,0.0,0.0,0.0,3.6289,0.0,0.0,3.7305,3.6601,0.0,0.0,0.0,0.0,0.0,3.7305,3.6836,3.6016,3.6211,3.6289,0.0,0.0,3.7851,3.7969,0.0,0.0,0.0,0.0,4.3541,4.6685,4.9284,5.4242,6.024,6.5622,7.012,7.365,7.4876,7.5963,7.7115,7.8656,7.8798,7.7946,7.5592,7.1898,6.7032,6.0007,5.4713,4.9801,4.4486,4.3034,4.2357,4.1207,4.3064,4.5321,4.6889,4.8971,5.2477,5.8396,5.9704,6.1802,6.6503,6.7275,6.7419,6.7553,6.7447,6.7136,6.6619,6.6567,6.6687,6.6875,6.6914,6.6914,6.6914,6.664,6.4961,6.1719,6.1719,6.1719,6.1719,6.1719,6.1719,6.1719,6.1719,6.1719,6.1719,6.1719,6.1719,6.1719,6.1719,6.1719,6.1719,6.1719,6.1719,6.1719,6.1719,5.9531,5.6601,0.0,0.0,0.0,0.0,0.0,0.0,0.0,3.6211,3.7617,3.8476,3.7891,3.7344,3.7187,3.7187,3.6875,0.0,0.0,0.0,0.0,0.0,0.0,0.0,0.0,0.0,0.0,0.0,0.0,3.7305,3.7226,0.0,0.0,0.0,0.0,0.0,0.0,3.6836,3.6055,3.6836,0.0,0.0,0.0,0.0,0.0,0.0,0.0,0.0,0.0,4.2491,4.3618,4.9213,5.1983,5.3886,5.8267,6.557,7.2411,7.1969,7.4901,7.8532,7.9685,7.9262,7.8099,7.6322,7.1014,6.4882,5.9587,5.3377,4.7719,4.4156,4.2133,4.1196,4.1767,4.2022,4.3427,4.7351,4.8856,5.1587,5.7582,6.0402,6.2915,6.571,6.6847,6.7392,6.7416,6.687,6.6471,6.6409,6.6527,6.6687,6.6875,6.6914,6.6914,6.6914,6.5898,6.418,6.1719,6.1719,6.1719,6.1719,6.1719,6.1719,6.1719,6.1719,6.1719,6.1719,6.1719,6.1719,0.0,6.1719,6.1719,6.1719,6.1719,6.1719,6.1719,6.1719,5.9531,5.6601,0.0,0.0,0.0,0.0,0.0,0.0,3.6055,3.7305,3.8594,3.9961,3.9414,3.8867,3.8867,3.793,3.6953,0.0,0.0,0.0,0.0,0.0,0.0,0.0,0.0,0.0,0.0,0.0,3.8359,3.8867,3.8359,0.0,0.0,0.0,0.0,0.0,0.0,3.7305,3.6016,3.6367,0.0,0.0,0.0,0.0,0.0,0.0,0.0,0.0,0.0,0.0,4.2648,4.4556,4.7081,4.9561,5.0214,5.5712,6.2788,6.7208,7.0796,7.4003,7.7147,7.8629,7.8515,7.5315,6.9783,6.3803,5.8824,5.2077,4.6404,4.4626,4.2458,4.1302,4.2599,4.2339,4.2759,4.5377,4.5701,4.7509,5.2977,5.4593,5.7324,6.2941,6.4396,6.5743,6.782,6.7768,6.744,6.7015,6.6748,6.6631,6.6734,6.6833,6.6914,6.6914,6.6445,6.5508,6.4062,6.3164,6.2383,6.1719,6.1719,6.1719,6.1719,6.1719,6.1719,6.1719,6.1719,6.1719,0.0,6.1719,6.1719,6.1719,6.1719,6.1719,6.1719,6.1719,6.0859,5.9375,0.0,0.0,0.0,0.0,0.0,3.5,3.6992,3.8047,3.9219,4.0976,4.0234,3.9609,3.9883,3.8125,3.6758,3.6406,0.0,0.0,0.0,0.0,0.0,0.0,0.0,0.0,0.0,0.0,3.9023,3.9883,3.9297,3.9726,0.0,0.0,3.9414,3.8594,0.0,0.0,0.0,0.0,0.0,0.0,0.0,0.0,0.0,0.0,0.0,0.0,0.0,0.0,0.0,0.0,0.0,4.5898,4.4922,4.7991,5.3526,6.1363,6.6282,7.0041,7.3749,7.6545,7.7494,7.3806,6.8355,6.2656,5.7994,5.1222,4.569,4.4692,4.2625,4.1348,4.2434,4.2271,4.2418,4.3734,4.3893,4.5436,5.0053,5.1361,5.4093,6.0248,6.1897,6.3814,6.6968,6.7699,6.7838,6.744,6.6818,6.6514,6.6575,6.6738,6.6833,6.6914,6.664,6.6094,6.5234,6.3945,6.2734,6.1719,6.1719,6.1719,6.1719,6.1719,6.1719,6.1719,6.1719,6.1719,0.0,6.1719,6.1719,6.1719,6.1719,6.1719,6.1719,6.1719,6.1719,6.1367,0.0,0.0,0.0,0.0,0.0,0.0,3.6914,3.8047,3.9219,4.0976,3.9687,3.8945,3.9805,3.7578,3.6367,3.7226,0.0,0.0,0.0,0.0,0.0,0.0,0.0,0.0,0.0,0.0,3.9023,3.9883,3.9883,4.0351,4.1172,4.0312,3.9414,3.8555,0.0,0.0,0.0,0.0,0.0,0.0,0.0,0.0,4.1211,0.0,0.0,0.0,0.0,0.0,0.0,0.0,0.0,0.0,0.0,4.4248,4.6451,5.4373,6.1909,6.803,6.9952,7.2694,7.4473,7.2011,6.6804,6.1208,5.7202,5.1016,4.5657,4.4022,4.2254,4.0958,4.0838,4.1453,4.2228,4.3002,4.4513,4.6783,5.0207,5.2861,5.5434,5.8044,5.9819,6.182,6.4397,6.6128,6.7188,6.7401,6.6617,6.6237,6.6569,6.6618,6.6689,6.6875,6.6055,6.5195,6.4336,6.3437,6.2578,6.1719,6.1719,6.1719,6.1719,6.1719,6.1719,6.1719,6.1719,6.1719,0.0,6.1719,6.1719,6.1719,6.1719,6.1719,6.1719,6.1719,6.1719,6.168,0.0,0.0,0.0,0.0,0.0,0.0,0.0,3.7497,3.8125,3.9258,3.8437,3.8047,3.8906,3.7226,3.6367,3.7226,0.0,0.0,0.0,0.0,0.0,0.0,0.0,0.0,0.0,0.0,3.9922,4.0781,4.0781,4.0937,4.1172,4.0937,4.0,3.8594,3.832,3.7383,0.0,0.0,0.0,0.0,0.0,4.1211,4.1211,0.0,0.0,0.0,0.0,0.0,0.0,0.0,0.0,0.0,0.0,0.0,0.0,4.8281,5.3988,5.9503,6.2611,6.4872,6.5807,6.328,5.9414,5.564,5.3234,4.8371,4.4407,4.4428,4.2685,4.1629,4.3222,4.321,4.3776,4.625,4.7032,4.7894,4.9591,5.251,5.5434,5.8011,6.3397,6.7205,6.8013,6.8013,6.8014,6.8081,6.6851,6.6139,6.624,6.6498,6.6689,6.6875,6.664,6.6367,6.6094,6.4609,6.375,6.3476,6.2265,6.1719,6.1719,6.1719,6.1719,6.1719,6.1719,6.1719,6.1719,6.1719,6.1719,6.1719,6.1719,6.1719,6.1719,6.1719,6.1719,6.1719,0.0,0.0,0.0,0.0,0.0,0.0,0.0,3.7251,3.7575,3.8476,3.7851,3.7617,3.8516,3.7031,3.6367,3.7226,0.0,0.0,0.0,0.0,0.0,0.0,0.0,0.0,3.8906,3.8906,3.9492,4.0703,4.0703,4.0898,4.1172,4.0859,3.9961,3.8594,3.8242,3.7305,0.0,0.0,0.0,0.0,4.0586,4.1016,4.0742,0.0,0.0,0.0,0.0,0.0,0.0,0.0,0.0,0.0,0.0,0.0,0.0,0.0,4.7588,5.1654,5.6552,5.9451,6.0556,5.8405,5.5463,5.2599,5.0637,4.6788,4.3693,4.3849,4.2684,4.2059,4.3596,4.3847,4.4478,4.6519,4.7305,4.8043,4.924,5.2049,5.5318,5.8819,6.4589,6.8398,6.8706,6.8821,6.8737,6.843,6.7197,6.6353,6.6104,6.6291,6.6529,6.6787,6.6874,6.6758,6.6406,6.5,6.414,6.3789,6.2383,6.1719,6.1719,6.1719,6.1719,6.1719,6.1719,6.1719,0.0,6.1719,6.1719,6.1719,6.1719,6.1719,6.1719,6.1719,6.1719,6.1719,0.0,0.0,0.0,0.0,0.0,0.0,0.0,0.0,3.7402,3.8281,3.7695,3.7539,3.832,3.6953,3.6367,3.7226,0.0,0.0,0.0,0.0,0.0,0.0,0.0,0.0,3.7383,3.7383,3.8203,3.9883,3.9961,4.0391,4.1172,4.0351,3.9492,3.8555,3.7734,3.6953,3.6289,0.0,0.0,0.0,4.0234,4.0703,0.0,0.0,0.0,0.0,0.0,0.0,0.0,0.0,0.0,0.0,0.0,0.0,0.0,0.0,0.0,0.0,0.0,5.5489,5.7488,5.6052,5.377,5.1273,4.9021,4.5976,0.0,4.2578,4.2291,4.2259,4.242,4.3558,4.4525,4.4812,4.6113,4.7658,4.9356,5.2049,5.5665,6.0666,6.4211,6.6513,6.7135,6.8706,6.9353,6.8545,6.7628,6.6842,6.6187,6.6138,6.6229,6.6553,6.6706,6.6445,6.5703,6.4765,6.3906,6.3125,6.2187,6.1719,6.1719,6.1719,6.1719,0.0,6.1719,6.1719,6.1719,6.1719,6.1719,6.1719,6.1719,6.1719,6.1719,6.1719,6.1719,6.1719,0.0,0.0,0.0,0.0,0.0,0.0,0.0,0.0,0.0,0.0,3.6445,3.6367,3.6601,3.625,3.6367,0.0,0.0,0.0,0.0,0.0,0.0,0.0,0.0,0.0,3.8281,3.8281,3.8828,3.9883,4.0586,4.1016,4.1211,4.0976,4.0078,3.8594,3.8398,3.8164,3.8008,3.8437,0.0,0.0,4.0937,4.1094,0.0,0.0,0.0,0.0,4.1211,4.1211,0.0,0.0,0.0,0.0,0.0,0.0,0.0,0.0,4.2539,4.3203,4.5508,0.0,4.7183,4.6836,4.6248,4.5621,0.0,4.3789,4.2656,4.2422,4.1824,4.191,4.3857,4.3828,4.456,4.7854,4.8617,4.9394,5.1082,5.6319,6.1402,6.5173,6.8052,6.9283,6.8199,6.909,6.9629,6.9391,6.7975,6.7013,6.6856,6.6387,6.6126,6.6232,6.5856,6.5959,6.6601,6.5078,6.4414,6.4648,6.2656,6.1719,6.1719,6.1719,6.1719,6.1719,6.1719,6.1719,6.1719,6.1719,6.1719,6.1719,6.1719,6.1719,6.1719,6.1719,6.1719,6.1719,0.0,0.0,0.0,0.0,0.0,0.0,0.0,0.0,0.0,0.0,0.0,0.0,0.0,0.0,0.0,0.0,0.0,0.0,0.0,0.0,0.0,0.0,0.0,3.7539,3.8008,3.8398,3.9219,4.0508,4.0976,4.1406,4.1758,4.1758,4.0859,3.918,3.8789,3.8398,3.8047,3.8867,3.9492,4.0078,4.0898,0.0,0.0,0.0,0.0,0.0,4.1211,4.1211,0.0,4.2109,4.207,4.1836,0.0,0.0,0.0,0.0,4.1836,4.1953,4.2422,4.3398,4.4297,4.4297,4.4297,4.418,4.3789,4.3047,4.2265,4.1869,4.195,4.2523,4.3887,4.4242,4.5201,4.7953,4.896,5.0664,5.4313,5.9017,6.3326,6.6712,6.8667,6.9699,6.9545,6.9629,6.9513,6.9122,6.7859,6.6942,6.6558,6.6221,6.6023,6.6104,6.545,6.5416,6.6158,6.4529,6.3867,6.418,6.25,6.1719,6.1719,6.1719,6.1719,6.1719,6.1719,6.1719,6.1719,6.1719,6.1719,6.1719,6.1719,6.1719,6.1719,6.1719,6.1719,6.1719,0.0,0.0,0.0,0.0,0.0,0.0,0.0,0.0,0.0,0.0,0.0,0.0,0.0,0.0,0.0,0.0,0.0,0.0,0.0,0.0,0.0,0.0,3.7187,3.7578,3.7695,3.8555,3.9766,4.1367,4.1523,4.1914,4.2617,4.2617,4.1719,4.0039,3.9062,3.8242,3.7773,3.9258,3.9531,3.9141,4.0625,0.0,0.0,0.0,0.0,0.0,0.0,0.0,0.0,4.2851,4.2812,4.2344,4.3086,0.0,0.0,0.0,0.0,0.0,4.1483,4.3395,4.5191,4.4569,4.4568,4.4527,4.3668,4.3004,4.2334,4.1518,4.2413,4.3503,4.3898,4.4949,4.6228,4.755,4.944,5.2741,5.8473,6.132,6.398,6.6942,6.8167,6.9237,7.0398,7.0129,6.9513,6.866,6.7782,6.6942,6.6134,6.5981,6.5949,6.6079,6.5122,6.4742,6.5045,6.3653,6.3007,6.3047,6.2148,6.1719,6.1719,6.1719,6.1719,6.1719,0.0,0.0,6.1719,6.1719,6.1719,6.1719,6.1719,6.1719,6.1719,6.1719,6.1719,6.1719,0.0,0.0,0.0,0.0,0.0,0.0,0.0,0.0,0.0,0.0,0.0,0.0,0.0,0.0,0.0,0.0,0.0,0.0,0.0,0.0,0.0,3.9336,3.8711,3.875,3.9492,4.0351,4.1289,4.2226,4.2969,4.3398,4.3516,4.3516,4.2617,4.0937,3.9336,3.8945,3.9531,3.9805,4.0234,4.082,4.1094,0.0,0.0,0.0,0.0,0.0,0.0,0.0,0.0,4.1484,4.1484,4.1406,4.1523,0.0,0.0,0.0,0.0,0.0,4.2775,4.495,4.6004,4.2496,4.2624,4.3426,4.2532,4.2803,4.3222,4.3051,4.3148,4.3898,4.6054,4.6584,4.7672,5.0664,5.4411,5.8511,6.3012,6.5205,6.6782,6.8045,6.959,7.0052,6.8891,6.9975,7.0398,6.9552,6.8699,6.7821,6.6981,6.6288,6.5923,6.594,6.4549,6.3808,6.3843,6.3189,6.299,6.332,6.2226,6.1719,6.1719,6.1719,6.1719,6.1719,0.0,6.1719,6.1719,6.1719,6.1719,6.1719,6.1719,6.1719,6.1719,6.1719,6.1719,6.1719,0.0,0.0,0.0,0.0,0.0,0.0,0.0,0.0,0.0,0.0,0.0,0.0,0.0,0.0,0.0,0.0,0.0,0.0,0.0,0.0,4.2337,4.1953,4.1517,4.1282,4.125,4.2109,4.2969,4.3789,4.4219,4.4414,4.4375,4.3437,4.2109,4.0469,4.0156,3.9961,3.9922,4.0345,4.073,4.1081,0.0,0.0,0.0,0.0,0.0,0.0,0.0,0.0,0.0,0.0,4.1836,4.1836,4.1836,0.0,0.0,0.0,0.0,0.0,4.1863,4.3523,4.4794,4.3843,4.522,4.6353,4.4578,4.4454,4.4739,4.4708,4.4986,4.5715,4.7313,4.8684,5.1005,5.5313,5.8813,6.1852,6.4243,6.5667,6.6936,6.8237,6.9084,6.9436,6.9122,6.9821,6.9706,6.8398,6.7936,6.7321,6.6519,6.6096,6.5904,6.5904,6.4766,6.3907,6.3439,6.2836,6.2469,6.2366,6.1912,6.1719,6.1719,6.1719,6.1719,6.1719,0.0,6.1719,6.1719,6.1719,6.1719,6.1719,6.1719,6.1719,6.1719,6.1719,6.1719,6.1719,0.0,0.0,0.0,0.0,0.0,0.0,0.0,0.0,0.0,0.0,0.0,0.0,0.0,0.0,0.0,0.0,0.0,0.0,0.0,4.3794,4.3905,4.3942,4.4117,4.3807,4.3047,4.3867,4.4648,4.5312,4.5467,4.5466,4.5232,4.3515,4.2031,4.0781,4.1094,4.082,4.0192,4.0757,4.0968,4.0951,0.0,0.0,0.0,0.0,0.0,0.0,0.0,0.0,0.0,0.0,0.0,0.0,0.0,0.0,0.0,4.1402,4.1099,4.1033,4.1537,4.2842,4.4341,4.5455,4.7255,4.8547,4.7777,4.7302,4.7181,4.7712,4.8342,4.8877,4.923,5.1697,5.5082,5.9396,6.2589,6.4814,6.5667,6.6513,6.7552,6.8814,6.9007,6.9244,6.9937,6.9821,6.9052,6.7513,6.7212,6.675,6.5936,6.5904,6.582,6.559,6.4743,6.3897,6.3051,6.2331,6.1797,6.1434,6.1583,6.1678,6.1719,6.1719,6.1719,6.1719,6.1719,6.1719,6.1719,6.1719,6.1719,6.1719,6.1719,6.1719,6.1719,6.1719,6.1719,6.1719,0.0,0.0,0.0,0.0,0.0,0.0,0.0,0.0,0.0,0.0,0.0,0.0,0.0,0.0,0.0,0.0,0.0,0.0,0.0,4.4226,4.4646,4.4725,4.5504,4.5565,4.4844,4.5664,4.6133,4.6211,4.6897,4.6799,4.5979,4.4371,4.3555,4.3359,4.1875,4.1089,4.0903,4.0977,4.0943,4.0867,4.1673,0.0,0.0,0.0,0.0,0.0,0.0,0.0,0.0,0.0,0.0,0.0,0.0,0.0,4.1205,4.1825,4.1412,4.123,4.3575,4.541,4.645,4.5804,4.574,4.7101,5.1631,5.1482,5.1015,5.3382,5.3921,5.3723,5.2972,5.6203,5.9588,6.1595,6.5359,6.8353,6.9206,7.0014,7.0591,7.0706,7.0706,7.0744,7.0821,7.0129,6.9321,6.8391,6.7552,6.675,6.5936,6.5904,6.5513,6.4705,6.3852,6.3012,6.2172,6.1457,6.1155,6.1304,6.1432,6.158,6.1719,6.1719,6.1719,6.1719,6.1719,6.1719,6.1719,6.1719,6.1719,6.1719,6.1719,6.1719,6.1719,6.1719,6.1719,6.1719,0.0,0.0,0.0,0.0,0.0,0.0,0.0,0.0,0.0,0.0,0.0,0.0,0.0,0.0,0.0,0.0,0.0,0.0,0.0,4.5245,4.5427,4.5466,4.5758,4.5814,4.5556,4.649,4.6959,4.6841,4.6581,4.6058,4.5197,4.4061,4.3217,4.2669,4.146,4.09,4.0869,4.0846,4.1099,4.1585,4.1799,4.2088,0.0,0.0,0.0,0.0,0.0,0.0,0.0,0.0,4.0955,4.1028,4.1541,4.1299,4.1126,4.2405,4.1784,4.1025,4.2419,4.4833,4.6928,4.7124,4.8355,5.0159,5.262,5.3928,5.5049,5.6549,5.7703,5.8165,5.728,5.9737,6.2435,6.4172,6.7128,6.9513,7.0321,7.0706,7.0706,7.0206,7.0167,6.9744,6.8635,6.8744,6.8314,6.6936,6.6551,6.5974,6.5128,6.4589,6.4122,6.3814,6.3468,6.2897,6.2095,6.1825,6.1471,6.1124,6.1387,6.1577,6.1719,6.1719,6.1719,6.1719,6.1719,6.1719,6.1719,6.1719,6.1719,6.1719,6.1719,6.1719,6.1719,6.1719,6.1719,6.1719,0.0,0.0,0.0,0.0,0.0,0.0,0.0,0.0,0.0,0.0,0.0,0.0,0.0,0.0,0.0,0.0,0.0,0.0,4.583,4.5574,4.5524,4.5857,4.585,4.5961,4.6243,4.6906,4.712,4.677,4.6191,4.5626,4.5038,4.4184,4.3501,4.2873,4.2019,4.1611,4.1531,4.1516,4.167,4.1998,4.2406,4.2665,0.0,0.0,0.0,0.0,0.0,0.0,0.0,0.0,4.0819,4.0888,4.1472,4.1266,4.1048,4.2367,4.1931,4.1208,4.2005,4.4081,4.6351,4.7466,4.962,5.2313,5.5318,5.7165,5.8813,6.1044,6.1358,6.1095,6.0781,6.2121,6.3775,6.5243,6.8052,7.0283,7.0821,7.0898,7.0591,6.9821,6.9706,6.9129,6.7667,6.7782,6.7513,6.6365,6.5788,6.5243,6.4628,6.3775,6.316,6.2935,6.2935,6.2512,6.171,6.1672,6.1455,6.104,6.1259,6.1452,6.1634,6.1593,6.1632,6.1635,6.1679,6.1719,6.1719,6.1719,6.1719,6.1719,6.1719,6.1719,6.1719,6.1719,6.1719,6.1719,0.0,0.0,0.0,0.0,0.0,0.0,0.0,0.0,0.0,0.0,0.0,0.0,0.0,0.0,0.0,0.0,0.0,0.0,4.5754,4.5009,4.4892,4.5741,4.5849,4.624,4.6964,4.6999,4.6622,4.5916,4.5916,4.5852,4.578,4.5033,4.4701,4.4662,4.38,4.3301,4.3205,4.3205,4.2683,4.1966,4.3624,4.3316,4.2004,0.0,0.0,0.0,0.0,0.0,0.0,0.0,4.0815,4.0796,4.0743,4.0695,4.0858,4.1601,4.1812,4.2004,4.2854,4.3701,4.4739,4.6504,4.8856,5.2784,6.0402,6.1441,6.2243,6.7353,6.5051,6.2403,6.316,6.3314,6.3622,6.4474,6.8129,7.0898,7.0898,7.0898,7.0591,6.9783,6.9667,6.9321,6.8468,6.759,6.7096,6.7096,6.5513,6.4589,6.4589,6.3737,6.2897,6.2095,6.2095,6.1672,6.0825,6.0787,6.0902,6.1109,6.1109,6.1229,6.1501,6.1434,6.1435,6.1505,6.1635,6.168,6.1719,6.1719,6.1719,6.1719,6.1719,6.1719,6.1719,6.1719,6.1719,6.1719,0.0,0.0,0.0,0.0,0.0,0.0,0.0,0.0,0.0,0.0,0.0,0.0,0.0,0.0,0.0,0.0,0.0,0.0,4.5874,4.5574,4.5548,4.578,4.5747,4.5793,4.5995,4.6034,4.6217,4.6584,4.5974,4.5677,4.5653,4.4824,4.4425,4.4386,4.3568,4.3188,4.3135,4.3135,4.3296,4.3585,4.4085,4.4359,4.4453,0.0,0.0,0.0,0.0,0.0,0.0,0.0,0.0,0.0,4.1303,4.1477,4.1659,4.2486,4.2273,4.185,4.2119,4.412,4.6543,4.824,5.2818,5.828,6.3557,6.3172,6.3172,6.8244,6.7321,6.5519,6.5205,6.559,6.5859,6.5551,6.8052,7.0052,7.0052,7.0052,6.9513,6.8052,6.7859,6.7552,6.6705,6.6404,6.6013,6.5397,6.4314,6.3435,6.2864,6.2012,6.1435,6.1172,6.1172,6.1056,6.0787,6.0787,6.0844,6.0882,6.0882,6.1057,6.1354,6.14,6.1327,6.1214,6.1262,6.1318,6.1419,6.1632,6.1719,6.1719,6.1719,6.1719,6.1719,6.1719,6.1719,6.1719,0.0,0.0,0.0,0.0,0.0,0.0,0.0,0.0,0.0,0.0,4.0976,4.1719,0.0,0.0,0.0,0.0,0.0,0.0,0.0,4.5577,4.5503,4.5783,4.5711,4.5644,4.5594,4.5594,4.5859,4.6394,4.5859,4.5594,4.5594,4.5051,4.4821,4.4782,4.4321,4.409,4.409,4.409,4.4167,4.4316,4.4667,4.4936,4.5069,0.0,0.0,0.0,0.0,0.0,0.0,0.0,0.0,0.0,4.1619,4.1542,4.1508,4.2739,4.2466,4.2119,4.3466,4.5543,4.8197,5.1553,5.6242,6.1204,6.5859,6.7013,6.7975,7.1052,6.9783,6.7975,6.7513,6.7244,6.6942,6.6442,6.8244,6.959,6.9237,6.9161,6.8667,6.7289,6.7096,6.6789,6.5981,6.559,6.5166,6.4628,6.3512,6.2589,6.2133,6.1287,6.0787,6.0787,6.0787,6.0787,6.0787,6.0787,6.0787,6.0787,6.0787,6.0892,6.1108,6.115,6.1108,6.1065,6.1009,6.1022,6.1112,6.1527,6.1719,6.1719,6.1719,6.1719,6.1719,6.1719,6.1719,6.1719,0.0,0.0,0.0,0.0,0.0,0.0,0.0,0.0,0.0,0.0,4.0703,4.1523,0.0,0.0,0.0,0.0,0.0,0.0,0.0,4.523,4.5092,4.579,4.5841,4.5792,4.5599,4.5667,4.5667,4.5594,4.5594,4.5594,4.5594,4.5594,4.5594,4.5594,4.5594,4.5594,4.5594,4.5594,4.5128,4.4474,4.5282,4.5128,4.4513,4.5205,0.0,0.0,0.0,0.0,0.0,0.0,0.0,0.0,4.1696,4.12,4.0896,4.2431,4.2389,4.262,4.5889,4.7466,4.9663,5.5708,5.9556,6.3089,6.7891,7.193,7.4661,7.4507,7.2129,7.0014,6.9937,6.8552,6.7404,6.725,6.859,6.936,6.843,6.8276,6.7975,6.7096,6.6981,6.6673,6.5865,6.5051,6.4551,6.4397,6.298,6.2062,6.1979,6.1248,6.0787,6.0787,6.0787,6.0787,6.0787,6.0787,6.0748,6.0671,6.0671,6.0627,6.0594,6.0748,6.0855,6.0957,6.0867,6.0787,6.0834,6.1376,6.1516,6.14,6.1601,6.1601,6.1445,6.1289,6.1289,6.1406,0.0,0.0,0.0,0.0,0.0,0.0,0.0,0.0,0.0,0.0,0.0,0.0,0.0,0.0,0.0,0.0,0.0,0.0,0.0,4.5813,4.567,4.579,4.6364,4.6331,4.5633,4.6278,4.6278,4.5594,4.5594,4.5594,4.5594,4.5594,4.5594,4.5594,4.5594,4.5594,4.5594,4.5594,4.5475,4.5321,4.5518,4.5475,4.5282,4.4782,4.4898,0.0,0.0,0.0,0.0,0.0,0.0,0.0,4.1012,4.1123,4.147,4.1166,4.1897,4.3278,4.5321,4.7475,5.0702,5.7319,6.4397,7.0366,7.2815,7.4046,7.4315,7.3014,7.2706,7.2469,7.1783,7.0783,6.9667,6.8314,6.9013,6.9167,6.759,6.7366,6.709,6.625,6.6173,6.582,6.4974,6.4705,6.4051,6.2749,6.2287,6.1787,6.1133,6.0902,6.0787,6.0787,6.0787,6.0787,6.0787,6.0787,6.0473,5.9781,5.9781,5.9435,5.8896,6.0204,6.0821,6.0839,6.0816,6.0787,6.0804,6.0935,6.0217,5.921,6.1017,6.0898,5.957,5.8203,5.8242,5.9297,0.0,0.0,0.0,0.0,0.0,0.0,0.0,0.0,0.0,0.0,0.0,0.0,0.0,0.0,0.0,0.0,0.0,0.0,0.0,0.0,4.5798,4.5692,4.6074,4.6052,4.5594,4.6052,4.6052,4.5594,4.5594,4.5594,4.5594,4.5594,4.5594,4.5594,4.5594,4.5594,4.5594,4.5594,4.5594,4.5594,4.5594,4.5594,4.5556,4.509,4.4936,4.4859,4.397,0.0,0.0,0.0,0.0,0.0,0.0,0.0,4.1239,4.1627,4.2085,4.3201,4.6513,4.9279,5.3241,6.166,6.8013,7.2559,7.3815,7.4123,7.3892,7.3014,7.286,7.2476,7.1245,7.0629,6.9783,6.8052,6.8167,6.7859,6.6128,6.5897,6.559,6.4743,6.4666,6.4474,6.4006,6.3628,6.3057,6.2172,6.171,6.1287,6.0825,6.0787,6.0787,6.0787,6.0396,6.0165,6.0165,5.9781,5.9396,5.8934,5.8934,5.8698,5.8319,5.9204,5.9819,6.0165,6.0165,6.0396,6.0798,6.0913,6.049,5.9757,6.0114,6.0336,6.0273,5.9283,5.882,5.9023,0.0,0.0,0.0,0.0,0.0,0.0,0.0,0.0,0.0,0.0,0.0,0.0,0.0,0.0,0.0,0.0,0.0,0.0,0.0,0.0,0.0,4.5599,4.5744,4.5744,4.5594,4.5744,4.5744,4.5594,4.5594,4.5825,4.6244,4.5975,4.5821,4.5821,4.5821,4.5744,4.5594,4.5594,4.5594,4.5594,4.5594,4.5594,4.5594,4.5594,4.5167,4.4513,4.4513,4.409,4.3508,4.3355,0.0,0.0,0.0,0.0,4.0973,4.2277,4.2239,4.2812,4.7471,5.1356,5.6313,6.5622,6.9898,7.1975,7.2853,7.3046,7.3007,7.2853,7.2514,7.1745,7.0206,6.9667,6.8898,6.7173,6.6789,6.6128,6.4589,6.4397,6.4128,6.3391,6.3314,6.3237,6.3121,6.248,6.2056,6.1903,6.121,6.0748,6.0589,6.0589,6.0517,6.0358,5.9665,5.9281,5.9281,5.8621,5.8204,5.8088,5.7934,5.7857,5.7857,5.7857,5.8396,5.9281,5.9281,5.9704,6.0387,6.0658,6.0701,6.0517,5.9596,5.9944,6.0972,6.0555,5.9823,5.9257,0.0,0.0,0.0,0.0,0.0,0.0,0.0,0.0,0.0,0.0,4.2891,4.3398,0.0,0.0,0.0,0.0,0.0,0.0,4.587,0.0,0.0,4.5594,4.6317,4.6355,4.5633,4.6355,4.6355,4.5594,4.5594,4.6744,4.886,4.7394,4.6735,4.6735,4.6735,4.6317,4.5594,4.5594,4.5594,4.5594,4.5594,4.5594,4.5594,4.5594,4.5518,4.5436,4.5436,4.5359,4.5167,4.4397,4.4047,0.0,0.0,0.0,4.1504,4.1012,4.1316,4.2427,4.5321,5.1741,5.9011,6.4782,6.8167,7.0244,7.1052,7.1245,7.1052,7.036,7.1283,7.1905,7.0937,6.9552,6.8007,6.632,6.5436,6.4589,6.3622,6.3468,6.3429,6.3314,6.3314,6.3051,6.2326,6.2172,6.1787,6.1018,6.0864,6.0473,5.9704,5.9665,5.9358,5.866,5.8506,5.8467,5.8467,5.8352,5.7934,5.717,5.6401,5.6055,5.6055,5.6055,5.6934,5.8467,5.8467,5.8544,5.8665,5.915,5.8742,5.7994,6.0382,6.0025,5.81,5.6916,5.7306,5.8515,0.0,0.0,0.0,0.0,0.0,0.0,0.0,0.0,0.0,0.0,0.0,4.3906,0.0,0.0,0.0,4.5535,4.5486,4.5527,4.5728,4.5665,4.5594,4.5594,4.5975,4.5975,4.5594,4.5975,4.5975,4.5594,4.5594,4.7167,5.0091,4.936,4.9279,4.9659,4.8735,4.7817,4.6932,4.6013,4.5594,4.5594,4.5594,4.5594,4.5594,4.5594,4.5594,4.5556,4.5051,4.4859,4.4744,4.3893,4.3316,4.2773,4.2043,0.0,0.0,0.0,4.1123,4.2889,4.7774,5.2587,5.7511,6.3051,6.5282,6.6583,6.8359,6.8783,6.8821,6.893,6.9552,6.9783,6.8936,6.7782,6.659,6.5359,6.4436,6.3583,6.2743,6.2627,6.2435,6.1973,6.1897,6.1743,6.1402,6.1364,6.121,6.0825,6.0358,5.9896,5.9511,5.9088,5.8665,5.8313,5.7819,5.7555,5.7555,5.7088,5.6665,5.6285,5.5862,5.5708,5.5708,5.5708,5.6401,5.7594,5.8088,5.8313,5.8407,5.9652,5.9586,5.8843,6.0797,6.0877,5.9867,5.927,5.9558,6.0234,0.0,0.0,0.0,0.0,0.0,0.0,0.0,0.0,0.0,0.0,0.0,0.0,0.0,0.0,0.0,0.0,4.5942,4.5804,4.562,4.5594,4.5594,4.5594,4.5594,4.5594,4.5594,4.5594,4.5594,4.5594,4.5821,4.7783,5.1323,5.1553,5.2433,5.3736,5.1395,4.9663,4.8317,4.686,4.6244,4.6206,4.5782,4.5475,4.5282,4.5518,4.5475,4.5205,4.4782,4.4628,4.4551,4.3936,4.3316,4.2696,4.2273,4.1662,0.0,0.0,0.0,4.2696,4.8428,5.1236,5.3933,5.9621,6.1698,6.3006,6.5551,6.6327,6.6705,6.759,6.7583,6.7314,6.6865,6.6134,6.5282,6.4397,6.3358,6.2474,6.1864,6.1787,6.1518,6.0864,6.0787,6.0787,6.0787,6.0787,6.0787,6.0787,6.0204,5.9627,5.9204,5.8627,5.8088,5.7665,5.7016,5.667,5.667,5.6016,5.5708,5.5708,5.5708,5.5708,5.5708,5.5708,5.6055,5.6709,5.7357,5.7627,5.772,5.9094,5.9336,5.892,5.9643,6.0313,6.0898,6.1484,6.1719,6.1679,0.0,0.0,0.0,0.0,0.0,0.0,0.0,0.0,0.0,0.0,0.0,0.0,4.606,4.6055,4.6029,4.5937,4.5847,4.5751,4.5607,4.5594,4.5594,4.5594,4.5594,0.0,4.5594,4.5594,4.5594,4.5594,4.6432,4.8966,5.3082,5.3933,5.6011,5.8934,5.4818,5.1625,4.9279,4.8355,4.7966,4.7817,4.6244,4.509,4.4474,4.5282,4.509,4.4474,4.5244,4.5513,4.5518,4.5475,4.5436,4.5128,4.3547,4.3008,4.2624,0.0,0.0,0.0,4.3936,4.597,4.8543,5.3664,5.7357,6.0358,6.2929,6.4122,6.4974,6.5859,6.5359,6.5051,6.582,6.5243,6.4397,6.3506,6.2012,6.0941,6.0864,6.0864,6.0864,6.0825,6.0787,6.0787,6.0787,6.0787,6.0787,6.0787,6.0748,6.005,5.8434,5.8313,5.755,5.5901,5.5785,5.5785,5.5785,5.5708,5.5708,5.5708,5.5708,5.5708,5.5708,5.5708,5.5708,5.5785,5.5824,5.5824,5.5824,5.5955,5.6077,5.6187,5.604,5.6993,5.875,6.0898,6.1719,6.1719,0.0,0.0,0.0,0.0,0.0,0.0,0.0,0.0,0.0,0.0,0.0,0.0,0.0,4.5976,4.5935,4.5842,4.5751,4.564,4.5599,4.5594,4.5594,4.5594,4.5594,4.5594,4.5594,4.5594,4.5594,4.5594,4.5898,4.7663,5.0779,5.1669,5.328,5.539,5.4472,5.2895,5.0851,4.8389,4.7009,4.6436,4.5821,4.5398,4.5167,4.5475,4.5398,4.5167,4.5475,4.5594,4.5594,4.5594,4.5244,4.459,4.3431,4.2739,4.2043,4.0858,4.0516,4.1054,4.3628,4.4778,4.6317,5.0938,5.378,5.6126,5.8671,6.0742,6.2397,6.3288,6.4051,6.4512,6.4282,6.3968,6.366,6.3352,6.1897,6.0787,6.0787,6.0787,6.0787,6.0787,6.0787,6.0787,6.0787,6.0521,6.0345,6.0345,5.9097,5.8037,5.7414,5.6402,5.5572,5.4957,5.518,5.5205,5.4934,5.5439,5.5439,5.4934,5.5439,5.5708,5.5708,5.5708,5.5708,5.5708,5.5708,5.5708,5.5785,5.6896,5.7091,5.6807,5.8374,5.937,6.006,6.1265,6.1454,6.1172,0.0,0.0,0.0,0.0,0.0,0.0,0.0,0.0,0.0,4.6017,0.0,0.0,0.0,0.0,4.5869,4.5796,4.568,4.5594,4.5594,4.5594,4.5594,4.5594,4.5594,4.5594,4.5594,4.5898,4.5898,4.5594,4.6167,4.7475,4.9433,5.0284,5.1592,5.3197,5.351,5.3159,5.2159,4.9659,4.7932,4.6821,4.6244,4.5859,4.571,4.6552,4.6513,4.6129,4.6667,4.6513,4.5975,4.5706,4.5205,4.459,4.3778,4.2739,4.1619,4.0743,4.0516,4.0862,4.2551,4.3239,4.4509,4.8745,5.0664,5.2395,5.5785,5.7863,5.9479,6.0941,6.2358,6.3243,6.2935,6.2666,6.2545,6.2858,6.1473,6.0358,6.0358,6.0127,6.005,6.0319,6.0358,6.0432,6.0559,6.0297,6.0014,5.9878,5.8538,5.7494,5.692,5.5872,5.4937,5.4077,5.4305,5.4215,5.3654,5.4334,5.438,5.3881,5.4858,5.5285,5.5324,5.5593,5.5708,5.5708,5.5708,5.5708,5.5785,5.6934,5.7093,5.6747,5.844,5.9787,6.0845,6.125,6.1182,6.0969,0.0,0.0,0.0,0.0,0.0,0.0,0.0,0.0,4.5914,4.5914,0.0,0.0,0.0,0.0,0.0,4.5903,4.5792,4.571,4.5633,4.5633,4.5633,4.5594,4.5594,4.5594,4.5594,4.6432,4.6432,4.5594,4.724,4.8471,4.9317,5.0168,5.1476,5.3044,5.2197,5.2313,5.3082,5.2159,5.0851,4.924,4.7582,4.6432,4.6052,4.8437,4.8394,4.7235,4.8817,4.8355,4.6889,4.5975,4.5667,4.5513,4.459,4.3162,4.1658,4.0819,4.0554,4.0554,0.0,0.0,0.0,4.6889,4.7966,4.9317,5.428,5.5478,5.6242,5.8781,6.0012,6.0902,6.1787,6.1287,6.0979,6.1826,6.0544,5.9456,5.9444,5.8752,5.856,5.9329,5.9444,5.9593,6.001,6.0043,5.9832,5.9407,5.9325,5.8592,5.6962,5.6811,5.5688,5.3269,5.3193,5.2802,5.1971,5.237,5.2571,5.2577,5.3826,5.4418,5.4462,5.5231,5.5621,5.5631,5.567,5.567,5.567,5.5708,5.5708,5.5708,5.5747,5.7786,6.0748,6.0787,6.091,6.1101,0.0,0.0,0.0,0.0,0.0,0.0,4.5882,4.5841,4.5849,0.0,0.0,0.0,4.6611,4.7727,4.8436,4.842,4.8358,4.7817,4.6624,4.6547,4.6278,4.5633,4.5594,4.5594,4.5594,4.5821,4.5821,4.5594,4.6052,4.6436,4.6667,4.7548,4.8856,5.0433,5.0202,5.0587,5.1284,4.9779,4.924,4.924,4.7582,4.8197,5.0043,4.8889,4.8933,4.963,4.9471,4.9514,4.9437,4.7894,4.7394,4.7048,4.497,4.3585,4.2701,4.2431,4.1931,4.1431,4.1431,0.0,0.0,0.0,0.0,0.0,4.874,5.0279,5.1856,5.4434,5.6088,5.7363,5.8253,5.8742,5.8858,5.8478,5.8252,5.8012,5.7718,5.7491,5.7445,5.7681,5.7681,5.797,5.8662,5.8426,5.8419,5.8876,5.7513,5.6434,5.5969,5.4859,5.3775,5.2807,5.2787,5.2227,5.1118,5.1809,5.186,5.1322,5.223,5.2831,5.3133,5.3368,5.3633,5.3933,5.4549,5.4818,5.4895,5.5478,5.5708,5.5785,5.6593,5.8017,5.9671,6.0517,6.0855,6.0913,0.0,0.0,0.0,0.0,0.0,4.6936,4.7282,4.7312,4.7318,0.0,0.0,0.0,4.7983,4.9534,5.0229,4.9534,4.9412,4.8817,4.7505,4.7389,4.7005,4.6163,4.6124,4.5975,4.5594,4.5975,4.5975,4.5594,4.5975,4.6124,4.6163,4.6658,4.7582,4.8856,4.924,4.9279,4.9086,4.8394,4.8394,4.8856,4.8586,4.9851,5.1885,5.1856,5.2207,5.2784,5.2631,5.2438,5.2015,5.0274,4.8966,4.7658,4.5086,4.397,4.3547,4.3201,4.2739,4.235,4.235,4.197,4.1858,4.3085,0.0,0.0,4.6428,4.7355,4.8552,5.1087,5.2664,5.3862,5.4703,5.528,5.5391,5.4735,5.4823,5.5154,5.5647,5.5253,5.5189,5.5861,5.5975,5.6346,5.7307,5.7454,5.7478,5.7402,5.6591,5.5794,5.5144,5.3885,5.2782,5.1889,5.1871,5.1184,4.9758,5.0403,5.0452,5.0031,5.1013,5.1627,5.1874,5.2185,5.2558,5.2998,5.3497,5.4024,5.4549,5.5016,5.5401,5.5824,5.694,5.8401,5.9902,6.0556,6.0787,6.0821,0.0,0.0,0.0,4.7245,4.7944,4.8702,4.9663,4.974,4.9702,0.0,4.924,4.9237,5.031,5.1679,5.1912,5.0407,5.001,4.9394,4.8471,4.8317,4.7851,4.6928,4.7005,4.6624,4.5744,4.6586,4.6663,4.5859,4.6663,4.7043,4.7043,4.7043,4.7466,4.8274,4.8933,4.8432,4.7081,4.7812,4.8159,4.8394,5.0053,5.1395,5.2774,5.5747,5.6478,5.6093,5.6747,5.6093,5.4626,5.2813,5.0428,4.7817,4.547,4.4662,4.4432,4.3624,4.3316,4.3239,4.3239,4.3239,4.3585,4.4975,4.4397,0.0,4.6043,4.5932,4.609,4.836,4.9437,5.0284,5.1274,5.1462,5.1341,5.0991,5.0982,5.1631,5.3382,5.2648,5.2484,5.4057,5.4199,5.4709,5.5956,5.6754,5.6729,5.5666,5.6088,5.5746,5.4216,5.3361,5.2223,5.0729,5.0655,4.9884,4.8333,4.863,4.8847,4.8847,4.9968,5.0553,5.0598,5.133,5.189,5.2266,5.2418,5.3163,5.432,5.4423,5.4972,5.5824,5.694,5.8671,6.0512,6.0633,6.0704,6.0787,0.0,4.6781,4.7459,4.9611,5.0081,5.0707,5.2241,5.1851,5.1659,5.2351,5.2933,5.3839,5.5386,5.5237,5.489,5.4544,5.3266,5.1818,5.0284,4.9553,4.8471,4.6966,4.7505,4.7466,4.6658,4.7466,4.7774,4.7625,4.7774,4.7851,4.7851,4.7851,4.8317,4.9125,4.8586,4.8159,4.7889,4.8043,4.8509,4.924,5.0284,5.2823,5.6016,5.5978,5.6703,5.7703,5.717,5.7247,5.7203,5.4818,5.1818,4.8933,4.774,4.6889,4.6235,4.5359,4.4628,4.4085,4.4085,4.4085,4.397,4.3662,4.4893,0.0,4.4201,4.4201,4.4705,4.5201,4.5436,4.6201,4.8428,4.8851,4.8832,4.874,4.9034,4.989,5.1573,5.1585,5.1691,5.2395,5.2503,5.3081,5.4628,5.4901,5.5153,5.5559,5.4546,5.3482,5.2527,5.172,5.0839,4.9858,4.9821,4.9344,4.8296,4.8364,4.8411,4.8411,4.867,4.896,4.928,4.9438,4.9707,5.0168,5.1116,5.208,5.3038,5.4079,5.4972,5.5785,5.6709,5.7786,5.8858,5.9511,6.0204,6.0787,4.692,4.7662,4.887,5.0952,5.201,5.3169,5.4824,5.4703,5.4587,5.5049,5.5857,5.6549,5.694,5.7016,5.6472,5.5203,5.3933,5.2472,5.0822,5.0284,4.9476,4.8202,4.8548,4.8355,4.7505,4.7889,4.8082,4.8082,4.8082,4.8312,4.874,4.874,4.8971,4.9394,4.9394,4.8894,4.812,4.8548,4.924,5.0207,5.19,5.4362,5.7093,5.794,5.8781,5.9473,5.9056,5.8896,5.8396,5.4972,5.301,5.1471,4.8894,4.8432,4.8548,4.724,4.6547,4.6009,4.5167,4.4936,0.0,4.5009,4.5316,0.0,0.0,4.3662,4.3278,4.4124,4.3624,4.3701,4.5817,4.5893,4.5893,4.6701,4.705,4.7711,4.9216,4.9618,4.9973,5.0631,5.0917,5.1663,5.3299,5.4034,5.4399,5.4399,5.3298,5.2234,5.1426,5.1022,5.0435,4.9647,4.961,4.9197,4.8296,4.871,4.871,4.8296,4.8746,4.8844,4.8604,4.8604,4.8822,4.921,4.9845,5.0803,5.2017,5.3098,5.4161,5.5285,5.6978,5.7934,5.8434,5.9704,6.0435,6.0787,4.6988,4.8167,4.974,5.1582,5.3351,5.5131,5.6978,5.7099,5.7137,5.744,5.8396,5.8819,5.8286,5.8704,5.8396,5.6819,5.4655,5.3145,5.2669,5.1355,5.023,4.9433,4.9548,4.9163,4.812,4.8432,4.8586,4.8586,4.8586,4.8971,4.9668,4.9668,4.9668,4.9668,5.0207,4.9745,4.8663,4.9356,5.0322,5.163,5.4016,5.5708,5.7016,5.9594,6.055,6.0556,6.0748,6.0242,5.8973,5.539,5.4434,5.4087,5.0279,4.9933,5.063,4.9048,4.8586,4.8317,4.6937,0.0,0.0,0.0,0.0,4.5893,0.0,0.0,0.0,4.3662,4.2735,4.2196,4.3585,4.3278,4.3278,4.4667,4.5282,4.586,4.6538,4.7244,4.8118,4.9271,4.9581,5.0385,5.2083,5.3008,5.3304,5.2872,5.1881,5.1059,5.0582,5.0398,4.9958,4.9123,4.927,4.894,4.8076,4.894,4.9013,4.8296,4.9013,4.8976,4.8296,4.8296,4.8486,4.8787,4.8881,4.9785,5.1294,5.2209,5.3339,5.4703,5.6934,5.8011,5.8467,5.9819,6.0512,6.0787,4.6929,4.7638,4.9005,5.1462,5.3351,5.5318,5.778,5.7517,5.7517,5.9011,6.0633,6.1903,6.2506,6.2056,6.2441,6.4442,5.7978,5.5477,5.9385,5.3707,4.9942,4.9423,5.013,4.9784,4.812,4.963,5.0399,5.0399,5.0399,5.0476,5.0553,5.0553,5.0553,5.0515,4.9861,4.9861,5.0399,5.0515,5.19,5.4203,5.6016,5.6362,5.6132,5.8665,5.9665,5.9742,6.0512,6.0242,5.9319,5.8121,5.6742,5.5208,5.3241,5.2236,5.1582,5.0668,5.0399,5.0361,5.0168,0.0,0.0,0.0,5.0082,0.0,4.5624,0.0,4.5504,4.2658,0.0,4.185,4.2043,0.0,0.0,4.2196,4.4128,4.512,4.3773,4.4904,4.6756,4.9103,4.8814,4.9202,5.1262,5.0664,5.0522,5.1454,4.9768,4.9003,4.9711,4.9003,4.8223,4.7406,4.8076,4.8076,4.7223,4.8039,4.8416,4.8296,4.8416,4.8416,4.8296,4.8296,4.8335,4.8374,4.8744,4.9621,5.0948,5.2119,5.3339,5.4587,5.5588,5.6934,5.8313,5.8511,5.9511,6.0787,4.7428,4.8663,5.024,5.2313,5.3664,5.5357,5.789,6.0089,6.1473,6.166,6.3205,6.4782,6.6122,6.5089,6.4749,6.5827,6.1196,5.8565,5.9302,5.4873,5.2491,5.3038,5.1972,5.1279,5.1043,5.0822,5.0707,5.0707,5.0707,5.0707,5.0707,5.0707,5.0438,4.9938,5.0091,5.0486,5.0996,5.1275,5.2708,5.4891,5.5863,5.6324,5.6747,5.9281,6.0242,6.0281,6.0671,6.0556,5.9973,5.8159,5.739,5.6819,5.4626,5.401,5.3857,5.2549,5.2164,5.1933,5.0976,0.0,0.0,0.0,0.0,0.0,4.7086,0.0,4.5124,0.0,0.0,0.0,0.0,0.0,0.0,0.0,4.3047,4.3316,4.3124,4.3278,4.4536,4.758,4.7402,4.7875,4.9982,4.9758,4.95,4.9492,4.8712,4.8203,4.8108,4.7735,4.7399,4.7071,4.7834,4.7971,4.7447,4.8714,4.8984,4.8296,4.882,4.8783,4.8306,4.8532,4.8504,4.8344,4.8953,4.9536,5.0181,5.1909,5.3033,5.3895,5.5203,5.6478,5.7671,5.8627,5.9435,6.0127,4.7778,4.9125,5.0438,5.1895,5.328,5.5088,5.7857,6.0896,6.3014,6.3405,6.455,6.6235,6.8671,6.8074,6.7914,6.9054,6.5601,6.2791,6.1555,5.7617,5.5336,5.5379,5.3818,5.2813,5.251,5.1779,5.1169,5.0707,5.0707,5.0822,5.1015,5.0784,5.0476,5.0125,5.0741,5.1535,5.2448,5.2909,5.4429,5.662,5.6815,5.7355,5.8209,5.9825,6.0589,6.0787,6.0787,6.0787,6.0473,5.839,5.8121,0.0,5.6203,5.578,5.5785,5.4318,5.3895,5.3587,5.213,0.0,0.0,0.0,0.0,0.0,0.0,0.0,0.0,0.0,4.4662,0.0,0.0,0.0,0.0,0.0,0.0,4.2273,4.2701,4.2196,4.2966,4.6163,4.6548,4.7122,4.859,4.8551,4.8209,4.771,4.7589,4.7276,4.6687,4.6883,4.7003,4.701,4.7778,4.81,4.7884,4.9259,4.9511,4.8631,4.9269,4.9223,4.864,4.8911,4.8915,4.8667,4.9241,4.9554,4.9831,5.1789,5.2841,5.3351,5.5049,5.6093,5.6863,5.855,5.9319,5.9627,4.7778,4.8159,4.8471,4.9356,5.1587,5.439,5.7775,5.839,5.9765,6.3322,6.3848,6.5526,6.9858,7.0981,7.3042,7.707,7.1741,6.8558,6.9447,6.2994,5.7756,5.4676,5.5208,5.4054,5.0861,5.2318,5.2318,5.0707,5.0707,5.1087,5.1846,5.1048,5.1087,5.1808,5.1846,5.3231,5.5594,5.5925,5.7831,6.0586,6.0085,6.0198,6.0589,5.9819,6.0089,6.0787,6.0787,6.0787,0.0,5.9742,5.9435,0.0,0.0,0.0,0.0,0.0,0.0,0.0,0.0,0.0,0.0,5.1707,0.0,0.0,0.0,0.0,4.7278,0.0,0.0,0.0,0.0,0.0,0.0,0.0,0.0,0.0,0.0,4.1812,4.2773,4.5321,4.6717,4.733,4.7031,4.6317,4.6025,4.6344,4.6076,4.5834,4.5755,4.6529,4.7016,4.7006,4.7792,4.8214,4.8273,4.9112,4.9505,4.946,4.949,4.949,4.946,4.9467,4.9467,4.946,4.9482,4.9707,5.0214,5.1884,5.2841,5.3351,5.5049,5.5708,5.5939,5.7703,5.8813,5.9627,4.9707,5.0702,5.1202,5.0399,5.1395,5.3851,5.8396,6.0751,6.4,6.9547,7.0281,7.2585,7.8681,7.9087,7.9501,8.093,7.821,7.5332,7.2788,6.8308,6.5155,6.3939,6.0789,5.8688,5.7806,5.5867,5.3999,5.2275,5.1765,5.1792,5.2356,5.1231,5.1125,5.1923,5.2505,5.3695,5.532,5.6543,5.78,5.9034,5.9153,6.0205,6.1556,6.071,6.055,6.0787,6.0787,6.0787,0.0,6.0473,5.9973,5.9435,5.9165,5.8511,5.7703,5.6824,5.6973,5.7242,0.0,0.0,5.6401,5.3862,0.0,0.0,0.0,0.0,0.0,0.0,0.0,0.0,0.0,0.0,0.0,0.0,0.0,0.0,0.0,4.1812,4.2119,4.297,4.4425,4.5136,4.4462,4.4657,4.4852,4.4983,4.4867,4.5041,4.5615,4.592,4.6346,4.6925,4.7728,4.8283,4.8612,4.9486,4.9748,4.9496,4.9496,4.9496,4.9504,4.9792,4.9734,4.9525,5.0043,5.0212,5.0244,5.2181,5.308,5.3351,5.5049,5.6055,5.6709,5.7857,5.8467,5.8896,5.1977,5.2664,5.2972,5.2207,5.3322,5.5729,5.9926,6.3504,6.7684,7.3187,7.467,7.7483,8.3499,8.369,8.3601,8.4175,8.312,8.0148,7.4921,7.3023,7.0753,6.7672,6.5314,6.3272,6.1516,5.9076,5.6409,5.3513,5.3156,5.2871,5.2571,5.1601,5.1395,5.1962,5.3121,5.4329,5.5594,5.7704,5.8759,5.9029,5.9008,5.9861,6.1082,6.0502,6.07,6.121,0.0,6.0787,6.0787,6.0787,6.0435,5.9973,5.9973,5.9396,5.855,5.7703,5.7857,5.8127,5.7247,5.6983,0.0,5.4939,5.301,0.0,4.8625,0.0,4.8548,0.0,0.0,0.0,0.0,0.0,0.0,0.0,0.0,0.0,0.0,4.1354,4.1354,4.1354,4.2854,4.3778,4.3547,4.3739,4.3739,4.3431,4.397,4.4436,4.4705,4.5282,4.6129,4.7274,4.7812,4.8538,4.9472,5.0013,5.0183,4.993,4.993,4.993,4.9936,5.0189,5.0324,5.0374,5.0593,5.0876,5.1293,5.2668,5.339,5.3818,5.5516,5.6516,5.7099,5.7973,5.8665,5.9358,5.4395,5.4087,5.3933,5.4741,5.692,5.9512,6.2277,6.6248,7.0361,7.4283,7.6952,8.0133,8.4492,8.5026,8.5651,8.7068,8.6566,8.3329,7.6661,7.7503,7.4669,6.6606,6.895,6.7867,6.2315,6.1996,5.9538,5.471,5.4949,5.4253,5.2729,5.216,5.1885,5.1962,5.378,5.519,5.6453,5.9358,6.0619,6.0597,5.9703,5.941,5.9473,5.9436,6.0487,6.1937,6.1065,6.0769,6.0787,6.0787,6.0787,6.0787,6.0787,6.0242,5.9396,5.8583,5.8396,5.8242,5.7363,5.7093,5.667,5.5131,5.3972,0.0,0.0,0.0,5.0322,0.0,0.0,0.0,0.0,0.0,0.0,0.0,0.0,0.0,0.0,0.0,4.0593,4.0631,4.2051,4.3316,4.4047,4.347,4.2701,4.185,4.3278,4.3893,4.3201,4.4667,4.6321,4.8043,4.8082,4.8933,5.0668,5.0707,5.0707,5.0707,5.0707,5.0707,5.0707,5.0707,5.1125,5.1846,5.1087,5.1707,5.3197,5.3236,5.3741,5.4664,5.6285,5.6983,5.717,5.805,5.9396,6.0787,5.5478,5.8242,6.0589,6.021,5.8349,5.8832,6.448,6.6891,7.0747,7.8065,8.2638,8.6443,8.9613,9.1034,9.1169,8.9801,9.0477,8.9269,8.5164,8.4912,8.2987,7.8606,7.649,7.3843,7.0453,6.6745,6.3462,6.0609,5.7195,5.5269,5.4775,5.2812,5.1885,5.2,5.4357,5.5544,5.6045,5.9241,6.0426,6.0023,5.9211,5.9497,6.0283,5.9662,6.0081,6.0979,6.0459,6.0502,6.0787,6.0787,6.0787,6.0787,6.0787,6.0666,6.0281,5.9435,5.9665,5.9973,5.9088,5.8434,5.8011,5.8165,5.5703,5.3121,0.0,0.0,0.0,0.0,0.0,0.0,0.0,0.0,0.0,0.0,0.0,0.0,0.0,0.0,4.17,4.2354,4.2277,4.197,4.1512,4.1854,4.2043,4.1812,4.2196,4.2893,4.3932,4.4397,4.5701,4.8043,4.8082,4.8933,5.0668,5.0707,5.0707,5.0707,5.0707,5.0707,5.0707,5.0707,5.1125,5.1885,5.1697,5.2197,5.3236,5.3895,5.428,5.4587,5.5631,5.6824,5.8088,5.8896,5.9858,6.0787,5.8074,6.1998,6.5198,6.4764,6.3993,6.4723,6.8546,6.9851,7.2876,7.986,8.4332,8.7576,8.9469,9.1767,9.2764,9.1739,9.179,9.0637,8.7772,8.7613,8.5822,8.1734,8.0065,7.7446,7.3606,6.9279,6.5586,6.2567,5.8665,5.6262,5.533,5.3772,5.2813,5.2544,5.4741,5.5667,5.5818,5.837,5.9737,6.003,5.8857,5.8857,0.0,5.8972,5.9337,6.0092,5.9872,6.0103,6.0514,6.074,6.0787,6.0787,6.0787,6.0787,6.0704,6.0204,6.0435,6.071,6.0204,5.9473,5.8929,5.9396,5.7434,5.528,5.4626,5.4126,5.3395,0.0,5.1587,5.1164,0.0,0.0,0.0,0.0,0.0,0.0,0.0,0.0,4.2543,4.3047,4.297,4.2547,4.1704,4.2085,4.2043,4.1277,4.2277,4.3162,0.0,4.4474,4.5855,4.8043,4.8856,4.9707,5.0707,5.1438,5.1438,5.0707,5.0707,5.0899,5.1202,5.1202,5.1895,5.3005,5.262,5.3159,5.4308,5.4215,5.4512,5.5164,5.6357,5.7665,5.8934,5.9742,6.0396,6.0787,6.1156,6.5171,6.8309,6.8032,7.0964,7.3504,7.4059,7.4657,7.6661,8.1195,8.4873,8.7223,8.7582,9.0313,9.2322,9.2798,9.1651,8.9992,8.7839,8.816,8.622,8.1103,8.162,7.9664,7.4596,7.0685,6.6825,6.3019,5.9666,5.7048,5.5154,5.4697,5.4049,5.3274,5.4896,5.5719,5.5934,5.7323,5.8837,6.0114,5.8621,5.807,5.8143,5.8033,5.8524,5.9221,5.9354,5.976,6.0231,6.0653,6.0787,6.0787,6.0787,6.0787,6.0787,6.0787,6.0787,6.0787,6.0787,6.0165,5.9511,5.9627,5.8973,5.7736,5.5626,5.5088,5.4741,5.3895,5.2438,5.1746,0.0,0.0,0.0,0.0,0.0,0.0,0.0,0.0,4.3278,4.3278,4.3855,0.0,4.3316,4.3278,4.2585,4.0973,4.2897,4.3893,0.0,0.0,4.6244,4.8043,4.9668,5.0707,5.1015,5.2472,5.2549,5.1207,5.1092,5.1395,5.2077,5.2077,5.2967,5.4434,5.3622,5.4183,5.5511,5.4371,5.4594,5.5802,5.7532,5.8664,5.9473,6.0441,6.0787,6.0787,6.2503,6.7186,7.0395,6.8344,7.3098,7.8112,8.0814,8.1778,8.3086,8.5614,9.0493,9.2994,9.1159,9.2656,9.3304,9.2109,9.2353,9.2396,9.196,9.1346,8.9686,8.6757,8.4773,8.2174,7.8819,7.2459,6.8376,6.6756,6.0678,5.6937,5.5492,5.4808,5.4049,5.3264,5.4591,5.5943,5.7181,5.7461,5.8295,5.9343,5.8364,5.84,5.8902,5.8253,5.8097,5.8332,5.9112,5.9939,6.0671,6.0769,6.0787,6.0787,6.0787,6.0787,6.0787,6.0787,6.0787,6.0787,6.0787,6.0165,5.9665,6.0396,5.9435,5.8352,5.8588,5.8127,5.7396,5.6516,5.5516,5.4472,5.3395,0.0,0.0,0.0,0.0,0.0,0.0,0.0,4.4085,4.4085,4.4201,4.4239,4.4085,4.4085,4.3701,4.2701,4.3047,4.3547,0.0,0.0,4.5624,0.0,4.9086,5.0625,0.0,0.0,5.3395,5.3823,5.3126,5.2856,5.2967,5.2967,5.3549,5.4462,5.3934,5.4276,5.5173,5.4609,5.4719,5.5358,5.7039,5.8055,5.8704,6.0242,6.0787,6.0787,6.7423,7.041,7.2917,7.3411,7.794,8.26,8.584,8.7693,8.8316,8.7159,8.8988,8.9992,8.8809,9.1255,9.2824,9.2471,9.2399,9.2364,9.2338,9.1168,8.9379,8.7031,8.4809,8.2235,7.9244,7.2869,6.8872,6.7418,0.0,0.0,5.6618,5.5182,5.4378,5.4176,5.4352,5.5789,5.807,5.7412,5.8183,5.9783,5.9391,5.9233,5.9159,5.8756,5.8521,5.8461,5.9139,5.9855,6.0476,6.0728,6.0787,6.0787,6.0787,6.0787,6.0787,6.0787,6.0787,6.0787,6.0787,6.0473,6.0281,6.071,6.0204,5.9588,5.9511,5.9204,5.855,5.7286,5.667,5.5708,5.3587,5.1125,0.0,0.0,0.0,0.0,0.0,0.0,4.6124,4.5701,4.5663,4.547,4.5013,4.5393,4.4932,4.3239,4.3897,4.4359,4.4316,0.0,4.5932,0.0,0.0,0.0,5.2505,0.0,5.428,5.3818,5.339,5.3433,5.3857,5.3857,5.4238,5.4806,5.5014,5.5213,5.5397,5.5197,5.5319,5.5797,5.7094,5.8001,5.8732,6.026,6.0787,6.0787,7.2767,7.4282,7.6166,7.9103,8.3104,8.6664,8.9033,9.1638,9.2207,8.8977,8.7692,8.7068,8.7068,8.9895,9.2072,9.2699,9.2029,9.1538,9.1474,9.0003,8.8115,8.5894,8.3935,8.1629,7.8898,7.3108,6.9038,0.0,0.0,0.0,0.0,5.5427,5.4693,5.4553,5.4202,5.5554,5.7998,5.7354,5.8437,6.0639,6.0456,6.0003,5.9453,5.9269,5.8943,5.8611,5.9065,5.9484,5.9878,6.0345,6.0634,6.0787,6.0787,6.0787,6.0787,6.0787,6.0787,6.0787,6.0787,6.0787,6.0787,6.0787,6.0787,6.0633,5.9935,5.9781,5.9358,5.7824,5.7247,5.6324,5.4126,5.1933,0.0,0.0,0.0,0.0,0.0,0.0,4.8005,0.0,0.0,0.0,4.5667,4.6201,4.5778,4.3778,4.4859,4.5282,4.4628,0.0,0.0,0.0,0.0,5.1813,5.2159,0.0,5.5126,5.401,5.3818,5.4087,5.4741,5.4741,5.496,5.5406,5.5919,5.5988,5.5688,5.5688,5.5883,5.6302,5.7337,5.8163,5.8956,6.0321,6.0787,6.0787,7.6352,7.8694,8.0849,8.2647,8.6867,8.9877,8.9473,9.2134,9.4042,9.3675,9.2207,9.1216,9.1216,9.1583,9.184,9.1893,9.1197,9.0701,9.0717,8.9213,8.7545,8.5857,8.3553,8.1459,7.9743,7.4111,6.9288,0.0,0.0,5.8707,0.0,0.0,0.0,5.2904,5.428,5.5273,0.0,5.7333,5.9281,6.141,6.0676,6.0346,6.0224,5.949,5.8717,5.813,5.8601,5.8786,5.8903,5.9363,6.0103,6.0787,6.0787,6.0787,6.0787,6.0787,6.0787,6.0787,6.0787,6.0787,6.0787,6.0787,6.0787,6.0787,6.071,6.0671,6.0396,5.9473,5.8055,5.667,5.567,5.4664,5.3285,0.0,0.0,0.0,0.0,0.0,4.8702,4.7081,0.0,0.0,4.5667,4.5667,4.5629,4.5359,4.5518,4.5556,4.5475,0.0,0.0,4.6966,4.9471,5.1548,5.3044,5.4818,5.6016,5.6632,5.5824,5.5516,5.5593,5.5593,5.5803,5.6172,5.5898,5.5686,5.559,5.559,5.5844,5.6338,5.7647,5.8417,5.8956,6.0321,6.0787,6.0787,8.2113,8.2443,8.3711,8.7802,8.8867,9.0041,9.2666,9.3382,9.3565,9.3565,9.2537,9.1803,9.1803,9.1803,9.1803,9.1803,9.1069,9.0408,8.9913,8.883,8.7252,8.5159,8.3691,8.1929,7.9853,7.5652,7.1711,0.0,0.0,0.0,0.0,0.0,0.0,0.0,0.0,5.6691,5.7886,5.9465,6.0725,6.1679,6.2328,6.1998,6.1043,6.0236,5.9416,5.8727,5.8693,5.8713,5.8766,5.923,5.9633,5.9954,5.9954,6.0154,6.0324,6.0021,6.0154,6.0324,6.0052,5.9954,5.9954,5.9954,6.0168,6.0371,6.0371,6.061,6.055,5.9665,5.8171,5.6901,5.6555,5.4972,5.3703,5.3708,0.0,0.0,0.0,0.0,0.0,4.714,0.0,4.5448,4.5311,4.5288,4.5709,4.6715,4.6052,4.5594,0.0,0.0,0.0,4.6889,0.0,5.1246,5.2428,5.4587,5.5862,5.6209,5.6401,5.6478,5.6516,5.7011,5.7453,5.7766,5.7099,5.703,5.7407,5.6647,5.6698,5.7317,5.7638,5.8362,5.9251,6.0081,6.0578,6.0864,8.6885,8.6297,8.7178,9.2391,9.1657,9.1436,9.4666,9.3969,9.3015,9.2758,9.217,9.1803,9.1803,9.1583,9.1546,9.1767,9.0849,8.9987,8.9436,8.8647,8.7105,8.4719,8.3618,8.2039,7.9853,7.6827,7.367,7.044,6.6499,0.0,0.0,0.0,0.0,0.0,5.7985,5.9049,6.0003,6.163,6.234,6.245,6.3625,6.3111,6.152,6.097,6.026,5.9512,5.9279,5.9208,5.9224,5.9313,5.9327,5.9347,5.9377,5.9698,5.9991,5.9526,5.9896,6.035,5.9887,5.9758,5.9758,5.9758,5.9815,5.9924,6.0081,6.0351,6.0481,5.9994,5.8748,5.7824,5.8055,5.6242,5.4934,5.5593,0.0,0.0,0.0,5.0752,0.0,4.703,4.5677,4.4934,4.4963,4.5028,4.5699,4.7127,4.645,4.609,0.0,0.0,0.0,0.0,0.0,0.0,5.2274,5.4549,5.5824,5.6093,5.6709,5.7132,5.7396,5.8106,5.8482,5.8578,5.8306,5.8324,5.8445,5.7762,5.7691,5.798,5.7903,5.8389,5.9257,5.9878,6.0317,6.0699,8.9784,9.0519,9.1803,9.5914,9.5951,9.518,9.441,9.3602,9.2794,9.1913,9.1803,9.1803,9.1803,9.1106,9.0922,9.173,9.0317,8.94,8.94,8.8647,8.7105,8.4719,8.3067,8.1468,7.9853,7.7341,7.4515,7.1307,0.0,0.0,6.2234,0.0,6.0348,5.9269,6.1655,6.2291,6.1679,6.3368,6.4066,6.4066,6.4103,6.3111,6.1606,6.1594,6.108,6.0382,6.0382,6.0382,6.0248,5.9465,5.9208,5.9244,5.9347,5.9698,5.9991,5.9526,6.0297,6.1195,6.0722,6.0599,6.0599,6.0599,5.9975,5.9517,5.9984,6.011,6.0224,6.0683,6.0089,5.9742,6.0589,5.9396,5.7665,5.5978,0.0,0.0,0.0,5.0566,0.0,4.6702,4.6,4.5486,4.4693,4.4908,4.5426,4.6233,4.6675,0.0,0.0,0.0,0.0,4.8043,4.9784,0.0,5.3159,5.4857,5.6132,5.6983,5.6983,5.744,5.8308,5.8621,5.854,5.8168,5.936,5.9159,5.8081,5.8866,5.8719,5.8065,5.8497,5.8686,5.8815,5.9768,6.011,6.0168,9.195,9.2317,9.2905,9.474,9.441,9.3786,9.3529,9.2758,9.2097,9.184,9.1803,9.1803,9.1803,9.1583,9.1289,9.1033,8.9987,8.9179,8.861,8.7325,8.5967,8.4646,8.3067,8.1468,7.9853,7.8479,7.646,7.3766,0.0,0.0,0.0,6.4648,6.4254,6.3417,6.4738,6.5191,6.4971,6.5521,6.5081,6.4103,6.4103,6.3429,6.2352,6.1814,6.108,6.0419,6.0419,6.004,5.9636,5.993,5.9636,5.9218,5.9235,5.9594,5.9871,5.9414,6.0153,6.1069,6.0582,6.0048,5.9641,5.9641,5.9278,5.8971,5.9093,5.9625,6.0217,6.0722,6.0127,5.9588,5.9858,5.905,5.8014,5.7124,5.6984,0.0,5.0932,0.0,4.8933,4.554,4.4616,4.4233,4.4198,4.4777,4.5538,4.6422,4.6496,0.0,0.0,0.0,0.0,0.0,5.0313,0.0,5.3197,5.5439,5.6709,5.7022,5.8171,5.8977,5.9546,6.0208,6.0263,5.9856,6.0434,6.0476,6.007,5.9444,5.9049,5.8779,5.8396,5.8418,5.8753,5.9056,5.9929,6.1093,9.2941,9.3088,9.3345,9.4153,9.3639,9.3088,9.3088,9.2354,9.1803,9.1803,9.1803,9.1803,9.1803,9.1546,9.1143,9.0629,8.9583,8.8757,8.8243,8.6995,8.5747,8.4646,8.3067,8.1468,7.9853,7.8993,0.0,7.5784,7.3891,7.1248,6.8004,6.8201,6.8041,6.7564,6.776,6.7687,6.7393,6.7063,6.5999,6.453,6.453,6.387,6.2756,6.2254,6.1557,6.086,6.086,6.0529,6.0114,6.0334,6.026,6.004,5.9747,6.004,6.0341,5.9448,6.0322,6.1458,6.099,6.0272,5.9636,5.9636,5.9042,5.8492,5.8673,5.9284,5.9916,6.0203,5.9824,5.9473,5.9473,5.9204,5.8712,5.7939,5.7322,5.5614,5.1706,0.0,4.8513,0.0,0.0,0.0,0.0,4.6112,4.7044,0.0,4.8162,0.0,0.0,0.0,0.0,4.9505,5.1697,5.3582,5.5082,5.6703,5.7632,5.794,5.9163,6.0014,6.0577,6.0904,6.1106,6.127,6.1463,6.1458,6.1237,6.0426,5.993,5.9563,5.8756,5.8629,5.8905,5.9078,5.9881,6.0993,9.2868,9.3015,9.3235,9.4006,9.3492,9.3015,9.3015,9.2317,9.1803,9.1803,9.1803,9.1803,9.1803,9.1033,9.0519,9.0519,8.9087,8.8169,8.8133,8.7325,8.617,8.4682,8.2957,8.1321,7.9816,7.8956,7.8112,7.7289,7.5065,7.3523,7.2716,7.1931,7.1527,7.1417,7.0513,6.9669,6.8935,6.8031,6.6733,6.5362,6.5251,6.4261,6.2866,6.2829,6.2291,6.1606,6.1667,6.163,6.1484,6.0786,6.1043,6.1484,6.0713,6.1006,6.13,5.982,6.0802,6.2275,6.18,6.114,6.0563,6.0431,5.9208,5.8119,5.8591,5.9056,5.9363,5.9432,5.9415,5.9407,5.9432,5.9792,5.9627,5.8295,5.7413,5.5727,5.2288,0.0,0.0,0.0,0.0,0.0,4.6214,4.8539,4.9482,0.0,0.0,0.0,0.0,0.0,4.9577,5.2,5.378,5.5857,5.8275,5.8352,5.8769,5.9548,5.9939,6.0532,6.1293,6.0966,6.1391,6.2453,6.2479,6.2225,6.179,6.1716,6.119,6.0419,5.96,5.9269,5.9255,5.9732,5.9955,6.017,9.206,9.2097,9.217,9.2354,9.2244,9.2097,9.2097,9.1913,9.1803,9.1803,9.1803,9.1803,9.1803,9.0537,8.9693,8.9693,8.8793,8.7949,8.7308,8.5967,8.5013,8.4609,8.1856,8.0183,7.9816,7.8369,7.7509,7.7289,7.6738,7.6041,7.5249,7.4426,7.3729,7.3046,7.0991,7.0,6.9669,6.765,6.6549,6.6109,6.4861,6.4127,6.3723,6.305,6.2291,6.1679,6.2291,6.2108,6.1667,6.2095,6.1961,6.1569,6.1374,6.1447,6.152,6.1153,6.2119,6.3189,6.2647,6.248,6.214,6.0741,5.9208,5.8119,5.8591,5.8776,5.9047,5.98,5.9633,5.9501,5.987,5.9744,5.9142,5.7866,5.6706,5.4856,5.1538,5.0473,4.9276,0.0,4.8152,4.894,4.8719,4.933,4.9802,0.0,0.0,4.9944,5.0089,5.1262,5.2506,5.3841,5.5516,5.7016,5.8275,5.8896,5.9464,5.9963,6.0307,6.0723,6.1209,6.2292,6.3119,6.3726,6.4303,6.4192,6.3478,6.2805,6.2034,6.1227,6.0419,5.9747,5.9281,6.0022,6.0533,6.1017,9.1803,9.1803,9.1803,9.1803,9.1803,9.1803,9.1803,9.1803,9.1803,9.1803,9.1803,9.1657,9.1289,9.0134,8.9253,8.8886,8.8133,8.7325,8.6518,8.5306,8.4462,8.4058,8.2039,8.055,7.9816,7.8919,7.806,7.7289,7.7289,7.7069,7.6628,7.5836,7.5028,7.4147,7.2129,7.0991,7.0513,6.8458,6.7393,6.693,6.5301,6.442,6.3992,6.3123,6.2291,6.1679,6.2108,6.1961,6.1667,6.2108,6.2218,6.2194,6.2457,6.2514,6.2646,6.3238,6.3523,6.3561,6.3419,6.3236,6.2636,6.0698,5.9108,5.8088,5.8337,5.8375,5.8702,5.9809,5.9675,5.9464,5.9946,5.9512,5.853,5.6877,5.5451,5.3679,5.1136,5.0435,4.9829,4.8914,5.0251,5.1242,5.1242,5.2234,5.2454,5.1426,5.2062,0.0,5.1833,5.3911,5.4926,5.4459,5.6431,5.7926,5.8804,5.923,5.9732,6.0337,6.0688,6.1297,6.2225,6.3294,6.4291,6.5204,6.5264,6.5031,6.4567,6.3759,6.2915,6.2071,6.1263,6.0676,6.0346,6.0786,6.1123,6.1485,9.1803,9.1803,9.1803,9.1803,9.1803,9.1803,9.1803,9.1803,9.1803,9.1803,9.1803,9.1473,9.0702,8.9877,8.9069,8.828,8.7472,8.6664,8.5874,8.5049,8.4205,8.3271,8.2333,8.1122,7.9669,7.9486,7.8736,7.7289,7.7289,7.7289,7.7289,7.6497,7.5689,7.483,7.323,7.2041,7.1197,6.9582,6.8495,6.7737,6.6145,6.5081,6.436,6.3392,6.2585,6.1973,6.1814,6.1777,6.1777,6.1777,6.2254,6.2892,6.3514,6.3673,6.3944,6.5424,6.5011,6.4115,6.4205,6.3508,6.241,6.0799,5.9287,5.8194,5.8194,5.8316,5.8761,5.9976,5.9812,5.9615,6.0014,5.9292,5.7925,5.593,5.4158,5.2496,5.1005,0.0,5.0565,5.1109,5.281,5.3985,5.4095,5.5746,5.5757,5.3261,5.517,5.5807,5.4342,5.636,5.676,5.5001,5.7128,5.8731,5.9578,5.9612,5.9981,6.0669,6.1154,6.2197,6.374,6.4339,6.5445,6.6897,6.6132,6.5713,6.5516,6.4655,6.3759,6.2903,6.2108,6.1716,6.1594,6.1741,6.1704,6.1704,9.1803,9.1803,9.1803,9.1803,9.1803,9.1803,9.1803,9.1803,9.1803,9.1803,9.1803,9.1473,9.0702,8.9877,8.9069,8.828,8.7472,8.6664,8.5874,8.5049,8.3948,8.2443,8.0954,7.9743,7.8809,7.806,7.7546,7.7289,7.7289,7.7289,7.7289,7.6497,7.5689,7.483,7.323,7.2041,7.1197,6.9582,6.8825,6.8568,6.6953,6.6256,6.5962,6.4457,6.3796,6.3625,6.2879,6.2609,6.2609,6.2609,6.2683,6.2952,6.3775,6.4033,6.4414,6.6428,6.6705,6.6066,6.5065,6.3146,6.1527,6.205,6.0669,5.9167,5.9167,5.9758,6.0439,6.1077,6.1046,6.0835,6.0622,5.9231,5.7559,5.5853,5.3665,5.1848,5.0932,0.0,5.1995,5.2747,5.5464,5.7519,5.8205,5.7398,5.7141,5.8022,5.6051,5.524,5.6272,5.7324,5.7762,5.7435,5.8578,5.9607,6.041,6.0703,6.0893,6.1032,6.2047,6.3279,6.4733,6.6158,6.7542,6.8833,6.8257,6.7625,6.6883,6.5654,6.464,6.3796,6.2952,6.2218,6.1679,6.2352,6.2181,6.1704,9.1803,9.1803,9.1803,9.1803,9.1803,9.1803,9.1803,9.1803,9.1803,9.1803,9.1803,9.1326,9.0097,8.962,8.8886,8.7655,8.6811,8.6004,8.5196,8.4792,8.3875,8.226,8.1505,8.0514,7.925,7.7949,7.7289,7.7289,7.7289,7.7289,7.7289,7.6922,7.6078,7.4867,7.4133,7.3105,7.1821,7.022,6.9816,6.9986,6.7504,6.6769,6.6966,6.5375,6.4494,6.4066,6.3649,6.3209,6.2793,6.2793,6.3123,6.3602,6.429,6.4755,6.5442,6.7175,6.7101,6.6329,6.5832,6.3599,6.1611,6.2629,6.1606,6.0435,6.0674,6.1047,6.1603,6.2567,6.2482,6.225,6.2399,6.0575,5.8704,5.7529,5.4348,0.0,5.2674,5.2674,5.3261,5.4939,5.7214,5.8976,5.9783,5.9159,5.8866,5.9196,5.7802,5.7324,5.8058,5.8425,5.8829,5.9281,5.9704,6.012,6.0481,6.0667,6.0939,6.1382,6.2831,6.4204,6.5613,6.7219,6.8432,6.9292,6.9032,6.8484,6.7648,6.6579,6.5491,6.4421,6.3583,6.2853,6.2291,6.2646,6.2572,6.2341,9.1803,9.1803,9.1803,9.1803,9.1803,9.1803,9.1803,9.1803,9.1803,9.1803,9.1803,9.1179,8.9583,8.94,8.8739,8.7124,8.6444,8.5673,8.4646,8.4609,8.3801,8.2003,8.1562,8.0755,7.9559,7.806,7.7289,7.7289,7.7289,7.7289,7.7289,7.7289,7.6445,7.4903,7.4903,7.4001,7.2422,7.0991,7.0624,7.0793,6.8128,6.732,6.7554,6.6109,6.5191,6.4653,6.4457,6.3833,6.3123,6.3306,6.3686,6.4228,6.4963,6.5624,6.6384,6.7734,6.7278,6.642,6.6469,6.4309,6.2253,6.3171,6.2351,6.1482,6.196,6.2225,6.2665,6.381,6.3978,6.3882,6.3893,6.2158,6.0354,5.9157,0.0,5.3416,5.4686,5.4375,5.4866,5.7104,5.8792,6.0077,6.0884,6.0786,6.0407,5.9783,5.96,5.949,5.949,5.9673,6.0114,6.0921,6.0786,6.0676,6.0676,6.108,6.1484,6.1887,6.3772,6.525,6.6346,6.7958,6.9042,6.9664,6.955,6.9133,6.8461,6.7296,6.6216,6.525,6.4172,6.3516,6.318,6.318,6.318,6.3238,9.1803,9.1803,9.1803,9.1803,9.1803,9.1803,9.1803,9.1803,9.1803,9.1803,9.1803,9.1179,8.9583,8.94,8.8739,8.7124,8.6941,8.6244,8.4719,8.4609,8.3544,8.1195,7.9653,7.8809,7.8699,7.7766,7.7289,7.7289,7.7289,7.7289,7.7289,7.7289,7.6445,7.4903,7.4903,7.4001,7.2459,7.1564,7.083,7.011,6.9119,6.8311,6.7627,6.6733,6.6366,6.6219,6.5485,6.4677,6.4127,6.4848,6.4677,6.436,6.588,6.6408,6.6721,6.8057,6.7875,6.7158,6.6834,6.5099,6.3493,6.4055,6.2965,6.1907,6.2419,6.313,6.3833,6.4443,6.541,6.5685,6.4169,6.3403,6.2209,5.9813,0.0,0.0,5.6133,5.6362,5.7141,5.8829,6.0456,6.1741,6.2536,6.1961,6.1496,6.141,6.075,6.0297,6.0297,6.1006,6.1777,6.2609,6.1887,6.152,6.152,6.3038,6.3466,6.2756,6.5191,6.6516,6.6898,6.8508,6.9793,7.0762,7.0266,7.0014,6.9798,6.7666,6.6727,6.6509,6.4963,6.4303,6.4265,6.4265,6.4265,6.4275,9.1803,9.1803,9.1803,9.1803,9.1803,9.1803,9.1803,9.1803,9.1803,9.1803,9.1363,9.0629,8.951,8.8959,8.8206,8.7088,8.6554,8.5783,8.4682,8.4132,8.3214,8.1819,8.0204,7.9339,7.9339,7.7986,7.7289,7.7289,7.7289,7.7289,7.7289,7.7289,7.6702,7.5616,7.5124,7.428,7.3156,7.1857,7.1417,7.1431,6.9633,6.9009,6.9082,6.8274,6.7357,6.6512,6.6733,6.5962,6.4897,6.5178,6.5448,6.5705,6.6292,6.6843,6.735,6.7832,6.7799,6.7517,6.7407,6.6026,6.4756,6.5216,6.4507,6.3791,6.4348,6.4323,6.4241,6.4418,6.5259,6.5831,6.5517,6.4617,6.3904,6.382,0.0,5.9615,6.1121,6.0716,6.0903,6.255,6.3431,6.3833,6.3613,6.3332,6.3148,6.3148,6.2365,6.2352,6.338,6.3723,6.3796,6.3613,6.3332,6.2879,6.2365,6.3503,6.3906,6.3613,6.5558,6.6716,6.7203,6.8305,6.9667,7.1182,7.0408,7.0604,7.1252,6.9375,6.8082,6.718,6.6078,6.5145,6.4379,6.4379,6.4379,6.4426,9.1803,9.1803,9.1803,9.1803,9.1803,9.1803,9.1803,9.1803,9.1803,9.1803,9.1106,9.028,8.9473,8.8683,8.7876,8.7051,8.6518,8.5747,8.4682,8.3618,8.2774,8.2223,8.0918,8.0073,7.9816,7.8442,7.7582,7.7289,7.7289,7.7289,7.7289,7.7289,7.6885,7.6056,7.527,7.4441,7.3597,7.2261,7.1857,7.1982,7.0316,6.9816,7.0036,6.9486,6.8605,6.765,6.7981,6.721,6.6035,6.6035,6.6256,6.6549,6.6806,6.726,6.77,6.77,6.77,6.77,6.77,6.688,6.6066,6.6149,6.5553,6.5085,6.5628,6.5311,6.4958,6.5124,6.5784,6.638,6.6491,6.6126,6.5927,6.6301,6.4237,6.312,6.4804,6.4123,6.3909,6.5113,6.5431,6.5286,6.4556,6.4494,6.4494,6.4494,6.393,6.4077,6.5251,6.5288,6.5044,6.4494,6.4249,6.3796,6.3196,6.4053,6.436,6.4139,6.5999,6.717,6.7691,6.825,6.945,7.1093,7.0416,7.0659,7.1427,7.0197,6.8985,6.7783,6.6942,6.5893,6.4871,6.4871,6.4871,6.4913,9.1803,9.1803,9.1803,9.1803,9.1803,9.1803,9.1803,9.1803,9.1803,9.1803,9.1106,9.028,8.9473,8.8683,8.7876,8.7051,8.6978,8.6334,8.4719,8.3067,8.2186,8.2186,8.1415,8.0645,7.9816,7.9029,7.8185,7.7326,7.7326,7.7326,7.7326,7.7289,7.6885,7.6056,7.527,7.4478,7.367,7.2863,7.2041,7.1307,7.1307,7.083,7.011,7.011,7.011,7.0,6.9192,6.8385,6.7737,6.77,6.7187,6.6659,6.7444,6.77,6.77,6.77,6.77,6.77,6.77,6.77,6.7517,6.6696,6.5888,6.5431,6.5917,6.5981,6.615,6.6691,6.7414,6.7764,6.6962,6.788,6.8239,6.6584,6.6373,6.6405,6.6442,6.6012,6.5828,6.6101,6.6146,6.5919,6.5366,6.5338,6.5338,6.5325,6.5325,6.5325,6.5288,6.5325,6.5325,6.5288,6.453,6.4139,6.4103,6.4897,6.4897,6.4139,6.6562,6.7982,6.8499,6.8499,6.9245,7.0482,7.0228,7.0103,7.0099,6.9822,6.9199,6.8314,6.7436,6.6596,6.5904,6.5904,6.5904,6.5904,9.1803,9.1803,9.1803,9.1803,9.1803,9.1803,9.1803,9.1803,9.1803,9.1803,9.0629,8.9657,8.9436,8.8189,8.7031,8.6224,8.6151,8.5453,8.3858,8.226,8.1599,8.2186,8.1415,8.0901,8.0645,7.9837,7.9302,7.9029,7.8479,7.8222,7.8222,7.7582,7.7179,7.6922,7.6093,7.5322,7.4478,7.367,7.2899,7.2092,7.1527,7.116,7.094,7.094,7.0587,7.0073,6.9816,6.9596,6.9192,6.8068,6.7907,6.8128,6.7811,6.8104,6.8421,6.7884,6.8091,6.8421,6.7847,6.77,6.7627,6.7407,6.6733,6.6198,6.6318,6.5926,6.557,6.5717,6.6395,6.6985,6.7128,6.7439,6.7635,6.7524,6.7823,6.8311,6.8921,6.8896,6.9031,6.9758,6.8945,6.791,6.681,6.6701,6.6778,6.6956,6.7504,6.7307,6.6219,6.6659,6.6733,6.6145,6.5925,6.5521,6.4971,6.5178,6.5178,6.4971,6.7393,6.864,6.8765,6.8765,6.952,7.0805,6.9916,7.0098,7.0976,7.0666,6.9699,6.8353,6.8122,6.7167,6.5904,6.5904,6.5904,6.5981,9.14,9.1583,9.1693,9.1363,9.1583,9.1803,9.1803,9.1546,9.1326,9.1326,8.9931,8.8923,8.8923,8.7748,8.6701,8.5857,8.5233,8.4462,8.3454,8.2186,8.1672,8.2186,8.1746,8.1342,8.1012,8.0534,7.9947,7.9339,7.8846,7.8405,7.806,7.7546,7.7289,7.7252,7.646,7.5652,7.483,7.4037,7.323,7.2459,7.1967,7.1784,7.1784,7.1784,7.1468,7.0991,7.0697,7.0587,7.033,6.8715,6.8495,6.8752,6.7958,6.8458,6.9155,6.8031,6.8274,6.8715,6.7921,6.77,6.77,6.77,6.7333,6.6953,6.6953,6.6586,6.6256,6.6256,6.6623,6.7085,6.7395,6.7614,6.7821,6.8152,6.8894,6.9643,7.0184,7.0269,7.0459,7.099,6.9993,6.8991,6.8161,6.8402,6.8714,6.8997,6.9222,6.8935,6.7981,6.8091,6.8091,6.7944,6.699,6.6402,6.6256,6.5925,6.5765,6.5802,6.7907,6.9082,6.9389,6.96,7.0217,7.109,7.0755,7.0783,7.1046,7.1329,7.0437,6.8891,6.8891,6.809,6.6898,6.6898,6.6898,6.6974,9.0849,9.1289,9.1546,9.0739,9.1216,9.1657,9.1583,9.0959,9.0482,9.0482,8.916,8.8206,8.8206,8.7472,8.6701,8.5857,8.4352,8.3381,8.3308,8.2553,8.2113,8.2186,8.2113,8.1782,8.1122,8.1122,8.0351,7.8809,7.8736,7.8259,7.7399,7.7362,7.7289,7.7289,7.6518,7.5726,7.483,7.4111,7.3303,7.2496,7.2496,7.2532,7.2606,7.2532,7.2532,7.2496,7.16,7.1344,7.116,6.9619,6.9009,6.8788,6.8141,6.8985,6.9889,6.8361,6.8495,6.8935,6.8141,6.7921,6.7884,6.7847,6.7811,6.7811,6.7737,6.77,6.77,6.77,6.77,6.77,6.77,6.8171,6.8502,6.8428,6.9608,7.0529,7.0529,7.0571,7.064,7.0715,7.006,6.959,6.9539,7.0263,7.082,7.1005,7.0494,7.0183,7.011,6.9412,6.9339,7.0073,6.7981,6.7173,6.7921,6.7173,6.6696,6.6512,6.8268,6.9471,7.0197,7.0883,7.1291,7.148,7.226,7.1835,7.0652,7.1742,7.1206,6.9706,6.9706,6.9161,6.8391,6.8391,6.8391,6.8391,9.1583,9.1693,9.1546,9.0739,9.0739,9.0665,9.0024,8.9767,8.9657,8.9657,8.883,8.8206,8.8206,8.7472,8.6701,8.5857,8.4352,8.3124,8.2517,8.1709,8.1525,8.215,8.1599,8.1489,8.1929,8.1929,8.1452,8.0498,7.9837,7.9103,7.8295,7.7619,7.7289,7.7289,7.7105,7.6225,7.4903,7.472,7.3802,7.2496,7.2496,7.2899,7.3377,7.2753,7.2899,7.323,7.1821,7.1711,7.2092,7.1123,6.9949,6.8972,6.9449,7.0257,7.083,6.9853,7.0146,7.061,6.9816,6.9573,6.9412,6.8788,6.8641,6.8458,6.7847,6.77,6.77,6.77,6.77,6.77,6.77,6.8299,6.8612,6.7963,6.9546,7.0814,7.0887,7.12,7.1685,7.2375,7.2119,7.1722,7.1278,7.1625,7.1624,7.1044,7.1035,7.0756,7.011,6.9926,6.9926,7.0073,6.9596,6.9412,6.9573,6.9412,6.8385,6.6526,6.9258,7.0623,7.0834,7.2041,7.2582,7.2643,7.2624,7.2072,7.1248,7.1903,7.1206,6.9706,6.9706,6.9161,6.8391,6.8391,6.8391,6.8507,9.0812,9.1253,9.1289,8.9748,9.0078,9.0317,8.951,8.9069,8.8812,8.8812,8.8133,8.7619,8.7619,8.7252,8.6518,8.5343,8.4115,8.3051,8.226,8.1819,8.1599,8.1636,8.1232,8.1012,8.1064,8.1415,8.1232,8.0424,8.0,7.9176,7.7949,7.7509,7.7289,7.7289,7.7289,7.6628,7.5469,7.505,7.4169,7.3046,7.2642,7.2753,7.312,7.3083,7.3083,7.3083,7.2606,7.2224,7.1857,7.1454,7.0756,7.0059,7.0073,7.0917,7.1637,7.044,7.066,7.1123,7.033,7.011,7.0,6.9596,6.9486,6.9155,6.7958,6.77,6.77,6.77,6.77,6.7811,6.8201,6.8605,6.8898,6.8862,7.0116,7.1094,7.1157,7.1366,7.1763,7.2471,7.2111,7.1954,7.232,7.2225,7.2162,7.2137,7.1958,7.1688,7.1284,7.0881,7.0844,7.1248,7.0513,7.0293,7.066,7.0293,6.9449,6.8251,7.0485,7.1367,7.1068,7.309,7.3848,7.363,7.4067,7.336,7.2028,7.2586,7.1822,7.0283,7.0283,6.9975,6.959,6.959,6.959,6.9667,8.9877,9.0812,9.1033,8.861,8.9417,9.006,8.9143,8.8409,8.7986,8.7986,8.7435,8.6978,8.6978,8.6978,8.6354,8.4756,8.3968,8.3214,8.226,8.2076,8.1709,8.1048,8.0865,8.0461,7.9816,8.0571,8.0608,7.9816,7.9816,7.9029,7.7509,7.7362,7.7289,7.7289,7.7289,7.6848,7.6056,7.5395,7.4551,7.3648,7.2973,7.2716,7.2753,7.3303,7.3156,7.2789,7.3303,7.2569,7.1344,7.1637,7.1527,7.1233,7.0844,7.1541,7.2239,7.0881,7.0991,7.1344,7.0697,7.0513,7.0477,7.033,7.0293,6.9926,6.8435,6.8104,6.8068,6.7921,6.7994,6.8288,6.8788,6.9105,6.9509,7.0183,7.1101,7.1711,7.1711,7.1711,7.1862,7.2329,7.1752,7.1933,7.3479,7.2838,7.2783,7.3902,7.3145,7.2825,7.3222,7.2447,7.2268,7.2842,7.1568,7.1057,7.149,7.0844,7.0513,7.0527,7.1821,7.2012,7.1422,7.3969,7.4924,7.4629,7.5606,7.4827,7.3009,7.3484,7.2661,7.1129,7.1129,7.1014,7.0898,7.0898,7.0898,7.0898,9.0629,9.1179,9.1033,8.861,8.8959,8.9069,8.7565,8.7234,8.7178,8.7178,8.7051,8.6978,8.6978,8.6978,8.6354,8.4756,8.4499,8.3801,8.2296,8.1562,8.1122,8.1012,8.0314,7.9926,7.9816,8.0571,8.0608,7.9816,7.9816,7.9339,7.8405,7.7656,7.7289,7.7289,7.7289,7.6848,7.6093,7.5983,7.5065,7.367,7.356,7.3523,7.345,7.2899,7.3046,7.345,7.2863,7.2078,7.1527,7.2899,7.2459,7.1527,7.2789,7.2863,7.2459,7.2239,7.2239,7.2312,7.2202,7.2165,7.2018,7.1307,7.1123,7.0903,6.9963,6.9779,6.9559,6.8898,6.9302,6.9596,6.9009,7.0022,7.1013,7.1123,7.2386,7.3377,7.3377,7.3377,7.342,7.3484,7.3239,7.3901,7.5992,7.4397,7.4088,7.6085,7.4424,7.4138,7.6126,7.5411,7.4741,7.4344,7.4108,7.3471,7.2349,7.2239,7.2165,7.2165,7.2884,7.3064,7.2784,7.4391,7.5362,7.5779,7.5932,7.5408,7.4434,7.4486,7.3553,7.2021,7.2021,7.1552,7.0898,7.0898,7.0898,7.0898,9.017,9.0592,9.0372,8.7949,8.8206,8.8353,8.7161,8.6978,8.6978,8.6978,8.6978,8.6848,8.6371,8.593,8.538,8.4646,8.4205,8.3251,8.1636,8.1195,8.0608,7.969,7.9323,7.8883,7.8405,7.9213,7.947,7.914,7.9596,7.914,7.7876,7.7472,7.7289,7.7289,7.7289,7.7105,7.6738,7.6276,7.5689,7.4992,7.4551,7.4368,7.4331,7.3986,7.4059,7.4258,7.345,7.2936,7.2753,7.345,7.3523,7.3362,7.3597,7.345,7.3083,7.2642,7.2496,7.2606,7.3046,7.2826,7.2642,7.3179,7.2628,7.2114,7.2679,7.2422,7.1615,6.9926,6.9853,7.0146,7.0206,7.083,7.16,7.2496,7.323,7.3854,7.4294,7.4368,7.4368,7.4368,7.429,7.4612,7.5578,7.5128,7.5221,7.618,7.5652,7.5727,7.6764,7.6424,7.6112,7.5836,7.5496,7.5025,7.4407,7.4034,7.3839,7.3854,7.4111,7.3879,7.3255,7.4233,7.4952,7.5518,7.5518,7.5187,7.47,7.47,7.4007,7.2937,7.2937,7.2399,7.1706,7.2168,7.2052,7.1706]}]]